<?xml version='1.0' encoding='UTF-8'?><gpx version="1.1" creator="JPX - https://github.com/jenetics/jpx" xmlns="http://www.topografix.com/GPX/1/1"><trk><trkseg><trkpt lat="43.4572567" lon="11.8838166"><ele>259.0</ele><time>2026-04-18T11:38:04.674Z</time></trkpt><trkpt lat="43.4572692" lon="11.883729"><ele>259.0</ele><time>2026-04-18T11:38:06.671Z</time></trkpt><trkpt lat="43.4573401" lon="11.8835728"><ele>259.0</ele><time>2026-04-18T11:38:08.67Z</time></trkpt><trkpt lat="43.4573792" lon="11.8834939"><ele>259.0</ele><time>2026-04-18T11:38:09.675Z</time></trkpt><trkpt lat="43.4574247" lon="11.8834267"><ele>259.0</ele><time>2026-04-18T11:38:10.678Z</time></trkpt><trkpt lat="43.4574734" lon="11.8833641"><ele>259.0</ele><time>2026-04-18T11:38:11.671Z</time></trkpt><trkpt lat="43.4575639" lon="11.8832603"><ele>259.66666666666663</ele><time>2026-04-18T11:38:13.669Z</time></trkpt><trkpt lat="43.4576283" lon="11.8831607"><ele>260.3333333333333</ele><time>2026-04-18T11:38:15.67Z</time></trkpt><trkpt lat="43.4576899" lon="11.8830693"><ele>261.0</ele><time>2026-04-18T11:38:17.672Z</time></trkpt><trkpt lat="43.4577336" lon="11.8829851"><ele>261.6666666666667</ele><time>2026-04-18T11:38:19.674Z</time></trkpt><trkpt lat="43.4577911" lon="11.8828895"><ele>262.33333333333337</ele><time>2026-04-18T11:38:22.673Z</time></trkpt><trkpt lat="43.4578527" lon="11.8828185"><ele>263.0</ele><time>2026-04-18T11:38:25.677Z</time></trkpt><trkpt lat="43.4579091" lon="11.8827603"><ele>262.4</ele><time>2026-04-18T11:38:27.694Z</time></trkpt><trkpt lat="43.4579681" lon="11.8826824"><ele>261.8</ele><time>2026-04-18T11:38:29.668Z</time></trkpt><trkpt lat="43.4580318" lon="11.8825997"><ele>261.2</ele><time>2026-04-18T11:38:31.669Z</time></trkpt><trkpt lat="43.4581289" lon="11.8825436"><ele>260.6</ele><time>2026-04-18T11:38:33.676Z</time></trkpt><trkpt lat="43.4582209" lon="11.8824945"><ele>260.0</ele><time>2026-04-18T11:38:35.67Z</time></trkpt><trkpt lat="43.4582982" lon="11.8824632"><ele>260.00000000000006</ele><time>2026-04-18T11:38:37.669Z</time></trkpt><trkpt lat="43.4583645" lon="11.8824481"><ele>260.0</ele><time>2026-04-18T11:38:39.68Z</time></trkpt><trkpt lat="43.4584388" lon="11.8824451"><ele>260.0</ele><time>2026-04-18T11:38:41.667Z</time></trkpt><trkpt lat="43.4585251" lon="11.8824387"><ele>260.0</ele><time>2026-04-18T11:38:44.672Z</time></trkpt><trkpt lat="43.4585539" lon="11.8823511"><ele>260.0</ele><time>2026-04-18T11:38:47.672Z</time></trkpt><trkpt lat="43.4585483" lon="11.8822599"><ele>260.00000000000006</ele><time>2026-04-18T11:38:49.674Z</time></trkpt><trkpt lat="43.4585406" lon="11.8821695"><ele>260.0</ele><time>2026-04-18T11:38:51.674Z</time></trkpt><trkpt lat="43.4585282" lon="11.8820743"><ele>260.0</ele><time>2026-04-18T11:38:53.679Z</time></trkpt><trkpt lat="43.458511" lon="11.8819803"><ele>260.0</ele><time>2026-04-18T11:38:56.676Z</time></trkpt><trkpt lat="43.4585085" lon="11.8818897"><ele>260.0</ele><time>2026-04-18T11:39:01.679Z</time></trkpt><trkpt lat="43.4585799" lon="11.8818196"><ele>260.0</ele><time>2026-04-18T11:39:04.675Z</time></trkpt><trkpt lat="43.4586591" lon="11.8817947"><ele>260.0</ele><time>2026-04-18T11:39:06.67Z</time></trkpt><trkpt lat="43.4587346" lon="11.8817702"><ele>260.0</ele><time>2026-04-18T11:39:08.671Z</time></trkpt><trkpt lat="43.4588208" lon="11.8817523"><ele>259.2</ele><time>2026-04-18T11:39:10.677Z</time></trkpt><trkpt lat="43.4589205" lon="11.8817328"><ele>258.4</ele><time>2026-04-18T11:39:12.671Z</time></trkpt><trkpt lat="43.4590201" lon="11.8817171"><ele>257.6</ele><time>2026-04-18T11:39:14.675Z</time></trkpt><trkpt lat="43.4591118" lon="11.8816829"><ele>256.8</ele><time>2026-04-18T11:39:16.668Z</time></trkpt><trkpt lat="43.459167" lon="11.8816322"><ele>256.0</ele><time>2026-04-18T11:39:18.676Z</time></trkpt><trkpt lat="43.4592091" lon="11.881507"><ele>256.0</ele><time>2026-04-18T11:39:21.677Z</time></trkpt><trkpt lat="43.4591965" lon="11.881415"><ele>256.0</ele><time>2026-04-18T11:39:22.668Z</time></trkpt><trkpt lat="43.4591823" lon="11.8813188"><ele>256.0</ele><time>2026-04-18T11:39:23.668Z</time></trkpt><trkpt lat="43.4591565" lon="11.881213"><ele>256.0</ele><time>2026-04-18T11:39:24.671Z</time></trkpt><trkpt lat="43.4591145" lon="11.8810733"><ele>256.0</ele><time>2026-04-18T11:39:25.674Z</time></trkpt><trkpt lat="43.4590673" lon="11.8809173"><ele>256.8</ele><time>2026-04-18T11:39:26.675Z</time></trkpt><trkpt lat="43.4590192" lon="11.8807675"><ele>257.6</ele><time>2026-04-18T11:39:27.671Z</time></trkpt><trkpt lat="43.4589626" lon="11.8806491"><ele>258.4</ele><time>2026-04-18T11:39:28.685Z</time></trkpt><trkpt lat="43.4589014" lon="11.8805474"><ele>259.2</ele><time>2026-04-18T11:39:29.673Z</time></trkpt><trkpt lat="43.4588464" lon="11.8804492"><ele>260.0</ele><time>2026-04-18T11:39:30.684Z</time></trkpt><trkpt lat="43.4587971" lon="11.8803657"><ele>260.0</ele><time>2026-04-18T11:39:31.686Z</time></trkpt><trkpt lat="43.4587462" lon="11.8802864"><ele>260.0</ele><time>2026-04-18T11:39:32.675Z</time></trkpt><trkpt lat="43.4586659" lon="11.8802506"><ele>260.0</ele><time>2026-04-18T11:39:33.674Z</time></trkpt><trkpt lat="43.4585643" lon="11.8802256"><ele>260.0</ele><time>2026-04-18T11:39:34.678Z</time></trkpt><trkpt lat="43.458457" lon="11.8802273"><ele>260.0</ele><time>2026-04-18T11:39:35.671Z</time></trkpt><trkpt lat="43.4583639" lon="11.8802454"><ele>260.0</ele><time>2026-04-18T11:39:36.673Z</time></trkpt><trkpt lat="43.4582468" lon="11.8802551"><ele>260.0</ele><time>2026-04-18T11:39:37.667Z</time></trkpt><trkpt lat="43.4581344" lon="11.8802727"><ele>260.0</ele><time>2026-04-18T11:39:38.673Z</time></trkpt><trkpt lat="43.4580112" lon="11.8802961"><ele>260.0</ele><time>2026-04-18T11:39:39.669Z</time></trkpt><trkpt lat="43.4578939" lon="11.8803381"><ele>260.5</ele><time>2026-04-18T11:39:40.674Z</time></trkpt><trkpt lat="43.4577831" lon="11.8803647"><ele>261.0</ele><time>2026-04-18T11:39:41.675Z</time></trkpt><trkpt lat="43.4576658" lon="11.8803966"><ele>261.5</ele><time>2026-04-18T11:39:42.679Z</time></trkpt><trkpt lat="43.4575357" lon="11.8804374"><ele>262.0</ele><time>2026-04-18T11:39:43.674Z</time></trkpt><trkpt lat="43.4574107" lon="11.8804626"><ele>262.0</ele><time>2026-04-18T11:39:44.682Z</time></trkpt><trkpt lat="43.4572901" lon="11.8804849"><ele>262.0</ele><time>2026-04-18T11:39:45.672Z</time></trkpt><trkpt lat="43.4571772" lon="11.8805086"><ele>262.0</ele><time>2026-04-18T11:39:46.675Z</time></trkpt><trkpt lat="43.4570671" lon="11.8805447"><ele>262.0</ele><time>2026-04-18T11:39:47.678Z</time></trkpt><trkpt lat="43.4569474" lon="11.8805632"><ele>263.2</ele><time>2026-04-18T11:39:48.673Z</time></trkpt><trkpt lat="43.4568397" lon="11.8805909"><ele>264.4</ele><time>2026-04-18T11:39:49.672Z</time></trkpt><trkpt lat="43.4567343" lon="11.8806163"><ele>265.6</ele><time>2026-04-18T11:39:50.673Z</time></trkpt><trkpt lat="43.456637" lon="11.8806427"><ele>266.8</ele><time>2026-04-18T11:39:51.674Z</time></trkpt><trkpt lat="43.4565515" lon="11.8806586"><ele>268.0</ele><time>2026-04-18T11:39:52.674Z</time></trkpt><trkpt lat="43.4564773" lon="11.8806694"><ele>268.0</ele><time>2026-04-18T11:39:53.671Z</time></trkpt><trkpt lat="43.456405" lon="11.8806318"><ele>268.0</ele><time>2026-04-18T11:39:54.674Z</time></trkpt><trkpt lat="43.4563521" lon="11.8805614"><ele>268.0</ele><time>2026-04-18T11:39:55.673Z</time></trkpt><trkpt lat="43.4563232" lon="11.8804833"><ele>268.0</ele><time>2026-04-18T11:39:56.684Z</time></trkpt><trkpt lat="43.4563016" lon="11.8803692"><ele>268.0</ele><time>2026-04-18T11:39:57.675Z</time></trkpt><trkpt lat="43.4562973" lon="11.8802443"><ele>268.0</ele><time>2026-04-18T11:39:58.675Z</time></trkpt><trkpt lat="43.4562878" lon="11.8801183"><ele>266.16666666666663</ele><time>2026-04-18T11:39:59.675Z</time></trkpt><trkpt lat="43.456271" lon="11.8799914"><ele>264.3333333333333</ele><time>2026-04-18T11:40:00.674Z</time></trkpt><trkpt lat="43.4562546" lon="11.8798785"><ele>262.5</ele><time>2026-04-18T11:40:01.68Z</time></trkpt><trkpt lat="43.4562129" lon="11.8797738"><ele>260.6666666666667</ele><time>2026-04-18T11:40:02.674Z</time></trkpt><trkpt lat="43.4561517" lon="11.8796963"><ele>258.83333333333337</ele><time>2026-04-18T11:40:03.679Z</time></trkpt><trkpt lat="43.4560771" lon="11.879651"><ele>257.0</ele><time>2026-04-18T11:40:04.672Z</time></trkpt><trkpt lat="43.4559926" lon="11.8796236"><ele>257.0</ele><time>2026-04-18T11:40:05.684Z</time></trkpt><trkpt lat="43.4558965" lon="11.8796011"><ele>257.0</ele><time>2026-04-18T11:40:06.67Z</time></trkpt><trkpt lat="43.4557935" lon="11.8795689"><ele>257.0</ele><time>2026-04-18T11:40:07.676Z</time></trkpt><trkpt lat="43.4556838" lon="11.8795402"><ele>257.0</ele><time>2026-04-18T11:40:08.672Z</time></trkpt><trkpt lat="43.4555765" lon="11.8795087"><ele>257.0</ele><time>2026-04-18T11:40:09.677Z</time></trkpt><trkpt lat="43.4554653" lon="11.8794752"><ele>257.8</ele><time>2026-04-18T11:40:10.675Z</time></trkpt><trkpt lat="43.4553587" lon="11.8794447"><ele>258.6</ele><time>2026-04-18T11:40:11.674Z</time></trkpt><trkpt lat="43.4552541" lon="11.8794161"><ele>259.40000000000003</ele><time>2026-04-18T11:40:12.672Z</time></trkpt><trkpt lat="43.4551468" lon="11.8793845"><ele>260.2</ele><time>2026-04-18T11:40:13.675Z</time></trkpt><trkpt lat="43.455035" lon="11.8793533"><ele>261.0</ele><time>2026-04-18T11:40:14.673Z</time></trkpt><trkpt lat="43.4549221" lon="11.8793139"><ele>261.0</ele><time>2026-04-18T11:40:15.677Z</time></trkpt><trkpt lat="43.4548052" lon="11.8792771"><ele>261.0</ele><time>2026-04-18T11:40:16.671Z</time></trkpt><trkpt lat="43.454691" lon="11.8792401"><ele>261.0</ele><time>2026-04-18T11:40:17.67Z</time></trkpt><trkpt lat="43.4545715" lon="11.8792049"><ele>261.0</ele><time>2026-04-18T11:40:18.672Z</time></trkpt><trkpt lat="43.454453" lon="11.8791654"><ele>259.75</ele><time>2026-04-18T11:40:19.69Z</time></trkpt><trkpt lat="43.4543368" lon="11.8791268"><ele>258.5</ele><time>2026-04-18T11:40:20.676Z</time></trkpt><trkpt lat="43.4542186" lon="11.8790892"><ele>257.25</ele><time>2026-04-18T11:40:21.67Z</time></trkpt><trkpt lat="43.4540971" lon="11.8790522"><ele>256.0</ele><time>2026-04-18T11:40:22.677Z</time></trkpt><trkpt lat="43.4539785" lon="11.8790184"><ele>256.0</ele><time>2026-04-18T11:40:23.671Z</time></trkpt><trkpt lat="43.45386" lon="11.8789896"><ele>256.0</ele><time>2026-04-18T11:40:24.676Z</time></trkpt><trkpt lat="43.4537504" lon="11.8789556"><ele>256.0</ele><time>2026-04-18T11:40:25.677Z</time></trkpt><trkpt lat="43.4536402" lon="11.8789386"><ele>256.0</ele><time>2026-04-18T11:40:26.665Z</time></trkpt><trkpt lat="43.4535362" lon="11.8789269"><ele>256.0</ele><time>2026-04-18T11:40:27.679Z</time></trkpt><trkpt lat="43.4534245" lon="11.8789233"><ele>256.0</ele><time>2026-04-18T11:40:28.666Z</time></trkpt><trkpt lat="43.453316" lon="11.8789266"><ele>256.0</ele><time>2026-04-18T11:40:29.681Z</time></trkpt><trkpt lat="43.4532096" lon="11.8789509"><ele>256.0</ele><time>2026-04-18T11:40:30.678Z</time></trkpt><trkpt lat="43.4531001" lon="11.878975"><ele>256.0</ele><time>2026-04-18T11:40:31.674Z</time></trkpt><trkpt lat="43.4529871" lon="11.8789995"><ele>256.0</ele><time>2026-04-18T11:40:32.672Z</time></trkpt><trkpt lat="43.4528727" lon="11.8790267"><ele>256.0</ele><time>2026-04-18T11:40:33.679Z</time></trkpt><trkpt lat="43.4527555" lon="11.8790569"><ele>256.0</ele><time>2026-04-18T11:40:34.683Z</time></trkpt><trkpt lat="43.4526441" lon="11.8790764"><ele>256.0</ele><time>2026-04-18T11:40:35.676Z</time></trkpt><trkpt lat="43.4525328" lon="11.8790779"><ele>256.0</ele><time>2026-04-18T11:40:36.672Z</time></trkpt><trkpt lat="43.4524259" lon="11.879072"><ele>255.99999999999997</ele><time>2026-04-18T11:40:37.669Z</time></trkpt><trkpt lat="43.4523271" lon="11.8790695"><ele>256.0</ele><time>2026-04-18T11:40:38.677Z</time></trkpt><trkpt lat="43.4522421" lon="11.8790624"><ele>256.0</ele><time>2026-04-18T11:40:39.666Z</time></trkpt><trkpt lat="43.452166" lon="11.8790348"><ele>256.0</ele><time>2026-04-18T11:40:40.683Z</time></trkpt><trkpt lat="43.4520985" lon="11.8789827"><ele>255.99999999999997</ele><time>2026-04-18T11:40:41.671Z</time></trkpt><trkpt lat="43.4520471" lon="11.8789157"><ele>256.0</ele><time>2026-04-18T11:40:42.676Z</time></trkpt><trkpt lat="43.4520036" lon="11.8788292"><ele>255.99999999999997</ele><time>2026-04-18T11:40:43.679Z</time></trkpt><trkpt lat="43.4519872" lon="11.878731"><ele>256.0</ele><time>2026-04-18T11:40:44.674Z</time></trkpt><trkpt lat="43.4519766" lon="11.8786167"><ele>256.0</ele><time>2026-04-18T11:40:45.683Z</time></trkpt><trkpt lat="43.4519581" lon="11.8785118"><ele>256.0</ele><time>2026-04-18T11:40:46.673Z</time></trkpt><trkpt lat="43.4518989" lon="11.8784158"><ele>255.99999999999997</ele><time>2026-04-18T11:40:47.673Z</time></trkpt><trkpt lat="43.4518308" lon="11.8783324"><ele>256.0</ele><time>2026-04-18T11:40:48.679Z</time></trkpt><trkpt lat="43.4517468" lon="11.8782586"><ele>256.0</ele><time>2026-04-18T11:40:49.682Z</time></trkpt><trkpt lat="43.4516658" lon="11.8781919"><ele>256.0</ele><time>2026-04-18T11:40:50.68Z</time></trkpt><trkpt lat="43.4515645" lon="11.8781366"><ele>256.0</ele><time>2026-04-18T11:40:51.685Z</time></trkpt><trkpt lat="43.4514528" lon="11.8780692"><ele>256.0</ele><time>2026-04-18T11:40:52.678Z</time></trkpt><trkpt lat="43.4513584" lon="11.8779574"><ele>256.3333333333333</ele><time>2026-04-18T11:40:53.674Z</time></trkpt><trkpt lat="43.4512691" lon="11.8778059"><ele>256.6666666666667</ele><time>2026-04-18T11:40:54.681Z</time></trkpt><trkpt lat="43.4511824" lon="11.8776273"><ele>257.0</ele><time>2026-04-18T11:40:55.674Z</time></trkpt><trkpt lat="43.4511006" lon="11.8774352"><ele>257.33333333333337</ele><time>2026-04-18T11:40:56.677Z</time></trkpt><trkpt lat="43.4510131" lon="11.877245"><ele>257.6666666666667</ele><time>2026-04-18T11:40:57.676Z</time></trkpt><trkpt lat="43.4509277" lon="11.8770545"><ele>258.0</ele><time>2026-04-18T11:40:58.683Z</time></trkpt><trkpt lat="43.4508435" lon="11.8768669"><ele>257.6666666666667</ele><time>2026-04-18T11:40:59.673Z</time></trkpt><trkpt lat="43.4507545" lon="11.8766785"><ele>257.33333333333337</ele><time>2026-04-18T11:41:00.673Z</time></trkpt><trkpt lat="43.4506682" lon="11.8764891"><ele>257.0</ele><time>2026-04-18T11:41:01.675Z</time></trkpt><trkpt lat="43.450577" lon="11.8762931"><ele>257.0</ele><time>2026-04-18T11:41:02.67Z</time></trkpt><trkpt lat="43.4504789" lon="11.8760811"><ele>257.0</ele><time>2026-04-18T11:41:03.678Z</time></trkpt><trkpt lat="43.4503822" lon="11.8758634"><ele>257.0</ele><time>2026-04-18T11:41:04.67Z</time></trkpt><trkpt lat="43.4502833" lon="11.8756265"><ele>257.33333333333337</ele><time>2026-04-18T11:41:05.673Z</time></trkpt><trkpt lat="43.4501893" lon="11.8753911"><ele>257.6666666666667</ele><time>2026-04-18T11:41:06.679Z</time></trkpt><trkpt lat="43.4500899" lon="11.8751513"><ele>258.0</ele><time>2026-04-18T11:41:07.676Z</time></trkpt><trkpt lat="43.4499898" lon="11.8749166"><ele>258.0</ele><time>2026-04-18T11:41:08.68Z</time></trkpt><trkpt lat="43.449889" lon="11.8746721"><ele>258.0</ele><time>2026-04-18T11:41:09.676Z</time></trkpt><trkpt lat="43.4497828" lon="11.8744261"><ele>258.0</ele><time>2026-04-18T11:41:10.675Z</time></trkpt><trkpt lat="43.4496718" lon="11.8741723"><ele>257.6666666666667</ele><time>2026-04-18T11:41:11.685Z</time></trkpt><trkpt lat="43.4495646" lon="11.8739211"><ele>257.33333333333337</ele><time>2026-04-18T11:41:12.678Z</time></trkpt><trkpt lat="43.4494567" lon="11.873673"><ele>257.0</ele><time>2026-04-18T11:41:13.67Z</time></trkpt><trkpt lat="43.4493467" lon="11.8734245"><ele>257.0</ele><time>2026-04-18T11:41:14.666Z</time></trkpt><trkpt lat="43.4492365" lon="11.8731636"><ele>257.0</ele><time>2026-04-18T11:41:15.682Z</time></trkpt><trkpt lat="43.4491241" lon="11.8728974"><ele>257.0</ele><time>2026-04-18T11:41:16.675Z</time></trkpt><trkpt lat="43.4490079" lon="11.8726319"><ele>257.0</ele><time>2026-04-18T11:41:17.673Z</time></trkpt><trkpt lat="43.4488894" lon="11.8723674"><ele>257.0</ele><time>2026-04-18T11:41:18.668Z</time></trkpt><trkpt lat="43.4487687" lon="11.8721142"><ele>257.0</ele><time>2026-04-18T11:41:19.673Z</time></trkpt><trkpt lat="43.4486409" lon="11.8718724"><ele>256.6666666666667</ele><time>2026-04-18T11:41:20.673Z</time></trkpt><trkpt lat="43.4484953" lon="11.8716361"><ele>256.3333333333333</ele><time>2026-04-18T11:41:21.671Z</time></trkpt><trkpt lat="43.4483501" lon="11.8714048"><ele>256.0</ele><time>2026-04-18T11:41:22.665Z</time></trkpt><trkpt lat="43.448205" lon="11.8711766"><ele>256.0</ele><time>2026-04-18T11:41:23.682Z</time></trkpt><trkpt lat="43.4480519" lon="11.8709461"><ele>256.0</ele><time>2026-04-18T11:41:24.669Z</time></trkpt><trkpt lat="43.4479017" lon="11.8707192"><ele>256.0</ele><time>2026-04-18T11:41:25.678Z</time></trkpt><trkpt lat="43.447752" lon="11.8704903"><ele>256.0</ele><time>2026-04-18T11:41:26.673Z</time></trkpt><trkpt lat="43.4476058" lon="11.8702699"><ele>256.0</ele><time>2026-04-18T11:41:27.681Z</time></trkpt><trkpt lat="43.4474668" lon="11.8700574"><ele>256.0</ele><time>2026-04-18T11:41:28.672Z</time></trkpt><trkpt lat="43.4473402" lon="11.8698567"><ele>256.0</ele><time>2026-04-18T11:41:29.671Z</time></trkpt><trkpt lat="43.4472139" lon="11.869665"><ele>256.0</ele><time>2026-04-18T11:41:30.677Z</time></trkpt><trkpt lat="43.4471005" lon="11.8694723"><ele>256.0</ele><time>2026-04-18T11:41:31.676Z</time></trkpt><trkpt lat="43.4470094" lon="11.8692833"><ele>256.0</ele><time>2026-04-18T11:41:32.669Z</time></trkpt><trkpt lat="43.4469318" lon="11.8690941"><ele>256.0</ele><time>2026-04-18T11:41:33.669Z</time></trkpt><trkpt lat="43.4468603" lon="11.8688968"><ele>256.66666666666663</ele><time>2026-04-18T11:41:34.678Z</time></trkpt><trkpt lat="43.4467865" lon="11.8686893"><ele>257.3333333333333</ele><time>2026-04-18T11:41:35.676Z</time></trkpt><trkpt lat="43.4467002" lon="11.8684754"><ele>258.0</ele><time>2026-04-18T11:41:36.673Z</time></trkpt><trkpt lat="43.4466163" lon="11.8682455"><ele>258.0</ele><time>2026-04-18T11:41:37.676Z</time></trkpt><trkpt lat="43.4465295" lon="11.8680058"><ele>258.0</ele><time>2026-04-18T11:41:38.674Z</time></trkpt><trkpt lat="43.4464323" lon="11.8677563"><ele>258.0</ele><time>2026-04-18T11:41:39.671Z</time></trkpt><trkpt lat="43.446328" lon="11.867508"><ele>257.6666666666667</ele><time>2026-04-18T11:41:40.674Z</time></trkpt><trkpt lat="43.4462285" lon="11.8672682"><ele>257.33333333333337</ele><time>2026-04-18T11:41:41.673Z</time></trkpt><trkpt lat="43.4461287" lon="11.8670276"><ele>257.0</ele><time>2026-04-18T11:41:42.676Z</time></trkpt><trkpt lat="43.4460366" lon="11.8667963"><ele>257.33333333333337</ele><time>2026-04-18T11:41:43.67Z</time></trkpt><trkpt lat="43.4459479" lon="11.8665772"><ele>257.6666666666667</ele><time>2026-04-18T11:41:44.673Z</time></trkpt><trkpt lat="43.4458561" lon="11.8663586"><ele>258.0</ele><time>2026-04-18T11:41:45.674Z</time></trkpt><trkpt lat="43.445771" lon="11.8661436"><ele>258.0</ele><time>2026-04-18T11:41:46.671Z</time></trkpt><trkpt lat="43.4456918" lon="11.8659474"><ele>258.0</ele><time>2026-04-18T11:41:47.666Z</time></trkpt><trkpt lat="43.4456211" lon="11.8657784"><ele>258.0</ele><time>2026-04-18T11:41:48.67Z</time></trkpt><trkpt lat="43.4455585" lon="11.8656309"><ele>258.0</ele><time>2026-04-18T11:41:49.682Z</time></trkpt><trkpt lat="43.445504" lon="11.8654982"><ele>257.5</ele><time>2026-04-18T11:41:50.672Z</time></trkpt><trkpt lat="43.4454503" lon="11.8653614"><ele>257.0</ele><time>2026-04-18T11:41:51.67Z</time></trkpt><trkpt lat="43.44539" lon="11.8652179"><ele>256.5</ele><time>2026-04-18T11:41:52.674Z</time></trkpt><trkpt lat="43.4453274" lon="11.8650553"><ele>256.0</ele><time>2026-04-18T11:41:53.677Z</time></trkpt><trkpt lat="43.4452593" lon="11.864893"><ele>256.0</ele><time>2026-04-18T11:41:54.669Z</time></trkpt><trkpt lat="43.4451894" lon="11.8647243"><ele>256.0</ele><time>2026-04-18T11:41:55.67Z</time></trkpt><trkpt lat="43.4451155" lon="11.8645471"><ele>256.0</ele><time>2026-04-18T11:41:56.68Z</time></trkpt><trkpt lat="43.4450351" lon="11.8643573"><ele>256.0</ele><time>2026-04-18T11:41:57.685Z</time></trkpt><trkpt lat="43.4449536" lon="11.8641607"><ele>256.3333333333333</ele><time>2026-04-18T11:41:58.686Z</time></trkpt><trkpt lat="43.4448709" lon="11.8639638"><ele>256.6666666666667</ele><time>2026-04-18T11:41:59.68Z</time></trkpt><trkpt lat="43.4447861" lon="11.8637554"><ele>257.0</ele><time>2026-04-18T11:42:00.681Z</time></trkpt><trkpt lat="43.4446932" lon="11.8635452"><ele>257.0</ele><time>2026-04-18T11:42:01.677Z</time></trkpt><trkpt lat="43.4445973" lon="11.8633251"><ele>257.0</ele><time>2026-04-18T11:42:02.676Z</time></trkpt><trkpt lat="43.444501" lon="11.8630956"><ele>257.0</ele><time>2026-04-18T11:42:03.674Z</time></trkpt><trkpt lat="43.4444037" lon="11.8628549"><ele>257.0</ele><time>2026-04-18T11:42:04.678Z</time></trkpt><trkpt lat="43.4443026" lon="11.8626128"><ele>257.0</ele><time>2026-04-18T11:42:05.677Z</time></trkpt><trkpt lat="43.4442034" lon="11.8623583"><ele>257.0</ele><time>2026-04-18T11:42:06.673Z</time></trkpt><trkpt lat="43.4441022" lon="11.8621095"><ele>257.0</ele><time>2026-04-18T11:42:07.67Z</time></trkpt><trkpt lat="43.4440072" lon="11.8618693"><ele>257.0</ele><time>2026-04-18T11:42:08.672Z</time></trkpt><trkpt lat="43.4439113" lon="11.861626"><ele>257.0</ele><time>2026-04-18T11:42:09.676Z</time></trkpt><trkpt lat="43.4438115" lon="11.8613818"><ele>256.0</ele><time>2026-04-18T11:42:10.677Z</time></trkpt><trkpt lat="43.4437133" lon="11.8611345"><ele>255.0</ele><time>2026-04-18T11:42:11.672Z</time></trkpt><trkpt lat="43.443614" lon="11.860883"><ele>254.0</ele><time>2026-04-18T11:42:12.678Z</time></trkpt><trkpt lat="43.4435188" lon="11.8606335"><ele>254.0</ele><time>2026-04-18T11:42:13.676Z</time></trkpt><trkpt lat="43.4434269" lon="11.8603874"><ele>254.0</ele><time>2026-04-18T11:42:14.676Z</time></trkpt><trkpt lat="43.4433316" lon="11.8601315"><ele>254.0</ele><time>2026-04-18T11:42:15.674Z</time></trkpt><trkpt lat="43.4432321" lon="11.859869"><ele>254.0</ele><time>2026-04-18T11:42:16.666Z</time></trkpt><trkpt lat="43.4431345" lon="11.8596112"><ele>254.0</ele><time>2026-04-18T11:42:17.674Z</time></trkpt><trkpt lat="43.4430315" lon="11.8593524"><ele>254.0</ele><time>2026-04-18T11:42:18.673Z</time></trkpt><trkpt lat="43.4429281" lon="11.8590912"><ele>254.33333333333334</ele><time>2026-04-18T11:42:19.675Z</time></trkpt><trkpt lat="43.4428289" lon="11.8588324"><ele>254.66666666666669</ele><time>2026-04-18T11:42:20.676Z</time></trkpt><trkpt lat="43.4427229" lon="11.8585757"><ele>255.0</ele><time>2026-04-18T11:42:21.673Z</time></trkpt><trkpt lat="43.4426208" lon="11.8583118"><ele>255.0</ele><time>2026-04-18T11:42:22.668Z</time></trkpt><trkpt lat="43.4425168" lon="11.8580508"><ele>255.0</ele><time>2026-04-18T11:42:23.673Z</time></trkpt><trkpt lat="43.4424136" lon="11.8577752"><ele>255.0</ele><time>2026-04-18T11:42:24.676Z</time></trkpt><trkpt lat="43.4423056" lon="11.8574908"><ele>255.0</ele><time>2026-04-18T11:42:25.67Z</time></trkpt><trkpt lat="43.4421963" lon="11.8571998"><ele>255.0</ele><time>2026-04-18T11:42:26.672Z</time></trkpt><trkpt lat="43.442085" lon="11.8569031"><ele>258.0</ele><time>2026-04-18T11:42:27.679Z</time></trkpt><trkpt lat="43.4419642" lon="11.8566024"><ele>261.0</ele><time>2026-04-18T11:42:28.684Z</time></trkpt><trkpt lat="43.4418416" lon="11.8563009"><ele>261.0</ele><time>2026-04-18T11:42:29.672Z</time></trkpt><trkpt lat="43.4417177" lon="11.8560024"><ele>261.0</ele><time>2026-04-18T11:42:30.678Z</time></trkpt><trkpt lat="43.4415845" lon="11.8557165"><ele>262.5</ele><time>2026-04-18T11:42:31.682Z</time></trkpt><trkpt lat="43.4414364" lon="11.855439"><ele>264.0</ele><time>2026-04-18T11:42:32.675Z</time></trkpt><trkpt lat="43.4412726" lon="11.8551603"><ele>270.0</ele><time>2026-04-18T11:42:33.674Z</time></trkpt><trkpt lat="43.4410918" lon="11.8549014"><ele>276.0</ele><time>2026-04-18T11:42:34.67Z</time></trkpt><trkpt lat="43.4409056" lon="11.8546641"><ele>276.0</ele><time>2026-04-18T11:42:35.675Z</time></trkpt><trkpt lat="43.4406989" lon="11.8544446"><ele>276.0</ele><time>2026-04-18T11:42:36.678Z</time></trkpt><trkpt lat="43.4404856" lon="11.8542513"><ele>275.0</ele><time>2026-04-18T11:42:37.676Z</time></trkpt><trkpt lat="43.4402546" lon="11.8540657"><ele>274.0</ele><time>2026-04-18T11:42:38.673Z</time></trkpt><trkpt lat="43.4400257" lon="11.8539061"><ele>274.0</ele><time>2026-04-18T11:42:39.672Z</time></trkpt><trkpt lat="43.4397877" lon="11.8537634"><ele>274.0</ele><time>2026-04-18T11:42:40.674Z</time></trkpt><trkpt lat="43.4395587" lon="11.853627"><ele>274.5</ele><time>2026-04-18T11:42:41.674Z</time></trkpt><trkpt lat="43.4393381" lon="11.8534951"><ele>275.0</ele><time>2026-04-18T11:42:42.682Z</time></trkpt><trkpt lat="43.4391259" lon="11.8533646"><ele>275.0</ele><time>2026-04-18T11:42:43.667Z</time></trkpt><trkpt lat="43.4389109" lon="11.8532378"><ele>275.0</ele><time>2026-04-18T11:42:44.671Z</time></trkpt><trkpt lat="43.4386974" lon="11.8531085"><ele>278.33333333333337</ele><time>2026-04-18T11:42:45.668Z</time></trkpt><trkpt lat="43.4384967" lon="11.8529838"><ele>281.6666666666667</ele><time>2026-04-18T11:42:46.681Z</time></trkpt><trkpt lat="43.4383119" lon="11.8528688"><ele>285.0</ele><time>2026-04-18T11:42:47.68Z</time></trkpt><trkpt lat="43.4381287" lon="11.8527514"><ele>283.6666666666667</ele><time>2026-04-18T11:42:48.678Z</time></trkpt><trkpt lat="43.4379608" lon="11.8526194"><ele>282.33333333333337</ele><time>2026-04-18T11:42:49.673Z</time></trkpt><trkpt lat="43.4378094" lon="11.8524934"><ele>281.0</ele><time>2026-04-18T11:42:50.687Z</time></trkpt><trkpt lat="43.4376658" lon="11.8523714"><ele>281.0</ele><time>2026-04-18T11:42:51.683Z</time></trkpt><trkpt lat="43.4375349" lon="11.852244"><ele>281.0</ele><time>2026-04-18T11:42:52.664Z</time></trkpt><trkpt lat="43.4374179" lon="11.8521108"><ele>281.0</ele><time>2026-04-18T11:42:53.667Z</time></trkpt><trkpt lat="43.4373148" lon="11.851984"><ele>281.0</ele><time>2026-04-18T11:42:54.667Z</time></trkpt><trkpt lat="43.4372146" lon="11.8518567"><ele>281.0</ele><time>2026-04-18T11:42:55.665Z</time></trkpt><trkpt lat="43.4371221" lon="11.8517374"><ele>281.0</ele><time>2026-04-18T11:42:56.671Z</time></trkpt><trkpt lat="43.4370204" lon="11.8516233"><ele>281.0</ele><time>2026-04-18T11:42:57.674Z</time></trkpt><trkpt lat="43.4369108" lon="11.8515059"><ele>282.0</ele><time>2026-04-18T11:42:58.667Z</time></trkpt><trkpt lat="43.4368006" lon="11.8513881"><ele>283.0</ele><time>2026-04-18T11:42:59.668Z</time></trkpt><trkpt lat="43.4366909" lon="11.8512701"><ele>284.0</ele><time>2026-04-18T11:43:00.67Z</time></trkpt><trkpt lat="43.4365818" lon="11.8511539"><ele>285.0</ele><time>2026-04-18T11:43:01.676Z</time></trkpt><trkpt lat="43.4364689" lon="11.8510334"><ele>284.75</ele><time>2026-04-18T11:43:02.686Z</time></trkpt><trkpt lat="43.4363588" lon="11.8509131"><ele>284.5</ele><time>2026-04-18T11:43:03.673Z</time></trkpt><trkpt lat="43.4362462" lon="11.8507925"><ele>284.25</ele><time>2026-04-18T11:43:04.676Z</time></trkpt><trkpt lat="43.4361449" lon="11.8506734"><ele>284.0</ele><time>2026-04-18T11:43:05.675Z</time></trkpt><trkpt lat="43.4360705" lon="11.8505721"><ele>284.0</ele><time>2026-04-18T11:43:06.677Z</time></trkpt><trkpt lat="43.4360211" lon="11.8504734"><ele>284.0</ele><time>2026-04-18T11:43:07.667Z</time></trkpt><trkpt lat="43.4359868" lon="11.8503806"><ele>284.0</ele><time>2026-04-18T11:43:08.675Z</time></trkpt><trkpt lat="43.4359958" lon="11.8502218"><ele>284.0</ele><time>2026-04-18T11:43:10.676Z</time></trkpt><trkpt lat="43.4360332" lon="11.8501433"><ele>284.0</ele><time>2026-04-18T11:43:11.675Z</time></trkpt><trkpt lat="43.4360829" lon="11.8500609"><ele>284.0</ele><time>2026-04-18T11:43:12.665Z</time></trkpt><trkpt lat="43.4361304" lon="11.8499821"><ele>283.5</ele><time>2026-04-18T11:43:13.681Z</time></trkpt><trkpt lat="43.4361562" lon="11.8498999"><ele>283.0</ele><time>2026-04-18T11:43:14.677Z</time></trkpt><trkpt lat="43.4361475" lon="11.8497222"><ele>282.5</ele><time>2026-04-18T11:43:16.673Z</time></trkpt><trkpt lat="43.4361201" lon="11.8496322"><ele>282.0</ele><time>2026-04-18T11:43:17.666Z</time></trkpt><trkpt lat="43.4360671" lon="11.8495568"><ele>281.5</ele><time>2026-04-18T11:43:18.676Z</time></trkpt><trkpt lat="43.436002" lon="11.8495031"><ele>281.0</ele><time>2026-04-18T11:43:19.683Z</time></trkpt><trkpt lat="43.4359276" lon="11.8494972"><ele>281.0</ele><time>2026-04-18T11:43:20.676Z</time></trkpt><trkpt lat="43.4358402" lon="11.8495136"><ele>281.0</ele><time>2026-04-18T11:43:21.675Z</time></trkpt><trkpt lat="43.4357588" lon="11.8495572"><ele>281.0</ele><time>2026-04-18T11:43:22.675Z</time></trkpt><trkpt lat="43.4356935" lon="11.8496239"><ele>281.0</ele><time>2026-04-18T11:43:23.67Z</time></trkpt><trkpt lat="43.4356237" lon="11.8496847"><ele>281.0</ele><time>2026-04-18T11:43:24.675Z</time></trkpt><trkpt lat="43.4355501" lon="11.8497167"><ele>281.0</ele><time>2026-04-18T11:43:25.679Z</time></trkpt><trkpt lat="43.4354647" lon="11.8497123"><ele>280.8</ele><time>2026-04-18T11:43:26.675Z</time></trkpt><trkpt lat="43.4353728" lon="11.8496707"><ele>280.6</ele><time>2026-04-18T11:43:27.665Z</time></trkpt><trkpt lat="43.4352902" lon="11.849593"><ele>280.4</ele><time>2026-04-18T11:43:28.672Z</time></trkpt><trkpt lat="43.4352109" lon="11.8494841"><ele>280.2</ele><time>2026-04-18T11:43:29.671Z</time></trkpt><trkpt lat="43.4351379" lon="11.8493728"><ele>280.0</ele><time>2026-04-18T11:43:30.67Z</time></trkpt><trkpt lat="43.4350603" lon="11.8492519"><ele>280.0</ele><time>2026-04-18T11:43:31.672Z</time></trkpt><trkpt lat="43.4349872" lon="11.8491258"><ele>280.0</ele><time>2026-04-18T11:43:32.663Z</time></trkpt><trkpt lat="43.4349112" lon="11.848995"><ele>280.0</ele><time>2026-04-18T11:43:33.684Z</time></trkpt><trkpt lat="43.4348326" lon="11.8488522"><ele>280.0</ele><time>2026-04-18T11:43:34.671Z</time></trkpt><trkpt lat="43.4347545" lon="11.8487094"><ele>280.0</ele><time>2026-04-18T11:43:35.678Z</time></trkpt><trkpt lat="43.4346711" lon="11.8485701"><ele>280.0</ele><time>2026-04-18T11:43:36.676Z</time></trkpt><trkpt lat="43.434586" lon="11.8484149"><ele>280.0</ele><time>2026-04-18T11:43:37.673Z</time></trkpt><trkpt lat="43.4344903" lon="11.8482441"><ele>280.0</ele><time>2026-04-18T11:43:38.683Z</time></trkpt><trkpt lat="43.4343961" lon="11.8480708"><ele>280.3333333333333</ele><time>2026-04-18T11:43:39.676Z</time></trkpt><trkpt lat="43.4343013" lon="11.8478935"><ele>280.6666666666667</ele><time>2026-04-18T11:43:40.675Z</time></trkpt><trkpt lat="43.4342011" lon="11.8477056"><ele>281.0</ele><time>2026-04-18T11:43:41.67Z</time></trkpt><trkpt lat="43.4340893" lon="11.8475136"><ele>283.0</ele><time>2026-04-18T11:43:42.676Z</time></trkpt><trkpt lat="43.43397" lon="11.8473046"><ele>285.0</ele><time>2026-04-18T11:43:43.673Z</time></trkpt><trkpt lat="43.4338442" lon="11.8470737"><ele>287.0</ele><time>2026-04-18T11:43:44.667Z</time></trkpt><trkpt lat="43.4337266" lon="11.846818"><ele>283.5</ele><time>2026-04-18T11:43:45.666Z</time></trkpt><trkpt lat="43.4336028" lon="11.8465336"><ele>280.0</ele><time>2026-04-18T11:43:46.666Z</time></trkpt><trkpt lat="43.4334668" lon="11.8462401"><ele>277.5</ele><time>2026-04-18T11:43:47.678Z</time></trkpt><trkpt lat="43.4333244" lon="11.845946"><ele>275.0</ele><time>2026-04-18T11:43:48.671Z</time></trkpt><trkpt lat="43.4331703" lon="11.8456522"><ele>275.0</ele><time>2026-04-18T11:43:49.68Z</time></trkpt><trkpt lat="43.4330079" lon="11.8453577"><ele>275.0</ele><time>2026-04-18T11:43:50.683Z</time></trkpt><trkpt lat="43.4328515" lon="11.8450883"><ele>276.5</ele><time>2026-04-18T11:43:51.672Z</time></trkpt><trkpt lat="43.4326984" lon="11.8448257"><ele>278.0</ele><time>2026-04-18T11:43:52.673Z</time></trkpt><trkpt lat="43.4325595" lon="11.844582"><ele>278.0</ele><time>2026-04-18T11:43:53.686Z</time></trkpt><trkpt lat="43.4324282" lon="11.8443586"><ele>278.0</ele><time>2026-04-18T11:43:54.677Z</time></trkpt><trkpt lat="43.4322841" lon="11.8441598"><ele>278.0</ele><time>2026-04-18T11:43:55.669Z</time></trkpt><trkpt lat="43.4321348" lon="11.8439894"><ele>278.0</ele><time>2026-04-18T11:43:56.673Z</time></trkpt><trkpt lat="43.4319687" lon="11.8438277"><ele>278.0</ele><time>2026-04-18T11:43:57.675Z</time></trkpt><trkpt lat="43.4317768" lon="11.8436771"><ele>278.0</ele><time>2026-04-18T11:43:58.673Z</time></trkpt><trkpt lat="43.4315784" lon="11.8435449"><ele>276.6666666666667</ele><time>2026-04-18T11:43:59.672Z</time></trkpt><trkpt lat="43.4314047" lon="11.8434232"><ele>275.3333333333333</ele><time>2026-04-18T11:44:00.67Z</time></trkpt><trkpt lat="43.4312388" lon="11.8433087"><ele>274.0</ele><time>2026-04-18T11:44:01.672Z</time></trkpt><trkpt lat="43.4310946" lon="11.8432061"><ele>274.0</ele><time>2026-04-18T11:44:02.676Z</time></trkpt><trkpt lat="43.430959" lon="11.8431136"><ele>274.0</ele><time>2026-04-18T11:44:03.67Z</time></trkpt><trkpt lat="43.4308115" lon="11.8430315"><ele>274.0</ele><time>2026-04-18T11:44:04.677Z</time></trkpt><trkpt lat="43.4306792" lon="11.8429849"><ele>274.0</ele><time>2026-04-18T11:44:05.67Z</time></trkpt><trkpt lat="43.4305616" lon="11.842946"><ele>274.0</ele><time>2026-04-18T11:44:06.677Z</time></trkpt><trkpt lat="43.4304683" lon="11.8428979"><ele>274.0</ele><time>2026-04-18T11:44:07.669Z</time></trkpt><trkpt lat="43.4303709" lon="11.8428366"><ele>274.0</ele><time>2026-04-18T11:44:08.672Z</time></trkpt><trkpt lat="43.4302727" lon="11.8427727"><ele>274.0</ele><time>2026-04-18T11:44:09.67Z</time></trkpt><trkpt lat="43.4301783" lon="11.8427512"><ele>274.0</ele><time>2026-04-18T11:44:10.668Z</time></trkpt><trkpt lat="43.4300658" lon="11.8427478"><ele>274.0</ele><time>2026-04-18T11:44:11.668Z</time></trkpt><trkpt lat="43.4299528" lon="11.8427445"><ele>274.0</ele><time>2026-04-18T11:44:12.676Z</time></trkpt><trkpt lat="43.4298414" lon="11.8427472"><ele>274.0</ele><time>2026-04-18T11:44:13.676Z</time></trkpt><trkpt lat="43.429731" lon="11.8427404"><ele>274.0</ele><time>2026-04-18T11:44:14.667Z</time></trkpt><trkpt lat="43.4296282" lon="11.8427445"><ele>274.0</ele><time>2026-04-18T11:44:15.678Z</time></trkpt><trkpt lat="43.4295228" lon="11.8427487"><ele>273.5</ele><time>2026-04-18T11:44:16.676Z</time></trkpt><trkpt lat="43.4294085" lon="11.8427611"><ele>273.0</ele><time>2026-04-18T11:44:17.674Z</time></trkpt><trkpt lat="43.4292943" lon="11.8427728"><ele>272.5</ele><time>2026-04-18T11:44:18.676Z</time></trkpt><trkpt lat="43.4291802" lon="11.842772"><ele>272.0</ele><time>2026-04-18T11:44:19.671Z</time></trkpt><trkpt lat="43.4290655" lon="11.8427766"><ele>272.0</ele><time>2026-04-18T11:44:20.67Z</time></trkpt><trkpt lat="43.4289597" lon="11.8427874"><ele>272.0</ele><time>2026-04-18T11:44:21.685Z</time></trkpt><trkpt lat="43.4288573" lon="11.8427894"><ele>272.0</ele><time>2026-04-18T11:44:22.672Z</time></trkpt><trkpt lat="43.4287624" lon="11.8427848"><ele>272.0</ele><time>2026-04-18T11:44:23.68Z</time></trkpt><trkpt lat="43.4286864" lon="11.842787"><ele>272.0</ele><time>2026-04-18T11:44:24.679Z</time></trkpt><trkpt lat="43.4286202" lon="11.8427892"><ele>272.0</ele><time>2026-04-18T11:44:25.675Z</time></trkpt><trkpt lat="43.4285522" lon="11.8427907"><ele>271.0</ele><time>2026-04-18T11:44:26.675Z</time></trkpt><trkpt lat="43.4284475" lon="11.8428049"><ele>270.0</ele><time>2026-04-18T11:44:28.684Z</time></trkpt><trkpt lat="43.428363" lon="11.8428032"><ele>269.0</ele><time>2026-04-18T11:44:30.675Z</time></trkpt><trkpt lat="43.4282756" lon="11.8427898"><ele>268.0</ele><time>2026-04-18T11:44:32.677Z</time></trkpt><trkpt lat="43.4281903" lon="11.8427916"><ele>267.0</ele><time>2026-04-18T11:44:34.667Z</time></trkpt><trkpt lat="43.4280971" lon="11.8428036"><ele>267.0</ele><time>2026-04-18T11:44:36.675Z</time></trkpt><trkpt lat="43.4280101" lon="11.8427934"><ele>267.0</ele><time>2026-04-18T11:44:38.672Z</time></trkpt><trkpt lat="43.4278826" lon="11.8428"><ele>267.0</ele><time>2026-04-18T11:44:40.682Z</time></trkpt><trkpt lat="43.4278136" lon="11.8428026"><ele>267.0</ele><time>2026-04-18T11:44:41.666Z</time></trkpt><trkpt lat="43.4276985" lon="11.8428144"><ele>267.0</ele><time>2026-04-18T11:44:43.683Z</time></trkpt><trkpt lat="43.4276186" lon="11.8428198"><ele>266.6</ele><time>2026-04-18T11:44:44.675Z</time></trkpt><trkpt lat="43.4275335" lon="11.8428301"><ele>266.2</ele><time>2026-04-18T11:44:45.672Z</time></trkpt><trkpt lat="43.4274448" lon="11.8428363"><ele>265.8</ele><time>2026-04-18T11:44:46.681Z</time></trkpt><trkpt lat="43.4273465" lon="11.8428371"><ele>265.4</ele><time>2026-04-18T11:44:47.669Z</time></trkpt><trkpt lat="43.4272491" lon="11.8428402"><ele>265.0</ele><time>2026-04-18T11:44:48.682Z</time></trkpt><trkpt lat="43.4271698" lon="11.8428516"><ele>264.66666666666663</ele><time>2026-04-18T11:44:49.673Z</time></trkpt><trkpt lat="43.4270862" lon="11.8428617"><ele>264.3333333333333</ele><time>2026-04-18T11:44:50.675Z</time></trkpt><trkpt lat="43.427005" lon="11.8428634"><ele>264.0</ele><time>2026-04-18T11:44:51.672Z</time></trkpt><trkpt lat="43.4269223" lon="11.8428592"><ele>263.6666666666667</ele><time>2026-04-18T11:44:52.678Z</time></trkpt><trkpt lat="43.4268284" lon="11.8428598"><ele>263.33333333333337</ele><time>2026-04-18T11:44:53.683Z</time></trkpt><trkpt lat="43.4267293" lon="11.842868"><ele>263.0</ele><time>2026-04-18T11:44:54.671Z</time></trkpt><trkpt lat="43.4266161" lon="11.8428722"><ele>263.0</ele><time>2026-04-18T11:44:55.674Z</time></trkpt><trkpt lat="43.4264972" lon="11.8428846"><ele>263.0</ele><time>2026-04-18T11:44:56.675Z</time></trkpt><trkpt lat="43.4263791" lon="11.8428937"><ele>263.0</ele><time>2026-04-18T11:44:57.681Z</time></trkpt><trkpt lat="43.4262579" lon="11.8429014"><ele>263.0</ele><time>2026-04-18T11:44:58.677Z</time></trkpt><trkpt lat="43.4261223" lon="11.8429104"><ele>262.33333333333337</ele><time>2026-04-18T11:44:59.677Z</time></trkpt><trkpt lat="43.4259712" lon="11.8429179"><ele>261.6666666666667</ele><time>2026-04-18T11:45:00.675Z</time></trkpt><trkpt lat="43.4258125" lon="11.8429247"><ele>261.0</ele><time>2026-04-18T11:45:01.677Z</time></trkpt><trkpt lat="43.4256502" lon="11.8429319"><ele>261.0</ele><time>2026-04-18T11:45:02.679Z</time></trkpt><trkpt lat="43.4254838" lon="11.8429386"><ele>261.0</ele><time>2026-04-18T11:45:03.675Z</time></trkpt><trkpt lat="43.425319" lon="11.8429467"><ele>261.0</ele><time>2026-04-18T11:45:04.666Z</time></trkpt><trkpt lat="43.4251621" lon="11.8429566"><ele>260.5</ele><time>2026-04-18T11:45:05.672Z</time></trkpt><trkpt lat="43.4250195" lon="11.8429738"><ele>260.0</ele><time>2026-04-18T11:45:06.688Z</time></trkpt><trkpt lat="43.4248927" lon="11.8429848"><ele>259.5</ele><time>2026-04-18T11:45:07.677Z</time></trkpt><trkpt lat="43.4247788" lon="11.8429878"><ele>259.0</ele><time>2026-04-18T11:45:08.676Z</time></trkpt><trkpt lat="43.424687" lon="11.8429909"><ele>259.0</ele><time>2026-04-18T11:45:09.671Z</time></trkpt><trkpt lat="43.4246057" lon="11.8429936"><ele>259.0</ele><time>2026-04-18T11:45:10.686Z</time></trkpt><trkpt lat="43.424495" lon="11.842993"><ele>259.0</ele><time>2026-04-18T11:45:12.673Z</time></trkpt><trkpt lat="43.4244583" lon="11.8428823"><ele>259.0</ele><time>2026-04-18T11:45:15.678Z</time></trkpt><trkpt lat="43.4244768" lon="11.8427154"><ele>259.0</ele><time>2026-04-18T11:45:17.677Z</time></trkpt><trkpt lat="43.4244813" lon="11.842627"><ele>258.66666666666663</ele><time>2026-04-18T11:45:18.668Z</time></trkpt><trkpt lat="43.4244758" lon="11.8425311"><ele>258.3333333333333</ele><time>2026-04-18T11:45:19.666Z</time></trkpt><trkpt lat="43.424461" lon="11.8424254"><ele>258.0</ele><time>2026-04-18T11:45:20.673Z</time></trkpt><trkpt lat="43.4244394" lon="11.8423151"><ele>257.6666666666667</ele><time>2026-04-18T11:45:21.681Z</time></trkpt><trkpt lat="43.424414" lon="11.8422037"><ele>257.33333333333337</ele><time>2026-04-18T11:45:22.674Z</time></trkpt><trkpt lat="43.4243887" lon="11.8420982"><ele>257.0</ele><time>2026-04-18T11:45:23.673Z</time></trkpt><trkpt lat="43.4243641" lon="11.8419984"><ele>257.0</ele><time>2026-04-18T11:45:24.675Z</time></trkpt><trkpt lat="43.4243376" lon="11.8419035"><ele>257.0</ele><time>2026-04-18T11:45:25.672Z</time></trkpt><trkpt lat="43.4243131" lon="11.8418188"><ele>257.0</ele><time>2026-04-18T11:45:26.68Z</time></trkpt><trkpt lat="43.424265" lon="11.8416636"><ele>257.0</ele><time>2026-04-18T11:45:28.677Z</time></trkpt><trkpt lat="43.4242379" lon="11.8415279"><ele>257.0</ele><time>2026-04-18T11:45:30.668Z</time></trkpt><trkpt lat="43.4242472" lon="11.8413884"><ele>256.8</ele><time>2026-04-18T11:45:32.665Z</time></trkpt><trkpt lat="43.4242498" lon="11.8412984"><ele>256.6</ele><time>2026-04-18T11:45:33.672Z</time></trkpt><trkpt lat="43.4242424" lon="11.8411632"><ele>256.40000000000003</ele><time>2026-04-18T11:45:34.67Z</time></trkpt><trkpt lat="43.4242286" lon="11.8410183"><ele>256.2</ele><time>2026-04-18T11:45:35.666Z</time></trkpt><trkpt lat="43.424211" lon="11.8408626"><ele>256.0</ele><time>2026-04-18T11:45:36.667Z</time></trkpt><trkpt lat="43.4241957" lon="11.8407069"><ele>255.75</ele><time>2026-04-18T11:45:37.68Z</time></trkpt><trkpt lat="43.4241801" lon="11.8405515"><ele>255.5</ele><time>2026-04-18T11:45:38.671Z</time></trkpt><trkpt lat="43.4241615" lon="11.8403953"><ele>255.25</ele><time>2026-04-18T11:45:39.67Z</time></trkpt><trkpt lat="43.4241411" lon="11.8402362"><ele>255.0</ele><time>2026-04-18T11:45:40.677Z</time></trkpt><trkpt lat="43.4241222" lon="11.8400774"><ele>254.5</ele><time>2026-04-18T11:45:41.669Z</time></trkpt><trkpt lat="43.4241021" lon="11.8399145"><ele>254.0</ele><time>2026-04-18T11:45:42.667Z</time></trkpt><trkpt lat="43.4240825" lon="11.8397542"><ele>253.5</ele><time>2026-04-18T11:45:43.675Z</time></trkpt><trkpt lat="43.4240643" lon="11.8396039"><ele>253.0</ele><time>2026-04-18T11:45:44.673Z</time></trkpt><trkpt lat="43.4240424" lon="11.8394553"><ele>253.0</ele><time>2026-04-18T11:45:45.673Z</time></trkpt><trkpt lat="43.4240255" lon="11.8393058"><ele>253.0</ele><time>2026-04-18T11:45:46.676Z</time></trkpt><trkpt lat="43.4240146" lon="11.839158"><ele>253.0</ele><time>2026-04-18T11:45:47.672Z</time></trkpt><trkpt lat="43.4239986" lon="11.8390122"><ele>253.0</ele><time>2026-04-18T11:45:48.668Z</time></trkpt><trkpt lat="43.4239786" lon="11.8388654"><ele>253.0</ele><time>2026-04-18T11:45:49.671Z</time></trkpt><trkpt lat="43.4239592" lon="11.8387161"><ele>253.2</ele><time>2026-04-18T11:45:50.675Z</time></trkpt><trkpt lat="43.4239374" lon="11.8385712"><ele>253.4</ele><time>2026-04-18T11:45:51.673Z</time></trkpt><trkpt lat="43.4239276" lon="11.8384458"><ele>253.59999999999997</ele><time>2026-04-18T11:45:52.678Z</time></trkpt><trkpt lat="43.423918" lon="11.8383349"><ele>253.79999999999998</ele><time>2026-04-18T11:45:53.679Z</time></trkpt><trkpt lat="43.4238975" lon="11.8382183"><ele>254.0</ele><time>2026-04-18T11:45:54.675Z</time></trkpt><trkpt lat="43.423874" lon="11.838096"><ele>254.00000000000003</ele><time>2026-04-18T11:45:55.677Z</time></trkpt><trkpt lat="43.4238546" lon="11.8379832"><ele>254.0</ele><time>2026-04-18T11:45:56.676Z</time></trkpt><trkpt lat="43.4238377" lon="11.8378746"><ele>254.0</ele><time>2026-04-18T11:45:57.673Z</time></trkpt><trkpt lat="43.4238276" lon="11.8377781"><ele>254.0</ele><time>2026-04-18T11:45:58.673Z</time></trkpt><trkpt lat="43.423808" lon="11.8376622"><ele>254.00000000000003</ele><time>2026-04-18T11:46:00.672Z</time></trkpt><trkpt lat="43.4237926" lon="11.83756"><ele>254.0</ele><time>2026-04-18T11:46:02.678Z</time></trkpt><trkpt lat="43.4237708" lon="11.8374519"><ele>253.83333333333334</ele><time>2026-04-18T11:46:04.674Z</time></trkpt><trkpt lat="43.4237561" lon="11.8373605"><ele>253.66666666666669</ele><time>2026-04-18T11:46:06.677Z</time></trkpt><trkpt lat="43.4237359" lon="11.8372713"><ele>253.5</ele><time>2026-04-18T11:46:09.672Z</time></trkpt><trkpt lat="43.4237223" lon="11.8371833"><ele>253.33333333333331</ele><time>2026-04-18T11:46:11.679Z</time></trkpt><trkpt lat="43.4237153" lon="11.8370683"><ele>253.16666666666666</ele><time>2026-04-18T11:46:14.674Z</time></trkpt><trkpt lat="43.4237009" lon="11.8369705"><ele>253.0</ele><time>2026-04-18T11:46:17.673Z</time></trkpt><trkpt lat="43.4236907" lon="11.836829"><ele>252.83333333333331</ele><time>2026-04-18T11:46:20.687Z</time></trkpt><trkpt lat="43.4236702" lon="11.8367335"><ele>252.66666666666666</ele><time>2026-04-18T11:46:22.672Z</time></trkpt><trkpt lat="43.423654" lon="11.8366089"><ele>252.5</ele><time>2026-04-18T11:46:25.672Z</time></trkpt><trkpt lat="43.4236326" lon="11.8365171"><ele>252.33333333333331</ele><time>2026-04-18T11:46:27.683Z</time></trkpt><trkpt lat="43.4236084" lon="11.8364265"><ele>252.16666666666666</ele><time>2026-04-18T11:46:29.676Z</time></trkpt><trkpt lat="43.4235941" lon="11.8363088"><ele>252.0</ele><time>2026-04-18T11:46:33.679Z</time></trkpt><trkpt lat="43.4235728" lon="11.8361923"><ele>252.0</ele><time>2026-04-18T11:46:36.671Z</time></trkpt><trkpt lat="43.4235622" lon="11.8360971"><ele>252.0</ele><time>2026-04-18T11:46:38.673Z</time></trkpt><trkpt lat="43.4235446" lon="11.8359745"><ele>252.0</ele><time>2026-04-18T11:46:41.667Z</time></trkpt><trkpt lat="43.4235308" lon="11.835867"><ele>252.0</ele><time>2026-04-18T11:46:43.676Z</time></trkpt><trkpt lat="43.4235195" lon="11.8357721"><ele>252.0</ele><time>2026-04-18T11:46:45.676Z</time></trkpt><trkpt lat="43.4235058" lon="11.8356676"><ele>252.0</ele><time>2026-04-18T11:46:47.669Z</time></trkpt><trkpt lat="43.4234887" lon="11.8355428"><ele>251.83333333333334</ele><time>2026-04-18T11:46:49.672Z</time></trkpt><trkpt lat="43.4234725" lon="11.8354354"><ele>251.66666666666669</ele><time>2026-04-18T11:46:51.674Z</time></trkpt><trkpt lat="43.4234556" lon="11.8353187"><ele>251.5</ele><time>2026-04-18T11:46:53.665Z</time></trkpt><trkpt lat="43.4234505" lon="11.8352138"><ele>251.33333333333334</ele><time>2026-04-18T11:46:55.671Z</time></trkpt><trkpt lat="43.4234244" lon="11.8351278"><ele>251.16666666666669</ele><time>2026-04-18T11:46:57.673Z</time></trkpt><trkpt lat="43.4234057" lon="11.8350231"><ele>251.0</ele><time>2026-04-18T11:47:00.683Z</time></trkpt><trkpt lat="43.4233429" lon="11.8349999"><ele>251.0</ele><time>2026-04-18T11:47:03.667Z</time></trkpt><trkpt lat="43.4232791" lon="11.8350535"><ele>251.00000000000003</ele><time>2026-04-18T11:47:05.664Z</time></trkpt><trkpt lat="43.4231859" lon="11.8350987"><ele>251.00000000000003</ele><time>2026-04-18T11:47:07.673Z</time></trkpt><trkpt lat="43.4230743" lon="11.8351697"><ele>251.0</ele><time>2026-04-18T11:47:09.665Z</time></trkpt><trkpt lat="43.422981" lon="11.8352"><ele>251.0</ele><time>2026-04-18T11:47:11.687Z</time></trkpt><trkpt lat="43.422929" lon="11.835139"><ele>250.8</ele><time>2026-04-18T11:47:14.677Z</time></trkpt><trkpt lat="43.4229048" lon="11.8350418"><ele>250.60000000000002</ele><time>2026-04-18T11:47:16.673Z</time></trkpt><trkpt lat="43.4228923" lon="11.8349045"><ele>250.4</ele><time>2026-04-18T11:47:18.673Z</time></trkpt><trkpt lat="43.4228758" lon="11.8347615"><ele>250.2</ele><time>2026-04-18T11:47:20.679Z</time></trkpt><trkpt lat="43.4228538" lon="11.834613"><ele>250.0</ele><time>2026-04-18T11:47:22.667Z</time></trkpt><trkpt lat="43.4228356" lon="11.8344572"><ele>250.0</ele><time>2026-04-18T11:47:24.672Z</time></trkpt><trkpt lat="43.4228252" lon="11.8343229"><ele>250.0</ele><time>2026-04-18T11:47:26.674Z</time></trkpt><trkpt lat="43.4228187" lon="11.8341953"><ele>250.0</ele><time>2026-04-18T11:47:28.678Z</time></trkpt><trkpt lat="43.4228063" lon="11.834056"><ele>250.0</ele><time>2026-04-18T11:47:30.669Z</time></trkpt><trkpt lat="43.4227916" lon="11.8339056"><ele>250.0</ele><time>2026-04-18T11:47:32.674Z</time></trkpt><trkpt lat="43.4227812" lon="11.8337465"><ele>249.75</ele><time>2026-04-18T11:47:34.671Z</time></trkpt><trkpt lat="43.4227736" lon="11.8335805"><ele>249.5</ele><time>2026-04-18T11:47:36.669Z</time></trkpt><trkpt lat="43.4227606" lon="11.8334157"><ele>249.25</ele><time>2026-04-18T11:47:38.666Z</time></trkpt><trkpt lat="43.4227507" lon="11.8332606"><ele>249.0</ele><time>2026-04-18T11:47:40.666Z</time></trkpt><trkpt lat="43.4227396" lon="11.8331282"><ele>249.0</ele><time>2026-04-18T11:47:42.676Z</time></trkpt><trkpt lat="43.4227296" lon="11.83303"><ele>249.0</ele><time>2026-04-18T11:47:44.683Z</time></trkpt><trkpt lat="43.4227169" lon="11.8328991"><ele>249.0</ele><time>2026-04-18T11:47:46.671Z</time></trkpt><trkpt lat="43.4227066" lon="11.8327972"><ele>249.0</ele><time>2026-04-18T11:47:48.672Z</time></trkpt><trkpt lat="43.4226912" lon="11.8327127"><ele>249.0</ele><time>2026-04-18T11:48:09.672Z</time></trkpt><trkpt lat="43.4227179" lon="11.8326192"><ele>249.0</ele><time>2026-04-18T11:48:14.675Z</time></trkpt><trkpt lat="43.4227103" lon="11.8327346"><ele>249.0</ele><time>2026-04-18T11:48:36.672Z</time></trkpt><trkpt lat="43.4227273" lon="11.8328397"><ele>248.99999999999997</ele><time>2026-04-18T11:48:39.679Z</time></trkpt><trkpt lat="43.422739" lon="11.8329568"><ele>248.99999999999997</ele><time>2026-04-18T11:48:41.672Z</time></trkpt><trkpt lat="43.4227448" lon="11.8330845"><ele>249.0</ele><time>2026-04-18T11:48:43.673Z</time></trkpt><trkpt lat="43.4227585" lon="11.8332325"><ele>249.0</ele><time>2026-04-18T11:48:45.672Z</time></trkpt><trkpt lat="43.4227715" lon="11.8333826"><ele>249.0</ele><time>2026-04-18T11:48:47.679Z</time></trkpt><trkpt lat="43.4227842" lon="11.8335214"><ele>248.99999999999997</ele><time>2026-04-18T11:48:49.671Z</time></trkpt><trkpt lat="43.4227932" lon="11.8336587"><ele>248.99999999999997</ele><time>2026-04-18T11:48:51.677Z</time></trkpt><trkpt lat="43.4228005" lon="11.8337902"><ele>249.0</ele><time>2026-04-18T11:48:53.673Z</time></trkpt><trkpt lat="43.4228093" lon="11.8339168"><ele>249.0</ele><time>2026-04-18T11:48:55.667Z</time></trkpt><trkpt lat="43.4228155" lon="11.8340431"><ele>249.0</ele><time>2026-04-18T11:48:57.669Z</time></trkpt><trkpt lat="43.4228282" lon="11.8341759"><ele>248.99999999999997</ele><time>2026-04-18T11:48:59.671Z</time></trkpt><trkpt lat="43.4228446" lon="11.8343199"><ele>248.99999999999997</ele><time>2026-04-18T11:49:01.671Z</time></trkpt><trkpt lat="43.4228572" lon="11.8344591"><ele>249.0</ele><time>2026-04-18T11:49:03.676Z</time></trkpt><trkpt lat="43.4228744" lon="11.834609"><ele>249.0</ele><time>2026-04-18T11:49:05.671Z</time></trkpt><trkpt lat="43.4228935" lon="11.834758"><ele>249.0</ele><time>2026-04-18T11:49:07.673Z</time></trkpt><trkpt lat="43.4229117" lon="11.8349013"><ele>249.0</ele><time>2026-04-18T11:49:09.669Z</time></trkpt><trkpt lat="43.4229279" lon="11.8350358"><ele>249.0</ele><time>2026-04-18T11:49:11.669Z</time></trkpt><trkpt lat="43.4229366" lon="11.8351315"><ele>249.0</ele><time>2026-04-18T11:49:13.674Z</time></trkpt><trkpt lat="43.4229442" lon="11.8352178"><ele>249.0</ele><time>2026-04-18T11:49:16.679Z</time></trkpt><trkpt lat="43.422877" lon="11.8352828"><ele>249.0</ele><time>2026-04-18T11:49:18.673Z</time></trkpt><trkpt lat="43.422764" lon="11.8353254"><ele>249.0</ele><time>2026-04-18T11:49:20.675Z</time></trkpt><trkpt lat="43.4226945" lon="11.8353579"><ele>249.0</ele><time>2026-04-18T11:49:21.681Z</time></trkpt><trkpt lat="43.4226237" lon="11.8353969"><ele>249.0</ele><time>2026-04-18T11:49:22.665Z</time></trkpt><trkpt lat="43.4225518" lon="11.8354405"><ele>249.0</ele><time>2026-04-18T11:49:23.672Z</time></trkpt><trkpt lat="43.4224828" lon="11.8354843"><ele>249.0</ele><time>2026-04-18T11:49:24.668Z</time></trkpt><trkpt lat="43.4224144" lon="11.8355315"><ele>249.0</ele><time>2026-04-18T11:49:25.673Z</time></trkpt><trkpt lat="43.4223485" lon="11.8355829"><ele>249.0</ele><time>2026-04-18T11:49:26.674Z</time></trkpt><trkpt lat="43.4222827" lon="11.8356478"><ele>249.0</ele><time>2026-04-18T11:49:27.676Z</time></trkpt><trkpt lat="43.4222185" lon="11.8357192"><ele>249.0</ele><time>2026-04-18T11:49:28.67Z</time></trkpt><trkpt lat="43.4221497" lon="11.8357887"><ele>249.0</ele><time>2026-04-18T11:49:29.672Z</time></trkpt><trkpt lat="43.4220802" lon="11.8358638"><ele>249.0</ele><time>2026-04-18T11:49:30.676Z</time></trkpt><trkpt lat="43.4220135" lon="11.8359468"><ele>249.0</ele><time>2026-04-18T11:49:31.669Z</time></trkpt><trkpt lat="43.4219471" lon="11.8360403"><ele>249.39999999999998</ele><time>2026-04-18T11:49:32.68Z</time></trkpt><trkpt lat="43.4218816" lon="11.8361328"><ele>249.79999999999998</ele><time>2026-04-18T11:49:33.676Z</time></trkpt><trkpt lat="43.4218164" lon="11.8362313"><ele>250.20000000000002</ele><time>2026-04-18T11:49:34.674Z</time></trkpt><trkpt lat="43.421752" lon="11.8363308"><ele>250.60000000000002</ele><time>2026-04-18T11:49:35.672Z</time></trkpt><trkpt lat="43.4216907" lon="11.8364252"><ele>251.0</ele><time>2026-04-18T11:49:36.667Z</time></trkpt><trkpt lat="43.421633" lon="11.8365077"><ele>251.00000000000003</ele><time>2026-04-18T11:49:37.666Z</time></trkpt><trkpt lat="43.4215765" lon="11.8365815"><ele>251.0</ele><time>2026-04-18T11:49:38.669Z</time></trkpt><trkpt lat="43.4215223" lon="11.8366465"><ele>251.0</ele><time>2026-04-18T11:49:39.67Z</time></trkpt><trkpt lat="43.4214617" lon="11.8366989"><ele>251.0</ele><time>2026-04-18T11:49:40.678Z</time></trkpt><trkpt lat="43.4213948" lon="11.836749"><ele>251.00000000000003</ele><time>2026-04-18T11:49:41.67Z</time></trkpt><trkpt lat="43.4213259" lon="11.8367967"><ele>251.0</ele><time>2026-04-18T11:49:42.668Z</time></trkpt><trkpt lat="43.4212564" lon="11.8368455"><ele>251.16666666666669</ele><time>2026-04-18T11:49:43.668Z</time></trkpt><trkpt lat="43.4211847" lon="11.8368904"><ele>251.33333333333334</ele><time>2026-04-18T11:49:44.673Z</time></trkpt><trkpt lat="43.4211127" lon="11.8369321"><ele>251.5</ele><time>2026-04-18T11:49:45.665Z</time></trkpt><trkpt lat="43.4210429" lon="11.8369759"><ele>251.66666666666669</ele><time>2026-04-18T11:49:46.673Z</time></trkpt><trkpt lat="43.4209722" lon="11.8370213"><ele>251.83333333333334</ele><time>2026-04-18T11:49:47.669Z</time></trkpt><trkpt lat="43.4209023" lon="11.8370672"><ele>252.0</ele><time>2026-04-18T11:49:48.67Z</time></trkpt><trkpt lat="43.4208323" lon="11.8371104"><ele>252.0</ele><time>2026-04-18T11:49:49.683Z</time></trkpt><trkpt lat="43.4207652" lon="11.8371544"><ele>252.0</ele><time>2026-04-18T11:49:50.67Z</time></trkpt><trkpt lat="43.4206993" lon="11.8371907"><ele>252.0</ele><time>2026-04-18T11:49:51.67Z</time></trkpt><trkpt lat="43.4206317" lon="11.8372297"><ele>252.0</ele><time>2026-04-18T11:49:52.67Z</time></trkpt><trkpt lat="43.420562" lon="11.8372699"><ele>252.0</ele><time>2026-04-18T11:49:53.671Z</time></trkpt><trkpt lat="43.4204956" lon="11.8373157"><ele>252.0</ele><time>2026-04-18T11:49:54.67Z</time></trkpt><trkpt lat="43.4204326" lon="11.8373594"><ele>252.0</ele><time>2026-04-18T11:49:55.672Z</time></trkpt><trkpt lat="43.4203716" lon="11.8373957"><ele>251.83333333333334</ele><time>2026-04-18T11:49:56.671Z</time></trkpt><trkpt lat="43.4202919" lon="11.837426"><ele>251.66666666666669</ele><time>2026-04-18T11:49:58.672Z</time></trkpt><trkpt lat="43.4202256" lon="11.8374176"><ele>251.5</ele><time>2026-04-18T11:50:01.669Z</time></trkpt><trkpt lat="43.4201867" lon="11.8373439"><ele>251.33333333333334</ele><time>2026-04-18T11:50:03.666Z</time></trkpt><trkpt lat="43.4201579" lon="11.8372026"><ele>251.16666666666669</ele><time>2026-04-18T11:50:05.666Z</time></trkpt><trkpt lat="43.4201209" lon="11.8370414"><ele>251.0</ele><time>2026-04-18T11:50:07.677Z</time></trkpt><trkpt lat="43.4200912" lon="11.836945"><ele>251.0</ele><time>2026-04-18T11:50:08.666Z</time></trkpt><trkpt lat="43.4200672" lon="11.8368403"><ele>251.00000000000003</ele><time>2026-04-18T11:50:09.671Z</time></trkpt><trkpt lat="43.4200341" lon="11.8367315"><ele>251.00000000000003</ele><time>2026-04-18T11:50:10.672Z</time></trkpt><trkpt lat="43.4200037" lon="11.8366179"><ele>251.0</ele><time>2026-04-18T11:50:11.685Z</time></trkpt><trkpt lat="43.4199721" lon="11.8364944"><ele>251.0</ele><time>2026-04-18T11:50:12.671Z</time></trkpt><trkpt lat="43.4199365" lon="11.8363612"><ele>250.8</ele><time>2026-04-18T11:50:13.673Z</time></trkpt><trkpt lat="43.4198914" lon="11.8362282"><ele>250.60000000000002</ele><time>2026-04-18T11:50:14.67Z</time></trkpt><trkpt lat="43.4198409" lon="11.8360932"><ele>250.4</ele><time>2026-04-18T11:50:15.676Z</time></trkpt><trkpt lat="43.4197908" lon="11.8359572"><ele>250.2</ele><time>2026-04-18T11:50:16.678Z</time></trkpt><trkpt lat="43.4197414" lon="11.835817"><ele>250.0</ele><time>2026-04-18T11:50:17.683Z</time></trkpt><trkpt lat="43.4196911" lon="11.8356763"><ele>250.0</ele><time>2026-04-18T11:50:18.671Z</time></trkpt><trkpt lat="43.4196383" lon="11.8355298"><ele>250.0</ele><time>2026-04-18T11:50:19.67Z</time></trkpt><trkpt lat="43.4195898" lon="11.8353826"><ele>250.0</ele><time>2026-04-18T11:50:20.673Z</time></trkpt><trkpt lat="43.4195416" lon="11.8352339"><ele>250.0</ele><time>2026-04-18T11:50:21.673Z</time></trkpt><trkpt lat="43.4194975" lon="11.8350818"><ele>250.0</ele><time>2026-04-18T11:50:22.67Z</time></trkpt><trkpt lat="43.4194556" lon="11.8349272"><ele>250.0</ele><time>2026-04-18T11:50:23.675Z</time></trkpt><trkpt lat="43.4194129" lon="11.8347675"><ele>250.0</ele><time>2026-04-18T11:50:24.671Z</time></trkpt><trkpt lat="43.4193725" lon="11.8346075"><ele>250.0</ele><time>2026-04-18T11:50:25.671Z</time></trkpt><trkpt lat="43.4193335" lon="11.8344478"><ele>249.75</ele><time>2026-04-18T11:50:26.673Z</time></trkpt><trkpt lat="43.4192987" lon="11.8342828"><ele>249.5</ele><time>2026-04-18T11:50:27.672Z</time></trkpt><trkpt lat="43.419263" lon="11.8341119"><ele>249.25</ele><time>2026-04-18T11:50:28.666Z</time></trkpt><trkpt lat="43.4192343" lon="11.8339305"><ele>249.0</ele><time>2026-04-18T11:50:29.67Z</time></trkpt><trkpt lat="43.4192021" lon="11.8337379"><ele>249.0</ele><time>2026-04-18T11:50:30.674Z</time></trkpt><trkpt lat="43.4191675" lon="11.8335489"><ele>249.0</ele><time>2026-04-18T11:50:31.677Z</time></trkpt><trkpt lat="43.4191332" lon="11.8333655"><ele>249.0</ele><time>2026-04-18T11:50:32.673Z</time></trkpt><trkpt lat="43.4190987" lon="11.8331912"><ele>249.0</ele><time>2026-04-18T11:50:33.678Z</time></trkpt><trkpt lat="43.4190682" lon="11.8330273"><ele>248.79999999999998</ele><time>2026-04-18T11:50:34.67Z</time></trkpt><trkpt lat="43.4190392" lon="11.8328721"><ele>248.59999999999997</ele><time>2026-04-18T11:50:35.673Z</time></trkpt><trkpt lat="43.4190146" lon="11.8327246"><ele>248.4</ele><time>2026-04-18T11:50:36.685Z</time></trkpt><trkpt lat="43.4189903" lon="11.8325768"><ele>248.2</ele><time>2026-04-18T11:50:37.678Z</time></trkpt><trkpt lat="43.4189675" lon="11.8324285"><ele>248.0</ele><time>2026-04-18T11:50:38.668Z</time></trkpt><trkpt lat="43.4189426" lon="11.8322747"><ele>247.25</ele><time>2026-04-18T11:50:39.669Z</time></trkpt><trkpt lat="43.4189136" lon="11.8321128"><ele>246.5</ele><time>2026-04-18T11:50:40.683Z</time></trkpt><trkpt lat="43.4188908" lon="11.8319476"><ele>245.75</ele><time>2026-04-18T11:50:41.668Z</time></trkpt><trkpt lat="43.4188614" lon="11.8317885"><ele>245.0</ele><time>2026-04-18T11:50:42.676Z</time></trkpt><trkpt lat="43.4188321" lon="11.8316265"><ele>245.25</ele><time>2026-04-18T11:50:43.67Z</time></trkpt><trkpt lat="43.4188032" lon="11.8314588"><ele>245.5</ele><time>2026-04-18T11:50:44.672Z</time></trkpt><trkpt lat="43.4187737" lon="11.8312932"><ele>245.75</ele><time>2026-04-18T11:50:45.68Z</time></trkpt><trkpt lat="43.4187447" lon="11.8311268"><ele>246.0</ele><time>2026-04-18T11:50:46.67Z</time></trkpt><trkpt lat="43.4187116" lon="11.8309629"><ele>246.0</ele><time>2026-04-18T11:50:47.673Z</time></trkpt><trkpt lat="43.4186831" lon="11.8308013"><ele>246.0</ele><time>2026-04-18T11:50:48.673Z</time></trkpt><trkpt lat="43.4186547" lon="11.8306418"><ele>246.0</ele><time>2026-04-18T11:50:49.668Z</time></trkpt><trkpt lat="43.4186256" lon="11.8304897"><ele>246.0</ele><time>2026-04-18T11:50:50.678Z</time></trkpt><trkpt lat="43.4185976" lon="11.8303382"><ele>246.0</ele><time>2026-04-18T11:50:51.673Z</time></trkpt><trkpt lat="43.4185737" lon="11.8301839"><ele>246.0</ele><time>2026-04-18T11:50:52.669Z</time></trkpt><trkpt lat="43.4185463" lon="11.8300315"><ele>246.0</ele><time>2026-04-18T11:50:53.68Z</time></trkpt><trkpt lat="43.418518" lon="11.8298829"><ele>246.0</ele><time>2026-04-18T11:50:54.67Z</time></trkpt><trkpt lat="43.4184906" lon="11.8297308"><ele>246.0</ele><time>2026-04-18T11:50:55.671Z</time></trkpt><trkpt lat="43.4184672" lon="11.8295763"><ele>246.0</ele><time>2026-04-18T11:50:56.669Z</time></trkpt><trkpt lat="43.4184405" lon="11.8294136"><ele>246.0</ele><time>2026-04-18T11:50:57.666Z</time></trkpt><trkpt lat="43.4184177" lon="11.8292576"><ele>246.0</ele><time>2026-04-18T11:50:58.673Z</time></trkpt><trkpt lat="43.4183957" lon="11.8291157"><ele>246.16666666666666</ele><time>2026-04-18T11:50:59.67Z</time></trkpt><trkpt lat="43.4183759" lon="11.8289892"><ele>246.33333333333331</ele><time>2026-04-18T11:51:00.68Z</time></trkpt><trkpt lat="43.418354" lon="11.8288809"><ele>246.5</ele><time>2026-04-18T11:51:01.673Z</time></trkpt><trkpt lat="43.418338" lon="11.8287356"><ele>246.66666666666666</ele><time>2026-04-18T11:51:03.669Z</time></trkpt><trkpt lat="43.4183205" lon="11.8286522"><ele>246.83333333333331</ele><time>2026-04-18T11:51:05.673Z</time></trkpt><trkpt lat="43.4182962" lon="11.8285635"><ele>247.0</ele><time>2026-04-18T11:51:07.672Z</time></trkpt><trkpt lat="43.4182771" lon="11.8284139"><ele>247.16666666666666</ele><time>2026-04-18T11:51:09.68Z</time></trkpt><trkpt lat="43.4182502" lon="11.8282474"><ele>247.33333333333331</ele><time>2026-04-18T11:51:11.68Z</time></trkpt><trkpt lat="43.4182353" lon="11.8281524"><ele>247.5</ele><time>2026-04-18T11:51:12.67Z</time></trkpt><trkpt lat="43.4182251" lon="11.8280512"><ele>247.66666666666669</ele><time>2026-04-18T11:51:13.673Z</time></trkpt><trkpt lat="43.418212" lon="11.8279523"><ele>247.83333333333334</ele><time>2026-04-18T11:51:14.669Z</time></trkpt><trkpt lat="43.4181875" lon="11.8278388"><ele>248.0</ele><time>2026-04-18T11:51:15.67Z</time></trkpt><trkpt lat="43.4181674" lon="11.827715"><ele>247.60000000000002</ele><time>2026-04-18T11:51:16.672Z</time></trkpt><trkpt lat="43.4181407" lon="11.8275782"><ele>247.20000000000002</ele><time>2026-04-18T11:51:17.668Z</time></trkpt><trkpt lat="43.418127" lon="11.8274332"><ele>246.8</ele><time>2026-04-18T11:51:18.673Z</time></trkpt><trkpt lat="43.4181106" lon="11.8272893"><ele>246.4</ele><time>2026-04-18T11:51:19.678Z</time></trkpt><trkpt lat="43.4180901" lon="11.8271354"><ele>246.0</ele><time>2026-04-18T11:51:20.671Z</time></trkpt><trkpt lat="43.4180667" lon="11.8269791"><ele>246.0</ele><time>2026-04-18T11:51:21.677Z</time></trkpt><trkpt lat="43.4180432" lon="11.826835"><ele>246.0</ele><time>2026-04-18T11:51:22.672Z</time></trkpt><trkpt lat="43.4180225" lon="11.8267055"><ele>246.0</ele><time>2026-04-18T11:51:23.673Z</time></trkpt><trkpt lat="43.4180112" lon="11.8265935"><ele>246.0</ele><time>2026-04-18T11:51:24.672Z</time></trkpt><trkpt lat="43.4179936" lon="11.8264941"><ele>246.0</ele><time>2026-04-18T11:51:25.671Z</time></trkpt><trkpt lat="43.4179718" lon="11.8263945"><ele>246.0</ele><time>2026-04-18T11:51:26.665Z</time></trkpt><trkpt lat="43.4179486" lon="11.8262945"><ele>245.83333333333334</ele><time>2026-04-18T11:51:27.675Z</time></trkpt><trkpt lat="43.4179214" lon="11.8261951"><ele>245.66666666666669</ele><time>2026-04-18T11:51:28.674Z</time></trkpt><trkpt lat="43.4178988" lon="11.8260916"><ele>245.5</ele><time>2026-04-18T11:51:29.664Z</time></trkpt><trkpt lat="43.4178761" lon="11.8259855"><ele>245.33333333333334</ele><time>2026-04-18T11:51:30.67Z</time></trkpt><trkpt lat="43.4178525" lon="11.8258774"><ele>245.16666666666669</ele><time>2026-04-18T11:51:31.668Z</time></trkpt><trkpt lat="43.4178332" lon="11.8257678"><ele>245.0</ele><time>2026-04-18T11:51:32.669Z</time></trkpt><trkpt lat="43.4178117" lon="11.8256443"><ele>244.8</ele><time>2026-04-18T11:51:33.681Z</time></trkpt><trkpt lat="43.4177951" lon="11.8255258"><ele>244.6</ele><time>2026-04-18T11:51:34.675Z</time></trkpt><trkpt lat="43.4177767" lon="11.825399"><ele>244.39999999999998</ele><time>2026-04-18T11:51:35.672Z</time></trkpt><trkpt lat="43.4177605" lon="11.8252662"><ele>244.2</ele><time>2026-04-18T11:51:36.677Z</time></trkpt><trkpt lat="43.4177434" lon="11.8251322"><ele>244.0</ele><time>2026-04-18T11:51:37.668Z</time></trkpt><trkpt lat="43.4177275" lon="11.824995"><ele>244.39999999999998</ele><time>2026-04-18T11:51:38.664Z</time></trkpt><trkpt lat="43.4177108" lon="11.8248572"><ele>244.79999999999998</ele><time>2026-04-18T11:51:39.673Z</time></trkpt><trkpt lat="43.4176966" lon="11.8247166"><ele>245.20000000000002</ele><time>2026-04-18T11:51:40.673Z</time></trkpt><trkpt lat="43.4176793" lon="11.8245682"><ele>245.60000000000002</ele><time>2026-04-18T11:51:41.672Z</time></trkpt><trkpt lat="43.4176571" lon="11.8244254"><ele>246.0</ele><time>2026-04-18T11:51:42.673Z</time></trkpt><trkpt lat="43.4176413" lon="11.8242693"><ele>246.0</ele><time>2026-04-18T11:51:43.675Z</time></trkpt><trkpt lat="43.4176243" lon="11.8241128"><ele>246.0</ele><time>2026-04-18T11:51:44.676Z</time></trkpt><trkpt lat="43.417608" lon="11.8239564"><ele>246.0</ele><time>2026-04-18T11:51:45.678Z</time></trkpt><trkpt lat="43.4175998" lon="11.8237967"><ele>246.0</ele><time>2026-04-18T11:51:46.671Z</time></trkpt><trkpt lat="43.4175933" lon="11.823643"><ele>246.0</ele><time>2026-04-18T11:51:47.679Z</time></trkpt><trkpt lat="43.4175896" lon="11.8234922"><ele>246.00000000000003</ele><time>2026-04-18T11:51:48.67Z</time></trkpt><trkpt lat="43.4175922" lon="11.8233432"><ele>246.00000000000003</ele><time>2026-04-18T11:51:49.673Z</time></trkpt><trkpt lat="43.4175908" lon="11.8231964"><ele>246.0</ele><time>2026-04-18T11:51:50.668Z</time></trkpt><trkpt lat="43.4175867" lon="11.823051"><ele>246.0</ele><time>2026-04-18T11:51:51.67Z</time></trkpt><trkpt lat="43.4175854" lon="11.8229001"><ele>246.0</ele><time>2026-04-18T11:51:52.681Z</time></trkpt><trkpt lat="43.4175829" lon="11.8227467"><ele>246.0</ele><time>2026-04-18T11:51:53.679Z</time></trkpt><trkpt lat="43.4175796" lon="11.8225947"><ele>246.0</ele><time>2026-04-18T11:51:54.68Z</time></trkpt><trkpt lat="43.4175783" lon="11.8224313"><ele>246.0</ele><time>2026-04-18T11:51:55.663Z</time></trkpt><trkpt lat="43.4175766" lon="11.8222709"><ele>245.75</ele><time>2026-04-18T11:51:56.677Z</time></trkpt><trkpt lat="43.4175779" lon="11.8221008"><ele>245.5</ele><time>2026-04-18T11:51:57.674Z</time></trkpt><trkpt lat="43.4175783" lon="11.821933"><ele>245.25</ele><time>2026-04-18T11:51:58.674Z</time></trkpt><trkpt lat="43.4175792" lon="11.8217607"><ele>245.0</ele><time>2026-04-18T11:51:59.676Z</time></trkpt><trkpt lat="43.4175709" lon="11.821591"><ele>244.75</ele><time>2026-04-18T11:52:00.666Z</time></trkpt><trkpt lat="43.4175647" lon="11.8214121"><ele>244.5</ele><time>2026-04-18T11:52:01.677Z</time></trkpt><trkpt lat="43.4175586" lon="11.8212375"><ele>244.25</ele><time>2026-04-18T11:52:02.663Z</time></trkpt><trkpt lat="43.4175561" lon="11.8210547"><ele>244.0</ele><time>2026-04-18T11:52:03.682Z</time></trkpt><trkpt lat="43.4175533" lon="11.8207084"><ele>244.0</ele><time>2026-04-18T11:52:05.682Z</time></trkpt><trkpt lat="43.4175504" lon="11.8205375"><ele>243.99999999999997</ele><time>2026-04-18T11:52:06.685Z</time></trkpt><trkpt lat="43.4175541" lon="11.8203795"><ele>243.99999999999997</ele><time>2026-04-18T11:52:07.685Z</time></trkpt><trkpt lat="43.417551" lon="11.8202482"><ele>244.0</ele><time>2026-04-18T11:52:08.69Z</time></trkpt><trkpt lat="43.4175565" lon="11.8201457"><ele>244.0</ele><time>2026-04-18T11:52:09.682Z</time></trkpt><trkpt lat="43.4175532" lon="11.8199921"><ele>243.99999999999997</ele><time>2026-04-18T11:52:11.68Z</time></trkpt><trkpt lat="43.4175821" lon="11.819896"><ele>244.0</ele><time>2026-04-18T11:52:13.684Z</time></trkpt><trkpt lat="43.4176437" lon="11.8198427"><ele>243.99999999999997</ele><time>2026-04-18T11:52:15.668Z</time></trkpt><trkpt lat="43.4177242" lon="11.8198115"><ele>243.99999999999997</ele><time>2026-04-18T11:52:17.687Z</time></trkpt><trkpt lat="43.4177869" lon="11.8197982"><ele>244.0</ele><time>2026-04-18T11:52:18.685Z</time></trkpt><trkpt lat="43.4178578" lon="11.8197728"><ele>243.99999999999997</ele><time>2026-04-18T11:52:19.685Z</time></trkpt><trkpt lat="43.4179287" lon="11.8197623"><ele>243.99999999999997</ele><time>2026-04-18T11:52:20.69Z</time></trkpt><trkpt lat="43.4180048" lon="11.8197455"><ele>243.99999999999997</ele><time>2026-04-18T11:52:22.678Z</time></trkpt><trkpt lat="43.4180677" lon="11.8196949"><ele>244.0</ele><time>2026-04-18T11:53:02.672Z</time></trkpt><trkpt lat="43.4181707" lon="11.81966"><ele>244.0</ele><time>2026-04-18T11:53:04.664Z</time></trkpt><trkpt lat="43.418239" lon="11.8196388"><ele>244.0</ele><time>2026-04-18T11:53:05.674Z</time></trkpt><trkpt lat="43.4183199" lon="11.8196218"><ele>243.99999999999997</ele><time>2026-04-18T11:53:06.683Z</time></trkpt><trkpt lat="43.4183848" lon="11.8196035"><ele>244.0</ele><time>2026-04-18T11:53:07.677Z</time></trkpt><trkpt lat="43.4184526" lon="11.819565"><ele>244.0</ele><time>2026-04-18T11:53:09.671Z</time></trkpt><trkpt lat="43.4183346" lon="11.8195952"><ele>243.99999999999997</ele><time>2026-04-18T11:53:20.671Z</time></trkpt><trkpt lat="43.4182682" lon="11.8196265"><ele>243.99999999999997</ele><time>2026-04-18T11:53:21.672Z</time></trkpt><trkpt lat="43.4181842" lon="11.8196527"><ele>244.0</ele><time>2026-04-18T11:53:22.683Z</time></trkpt><trkpt lat="43.4180939" lon="11.8196688"><ele>244.0</ele><time>2026-04-18T11:53:23.67Z</time></trkpt><trkpt lat="43.4179957" lon="11.8197015"><ele>244.0</ele><time>2026-04-18T11:53:24.669Z</time></trkpt><trkpt lat="43.4178895" lon="11.8197269"><ele>243.99999999999997</ele><time>2026-04-18T11:53:25.676Z</time></trkpt><trkpt lat="43.4177833" lon="11.8197597"><ele>243.99999999999997</ele><time>2026-04-18T11:53:26.673Z</time></trkpt><trkpt lat="43.417681" lon="11.819793"><ele>244.0</ele><time>2026-04-18T11:53:27.669Z</time></trkpt><trkpt lat="43.4175928" lon="11.819827"><ele>244.0</ele><time>2026-04-18T11:53:28.674Z</time></trkpt><trkpt lat="43.4175144" lon="11.8198459"><ele>244.0</ele><time>2026-04-18T11:53:29.665Z</time></trkpt><trkpt lat="43.4173796" lon="11.8198799"><ele>243.99999999999997</ele><time>2026-04-18T11:53:31.675Z</time></trkpt><trkpt lat="43.4172943" lon="11.8199001"><ele>243.99999999999997</ele><time>2026-04-18T11:53:32.679Z</time></trkpt><trkpt lat="43.4172031" lon="11.8199262"><ele>244.0</ele><time>2026-04-18T11:53:33.667Z</time></trkpt><trkpt lat="43.4171068" lon="11.8199505"><ele>244.0</ele><time>2026-04-18T11:53:34.66Z</time></trkpt><trkpt lat="43.4170092" lon="11.8199764"><ele>244.0</ele><time>2026-04-18T11:53:35.665Z</time></trkpt><trkpt lat="43.4169087" lon="11.8199989"><ele>243.99999999999997</ele><time>2026-04-18T11:53:36.682Z</time></trkpt><trkpt lat="43.4168075" lon="11.820028"><ele>243.99999999999997</ele><time>2026-04-18T11:53:37.677Z</time></trkpt><trkpt lat="43.41671" lon="11.8200567"><ele>244.0</ele><time>2026-04-18T11:53:38.674Z</time></trkpt><trkpt lat="43.4166162" lon="11.8200842"><ele>244.0</ele><time>2026-04-18T11:53:39.664Z</time></trkpt><trkpt lat="43.4165239" lon="11.8201078"><ele>244.0</ele><time>2026-04-18T11:53:40.671Z</time></trkpt><trkpt lat="43.4164333" lon="11.8201305"><ele>243.99999999999997</ele><time>2026-04-18T11:53:41.668Z</time></trkpt><trkpt lat="43.4163403" lon="11.8201551"><ele>243.99999999999997</ele><time>2026-04-18T11:53:42.674Z</time></trkpt><trkpt lat="43.41625" lon="11.8201757"><ele>244.0</ele><time>2026-04-18T11:53:43.677Z</time></trkpt><trkpt lat="43.4161547" lon="11.820208"><ele>244.0</ele><time>2026-04-18T11:53:44.673Z</time></trkpt><trkpt lat="43.4160568" lon="11.8202358"><ele>244.0</ele><time>2026-04-18T11:53:45.672Z</time></trkpt><trkpt lat="43.4159541" lon="11.8202663"><ele>243.99999999999997</ele><time>2026-04-18T11:53:46.673Z</time></trkpt><trkpt lat="43.4158546" lon="11.8202935"><ele>243.99999999999997</ele><time>2026-04-18T11:53:47.672Z</time></trkpt><trkpt lat="43.4157658" lon="11.8203209"><ele>244.0</ele><time>2026-04-18T11:53:48.672Z</time></trkpt><trkpt lat="43.4156789" lon="11.8203452"><ele>244.0</ele><time>2026-04-18T11:53:49.671Z</time></trkpt><trkpt lat="43.4155921" lon="11.8203679"><ele>244.0</ele><time>2026-04-18T11:53:50.672Z</time></trkpt><trkpt lat="43.4155139" lon="11.8203852"><ele>243.99999999999997</ele><time>2026-04-18T11:53:51.667Z</time></trkpt><trkpt lat="43.415396" lon="11.8204059"><ele>243.99999999999997</ele><time>2026-04-18T11:53:53.667Z</time></trkpt><trkpt lat="43.4152932" lon="11.8203654"><ele>244.0</ele><time>2026-04-18T11:53:55.672Z</time></trkpt><trkpt lat="43.4152183" lon="11.8202697"><ele>244.0</ele><time>2026-04-18T11:53:57.671Z</time></trkpt><trkpt lat="43.4151854" lon="11.8201265"><ele>243.66666666666666</ele><time>2026-04-18T11:53:59.686Z</time></trkpt><trkpt lat="43.4151734" lon="11.8200268"><ele>243.33333333333331</ele><time>2026-04-18T11:54:00.666Z</time></trkpt><trkpt lat="43.4151494" lon="11.8199324"><ele>243.0</ele><time>2026-04-18T11:54:01.681Z</time></trkpt><trkpt lat="43.4150854" lon="11.8198092"><ele>242.66666666666669</ele><time>2026-04-18T11:54:03.676Z</time></trkpt><trkpt lat="43.4149824" lon="11.8197398"><ele>242.33333333333334</ele><time>2026-04-18T11:54:05.679Z</time></trkpt><trkpt lat="43.4149196" lon="11.8197216"><ele>242.0</ele><time>2026-04-18T11:54:06.673Z</time></trkpt><trkpt lat="43.4148499" lon="11.819709"><ele>242.00000000000003</ele><time>2026-04-18T11:54:07.67Z</time></trkpt><trkpt lat="43.4147749" lon="11.8196988"><ele>242.0</ele><time>2026-04-18T11:54:08.672Z</time></trkpt><trkpt lat="43.4146962" lon="11.8196842"><ele>242.0</ele><time>2026-04-18T11:54:09.682Z</time></trkpt><trkpt lat="43.4146132" lon="11.8196694"><ele>242.0</ele><time>2026-04-18T11:54:10.674Z</time></trkpt><trkpt lat="43.4145279" lon="11.8196497"><ele>242.00000000000003</ele><time>2026-04-18T11:54:11.677Z</time></trkpt><trkpt lat="43.4144458" lon="11.8196351"><ele>242.0</ele><time>2026-04-18T11:54:12.672Z</time></trkpt><trkpt lat="43.414359" lon="11.8196221"><ele>242.2</ele><time>2026-04-18T11:54:13.673Z</time></trkpt><trkpt lat="43.4142759" lon="11.8196088"><ele>242.39999999999998</ele><time>2026-04-18T11:54:14.681Z</time></trkpt><trkpt lat="43.4141859" lon="11.8195892"><ele>242.60000000000002</ele><time>2026-04-18T11:54:15.674Z</time></trkpt><trkpt lat="43.4140964" lon="11.8195685"><ele>242.8</ele><time>2026-04-18T11:54:16.682Z</time></trkpt><trkpt lat="43.4140038" lon="11.8195491"><ele>243.0</ele><time>2026-04-18T11:54:17.671Z</time></trkpt><trkpt lat="43.4139067" lon="11.8195227"><ele>243.2</ele><time>2026-04-18T11:54:18.685Z</time></trkpt><trkpt lat="43.4138105" lon="11.8194961"><ele>243.4</ele><time>2026-04-18T11:54:19.671Z</time></trkpt><trkpt lat="43.4137103" lon="11.8194734"><ele>243.59999999999997</ele><time>2026-04-18T11:54:20.678Z</time></trkpt><trkpt lat="43.4136106" lon="11.8194477"><ele>243.79999999999998</ele><time>2026-04-18T11:54:21.677Z</time></trkpt><trkpt lat="43.4135129" lon="11.8194194"><ele>244.0</ele><time>2026-04-18T11:54:22.664Z</time></trkpt><trkpt lat="43.4134143" lon="11.8193962"><ele>243.99999999999997</ele><time>2026-04-18T11:54:23.673Z</time></trkpt><trkpt lat="43.4133183" lon="11.819371"><ele>244.0</ele><time>2026-04-18T11:54:24.674Z</time></trkpt><trkpt lat="43.4132255" lon="11.8193455"><ele>244.0</ele><time>2026-04-18T11:54:25.672Z</time></trkpt><trkpt lat="43.4131431" lon="11.8193233"><ele>244.0</ele><time>2026-04-18T11:54:26.664Z</time></trkpt><trkpt lat="43.4130706" lon="11.819306"><ele>243.99999999999997</ele><time>2026-04-18T11:54:27.676Z</time></trkpt><trkpt lat="43.4129904" lon="11.8192876"><ele>244.0</ele><time>2026-04-18T11:54:28.674Z</time></trkpt><trkpt lat="43.4129114" lon="11.8192685"><ele>243.99999999999997</ele><time>2026-04-18T11:54:29.677Z</time></trkpt><trkpt lat="43.4128389" lon="11.8192538"><ele>244.0</ele><time>2026-04-18T11:54:30.676Z</time></trkpt><trkpt lat="43.4127731" lon="11.819242"><ele>243.99999999999997</ele><time>2026-04-18T11:54:31.673Z</time></trkpt><trkpt lat="43.4127092" lon="11.8192363"><ele>243.99999999999997</ele><time>2026-04-18T11:54:32.672Z</time></trkpt><trkpt lat="43.412641" lon="11.8192465"><ele>244.0</ele><time>2026-04-18T11:54:33.673Z</time></trkpt><trkpt lat="43.4125714" lon="11.819258"><ele>243.99999999999997</ele><time>2026-04-18T11:54:34.675Z</time></trkpt><trkpt lat="43.4124975" lon="11.819292"><ele>243.99999999999997</ele><time>2026-04-18T11:54:35.68Z</time></trkpt><trkpt lat="43.4124306" lon="11.8193386"><ele>244.0</ele><time>2026-04-18T11:54:36.667Z</time></trkpt><trkpt lat="43.4123566" lon="11.8193877"><ele>243.99999999999997</ele><time>2026-04-18T11:54:37.674Z</time></trkpt><trkpt lat="43.4122759" lon="11.8194424"><ele>243.99999999999997</ele><time>2026-04-18T11:54:38.672Z</time></trkpt><trkpt lat="43.412198" lon="11.8195071"><ele>244.0</ele><time>2026-04-18T11:54:39.675Z</time></trkpt><trkpt lat="43.412118" lon="11.8195767"><ele>244.0</ele><time>2026-04-18T11:54:40.675Z</time></trkpt><trkpt lat="43.4120337" lon="11.8196444"><ele>244.0</ele><time>2026-04-18T11:54:41.681Z</time></trkpt><trkpt lat="43.4119467" lon="11.8197176"><ele>243.99999999999997</ele><time>2026-04-18T11:54:42.677Z</time></trkpt><trkpt lat="43.4118601" lon="11.819788"><ele>243.99999999999997</ele><time>2026-04-18T11:54:43.672Z</time></trkpt><trkpt lat="43.4117715" lon="11.8198578"><ele>244.0</ele><time>2026-04-18T11:54:44.675Z</time></trkpt><trkpt lat="43.4116806" lon="11.819928"><ele>244.0</ele><time>2026-04-18T11:54:45.677Z</time></trkpt><trkpt lat="43.4115931" lon="11.8199951"><ele>243.99999999999997</ele><time>2026-04-18T11:54:46.674Z</time></trkpt><trkpt lat="43.4115208" lon="11.8200583"><ele>244.0</ele><time>2026-04-18T11:54:47.673Z</time></trkpt><trkpt lat="43.4114597" lon="11.8201051"><ele>244.0</ele><time>2026-04-18T11:54:48.677Z</time></trkpt><trkpt lat="43.4114066" lon="11.8201562"><ele>244.0</ele><time>2026-04-18T11:54:49.682Z</time></trkpt><trkpt lat="43.4113236" lon="11.8202709"><ele>243.99999999999997</ele><time>2026-04-18T11:54:51.671Z</time></trkpt><trkpt lat="43.411273" lon="11.8204047"><ele>244.0</ele><time>2026-04-18T11:54:53.677Z</time></trkpt><trkpt lat="43.4112562" lon="11.8205624"><ele>243.99999999999997</ele><time>2026-04-18T11:54:55.67Z</time></trkpt><trkpt lat="43.4112528" lon="11.8206615"><ele>244.0</ele><time>2026-04-18T11:54:56.668Z</time></trkpt><trkpt lat="43.4112463" lon="11.8207723"><ele>244.0</ele><time>2026-04-18T11:54:57.679Z</time></trkpt><trkpt lat="43.4112352" lon="11.8208869"><ele>244.0</ele><time>2026-04-18T11:54:58.673Z</time></trkpt><trkpt lat="43.411216" lon="11.8210072"><ele>243.99999999999997</ele><time>2026-04-18T11:54:59.674Z</time></trkpt><trkpt lat="43.4111864" lon="11.8211289"><ele>244.0</ele><time>2026-04-18T11:55:00.669Z</time></trkpt><trkpt lat="43.4111515" lon="11.8212652"><ele>243.75</ele><time>2026-04-18T11:55:01.678Z</time></trkpt><trkpt lat="43.4111063" lon="11.8214147"><ele>243.5</ele><time>2026-04-18T11:55:02.674Z</time></trkpt><trkpt lat="43.4110614" lon="11.8215746"><ele>243.25</ele><time>2026-04-18T11:55:03.684Z</time></trkpt><trkpt lat="43.4110104" lon="11.8217566"><ele>243.0</ele><time>2026-04-18T11:55:04.678Z</time></trkpt><trkpt lat="43.4109603" lon="11.8219454"><ele>243.0</ele><time>2026-04-18T11:55:05.674Z</time></trkpt><trkpt lat="43.4109127" lon="11.8221046"><ele>243.0</ele><time>2026-04-18T11:55:06.675Z</time></trkpt><trkpt lat="43.4108724" lon="11.8222472"><ele>243.0</ele><time>2026-04-18T11:55:07.681Z</time></trkpt><trkpt lat="43.4108346" lon="11.8223671"><ele>243.0</ele><time>2026-04-18T11:55:08.688Z</time></trkpt><trkpt lat="43.4108022" lon="11.8224653"><ele>243.0</ele><time>2026-04-18T11:55:09.679Z</time></trkpt><trkpt lat="43.4107768" lon="11.8225494"><ele>243.0</ele><time>2026-04-18T11:55:10.676Z</time></trkpt><trkpt lat="43.4106923" lon="11.8226621"><ele>243.0</ele><time>2026-04-18T11:55:12.67Z</time></trkpt><trkpt lat="43.4106236" lon="11.8227109"><ele>243.0</ele><time>2026-04-18T11:55:13.671Z</time></trkpt><trkpt lat="43.4105341" lon="11.8227594"><ele>243.0</ele><time>2026-04-18T11:55:14.667Z</time></trkpt><trkpt lat="43.410413" lon="11.8228116"><ele>243.0</ele><time>2026-04-18T11:55:15.678Z</time></trkpt><trkpt lat="43.4103002" lon="11.8228711"><ele>243.0</ele><time>2026-04-18T11:55:16.669Z</time></trkpt><trkpt lat="43.4102077" lon="11.8229228"><ele>243.0</ele><time>2026-04-18T11:55:17.673Z</time></trkpt><trkpt lat="43.4101291" lon="11.822965"><ele>243.0</ele><time>2026-04-18T11:55:18.679Z</time></trkpt><trkpt lat="43.4100555" lon="11.8230027"><ele>243.0</ele><time>2026-04-18T11:55:19.672Z</time></trkpt><trkpt lat="43.4099963" lon="11.8230406"><ele>243.0</ele><time>2026-04-18T11:55:20.664Z</time></trkpt><trkpt lat="43.409903" lon="11.8231177"><ele>243.0</ele><time>2026-04-18T11:55:22.677Z</time></trkpt><trkpt lat="43.4098543" lon="11.8232286"><ele>243.0</ele><time>2026-04-18T11:55:24.67Z</time></trkpt><trkpt lat="43.4098356" lon="11.8233607"><ele>243.0</ele><time>2026-04-18T11:55:26.671Z</time></trkpt><trkpt lat="43.409843" lon="11.8235278"><ele>243.0</ele><time>2026-04-18T11:55:28.662Z</time></trkpt><trkpt lat="43.4098415" lon="11.8236214"><ele>243.0</ele><time>2026-04-18T11:55:29.673Z</time></trkpt><trkpt lat="43.4098371" lon="11.8237129"><ele>243.0</ele><time>2026-04-18T11:55:30.68Z</time></trkpt><trkpt lat="43.4098199" lon="11.8238722"><ele>243.0</ele><time>2026-04-18T11:55:32.677Z</time></trkpt><trkpt lat="43.4097806" lon="11.8239768"><ele>243.0</ele><time>2026-04-18T11:55:34.663Z</time></trkpt><trkpt lat="43.4097062" lon="11.8240392"><ele>243.0</ele><time>2026-04-18T11:55:36.659Z</time></trkpt><trkpt lat="43.4095644" lon="11.8241054"><ele>243.0</ele><time>2026-04-18T11:55:38.676Z</time></trkpt><trkpt lat="43.4094575" lon="11.8241548"><ele>243.0</ele><time>2026-04-18T11:55:39.671Z</time></trkpt><trkpt lat="43.4093423" lon="11.8242011"><ele>243.2</ele><time>2026-04-18T11:55:40.667Z</time></trkpt><trkpt lat="43.409243" lon="11.8242531"><ele>243.4</ele><time>2026-04-18T11:55:41.678Z</time></trkpt><trkpt lat="43.4091513" lon="11.8243019"><ele>243.59999999999997</ele><time>2026-04-18T11:55:42.675Z</time></trkpt><trkpt lat="43.409057" lon="11.8243503"><ele>243.79999999999998</ele><time>2026-04-18T11:55:43.671Z</time></trkpt><trkpt lat="43.4089682" lon="11.8243964"><ele>244.0</ele><time>2026-04-18T11:55:44.665Z</time></trkpt><trkpt lat="43.4088782" lon="11.8244422"><ele>244.0</ele><time>2026-04-18T11:55:45.671Z</time></trkpt><trkpt lat="43.4087831" lon="11.8244956"><ele>244.0</ele><time>2026-04-18T11:55:46.676Z</time></trkpt><trkpt lat="43.4086794" lon="11.8245529"><ele>244.0</ele><time>2026-04-18T11:55:47.67Z</time></trkpt><trkpt lat="43.4085673" lon="11.8246107"><ele>244.0</ele><time>2026-04-18T11:55:48.67Z</time></trkpt><trkpt lat="43.4084581" lon="11.8246647"><ele>244.0</ele><time>2026-04-18T11:55:49.672Z</time></trkpt><trkpt lat="43.4083697" lon="11.8247143"><ele>243.99999999999997</ele><time>2026-04-18T11:55:50.672Z</time></trkpt><trkpt lat="43.4082817" lon="11.8247609"><ele>243.99999999999997</ele><time>2026-04-18T11:55:51.664Z</time></trkpt><trkpt lat="43.4081984" lon="11.8248039"><ele>244.0</ele><time>2026-04-18T11:55:52.676Z</time></trkpt><trkpt lat="43.4081146" lon="11.8248452"><ele>244.0</ele><time>2026-04-18T11:55:53.668Z</time></trkpt><trkpt lat="43.4080325" lon="11.8248871"><ele>243.66666666666666</ele><time>2026-04-18T11:55:54.681Z</time></trkpt><trkpt lat="43.4079443" lon="11.824931"><ele>243.33333333333331</ele><time>2026-04-18T11:55:55.673Z</time></trkpt><trkpt lat="43.4078569" lon="11.8249785"><ele>243.0</ele><time>2026-04-18T11:55:56.668Z</time></trkpt><trkpt lat="43.4077693" lon="11.8250224"><ele>242.66666666666669</ele><time>2026-04-18T11:55:57.677Z</time></trkpt><trkpt lat="43.4076905" lon="11.8250597"><ele>242.33333333333334</ele><time>2026-04-18T11:55:58.672Z</time></trkpt><trkpt lat="43.4076161" lon="11.8250976"><ele>242.0</ele><time>2026-04-18T11:55:59.666Z</time></trkpt><trkpt lat="43.4075379" lon="11.8251384"><ele>242.00000000000003</ele><time>2026-04-18T11:56:00.67Z</time></trkpt><trkpt lat="43.4074568" lon="11.8251809"><ele>242.0</ele><time>2026-04-18T11:56:01.671Z</time></trkpt><trkpt lat="43.4073843" lon="11.8252196"><ele>242.0</ele><time>2026-04-18T11:56:02.678Z</time></trkpt><trkpt lat="43.4073219" lon="11.8252549"><ele>242.0</ele><time>2026-04-18T11:56:03.668Z</time></trkpt><trkpt lat="43.407263" lon="11.8252863"><ele>242.00000000000003</ele><time>2026-04-18T11:56:04.672Z</time></trkpt><trkpt lat="43.4071476" lon="11.8253367"><ele>242.0</ele><time>2026-04-18T11:56:06.67Z</time></trkpt><trkpt lat="43.4070847" lon="11.8253582"><ele>242.00000000000003</ele><time>2026-04-18T11:56:07.671Z</time></trkpt><trkpt lat="43.4070191" lon="11.8253711"><ele>242.0</ele><time>2026-04-18T11:56:08.676Z</time></trkpt><trkpt lat="43.4069497" lon="11.8253721"><ele>242.0</ele><time>2026-04-18T11:56:09.673Z</time></trkpt><trkpt lat="43.406884" lon="11.8253612"><ele>242.0</ele><time>2026-04-18T11:56:10.682Z</time></trkpt><trkpt lat="43.4067851" lon="11.8253169"><ele>242.00000000000003</ele><time>2026-04-18T11:56:12.687Z</time></trkpt><trkpt lat="43.4066929" lon="11.8252647"><ele>242.0</ele><time>2026-04-18T11:56:14.675Z</time></trkpt><trkpt lat="43.4065816" lon="11.8252026"><ele>242.00000000000003</ele><time>2026-04-18T11:56:16.676Z</time></trkpt><trkpt lat="43.4065189" lon="11.8251674"><ele>242.0</ele><time>2026-04-18T11:56:17.678Z</time></trkpt><trkpt lat="43.4064563" lon="11.8251297"><ele>242.0</ele><time>2026-04-18T11:56:18.679Z</time></trkpt><trkpt lat="43.4063826" lon="11.8250934"><ele>242.0</ele><time>2026-04-18T11:56:19.677Z</time></trkpt><trkpt lat="43.4062905" lon="11.8250532"><ele>242.00000000000003</ele><time>2026-04-18T11:56:20.684Z</time></trkpt><trkpt lat="43.4061845" lon="11.8250038"><ele>242.0</ele><time>2026-04-18T11:56:21.675Z</time></trkpt><trkpt lat="43.4060817" lon="11.8249584"><ele>242.33333333333334</ele><time>2026-04-18T11:56:22.669Z</time></trkpt><trkpt lat="43.4059898" lon="11.8249183"><ele>242.66666666666669</ele><time>2026-04-18T11:56:23.677Z</time></trkpt><trkpt lat="43.4059013" lon="11.8248745"><ele>243.0</ele><time>2026-04-18T11:56:24.674Z</time></trkpt><trkpt lat="43.4058214" lon="11.824836"><ele>243.33333333333331</ele><time>2026-04-18T11:56:25.671Z</time></trkpt><trkpt lat="43.4057424" lon="11.8248016"><ele>243.66666666666666</ele><time>2026-04-18T11:56:26.684Z</time></trkpt><trkpt lat="43.4056639" lon="11.8247687"><ele>244.0</ele><time>2026-04-18T11:56:27.682Z</time></trkpt><trkpt lat="43.4055897" lon="11.8247464"><ele>243.99999999999997</ele><time>2026-04-18T11:56:28.68Z</time></trkpt><trkpt lat="43.4055171" lon="11.8247215"><ele>244.0</ele><time>2026-04-18T11:56:29.67Z</time></trkpt><trkpt lat="43.4054434" lon="11.8246983"><ele>244.0</ele><time>2026-04-18T11:56:30.671Z</time></trkpt><trkpt lat="43.4053704" lon="11.8246831"><ele>244.0</ele><time>2026-04-18T11:56:31.672Z</time></trkpt><trkpt lat="43.4053006" lon="11.8246751"><ele>243.99999999999997</ele><time>2026-04-18T11:56:32.68Z</time></trkpt><trkpt lat="43.4052363" lon="11.8246681"><ele>244.0</ele><time>2026-04-18T11:56:33.678Z</time></trkpt><trkpt lat="43.4051378" lon="11.8246529"><ele>244.0</ele><time>2026-04-18T11:56:35.674Z</time></trkpt><trkpt lat="43.4050581" lon="11.8246352"><ele>243.99999999999997</ele><time>2026-04-18T11:56:38.675Z</time></trkpt><trkpt lat="43.4049751" lon="11.8246251"><ele>243.99999999999997</ele><time>2026-04-18T11:56:41.665Z</time></trkpt><trkpt lat="43.4048828" lon="11.8246106"><ele>244.0</ele><time>2026-04-18T11:56:44.664Z</time></trkpt><trkpt lat="43.4048079" lon="11.824603"><ele>244.0</ele><time>2026-04-18T11:56:46.662Z</time></trkpt><trkpt lat="43.4046896" lon="11.8245964"><ele>243.99999999999997</ele><time>2026-04-18T11:56:48.675Z</time></trkpt><trkpt lat="43.4046238" lon="11.8245882"><ele>244.0</ele><time>2026-04-18T11:56:49.677Z</time></trkpt><trkpt lat="43.404552" lon="11.8245845"><ele>243.99999999999997</ele><time>2026-04-18T11:56:50.682Z</time></trkpt><trkpt lat="43.404479" lon="11.8245747"><ele>243.99999999999997</ele><time>2026-04-18T11:56:51.678Z</time></trkpt><trkpt lat="43.4043998" lon="11.8245644"><ele>244.0</ele><time>2026-04-18T11:56:52.68Z</time></trkpt><trkpt lat="43.4043226" lon="11.8245497"><ele>243.99999999999997</ele><time>2026-04-18T11:56:53.684Z</time></trkpt><trkpt lat="43.4042522" lon="11.8245403"><ele>243.99999999999997</ele><time>2026-04-18T11:56:54.692Z</time></trkpt><trkpt lat="43.4041884" lon="11.824538"><ele>243.99999999999997</ele><time>2026-04-18T11:56:55.671Z</time></trkpt><trkpt lat="43.4041191" lon="11.8245441"><ele>244.0</ele><time>2026-04-18T11:56:56.733Z</time></trkpt><trkpt lat="43.4040512" lon="11.8245579"><ele>243.99999999999997</ele><time>2026-04-18T11:56:57.679Z</time></trkpt><trkpt lat="43.403984" lon="11.8245829"><ele>243.99999999999997</ele><time>2026-04-18T11:56:58.673Z</time></trkpt><trkpt lat="43.4039201" lon="11.8246132"><ele>244.0</ele><time>2026-04-18T11:56:59.679Z</time></trkpt><trkpt lat="43.403858" lon="11.8246478"><ele>243.99999999999997</ele><time>2026-04-18T11:57:00.687Z</time></trkpt><trkpt lat="43.4037945" lon="11.824699"><ele>243.99999999999997</ele><time>2026-04-18T11:57:01.67Z</time></trkpt><trkpt lat="43.4037194" lon="11.8247658"><ele>244.0</ele><time>2026-04-18T11:57:02.691Z</time></trkpt><trkpt lat="43.403638" lon="11.8248387"><ele>243.99999999999997</ele><time>2026-04-18T11:57:03.678Z</time></trkpt><trkpt lat="43.4035596" lon="11.8249149"><ele>243.99999999999997</ele><time>2026-04-18T11:57:04.678Z</time></trkpt><trkpt lat="43.4034747" lon="11.8249851"><ele>244.0</ele><time>2026-04-18T11:57:05.669Z</time></trkpt><trkpt lat="43.4033875" lon="11.8250544"><ele>244.0</ele><time>2026-04-18T11:57:06.675Z</time></trkpt><trkpt lat="43.4033045" lon="11.8251221"><ele>244.0</ele><time>2026-04-18T11:57:07.671Z</time></trkpt><trkpt lat="43.40322" lon="11.8251897"><ele>243.99999999999997</ele><time>2026-04-18T11:57:08.67Z</time></trkpt><trkpt lat="43.4031328" lon="11.8252604"><ele>243.99999999999997</ele><time>2026-04-18T11:57:09.68Z</time></trkpt><trkpt lat="43.4030495" lon="11.8253304"><ele>244.0</ele><time>2026-04-18T11:57:10.682Z</time></trkpt><trkpt lat="43.4029648" lon="11.825403"><ele>244.0</ele><time>2026-04-18T11:57:11.666Z</time></trkpt><trkpt lat="43.4028778" lon="11.8254766"><ele>244.0</ele><time>2026-04-18T11:57:12.678Z</time></trkpt><trkpt lat="43.4027855" lon="11.8255471"><ele>243.99999999999997</ele><time>2026-04-18T11:57:13.671Z</time></trkpt><trkpt lat="43.4026935" lon="11.8256259"><ele>243.99999999999997</ele><time>2026-04-18T11:57:14.672Z</time></trkpt><trkpt lat="43.4025997" lon="11.8256986"><ele>244.0</ele><time>2026-04-18T11:57:15.676Z</time></trkpt><trkpt lat="43.4025134" lon="11.825767"><ele>244.0</ele><time>2026-04-18T11:57:16.666Z</time></trkpt><trkpt lat="43.4024316" lon="11.8258315"><ele>244.0</ele><time>2026-04-18T11:57:17.673Z</time></trkpt><trkpt lat="43.4023488" lon="11.8259006"><ele>243.99999999999997</ele><time>2026-04-18T11:57:18.678Z</time></trkpt><trkpt lat="43.4022628" lon="11.8259676"><ele>243.99999999999997</ele><time>2026-04-18T11:57:19.68Z</time></trkpt><trkpt lat="43.4021821" lon="11.8260327"><ele>244.0</ele><time>2026-04-18T11:57:20.676Z</time></trkpt><trkpt lat="43.4020985" lon="11.8260929"><ele>244.0</ele><time>2026-04-18T11:57:21.673Z</time></trkpt><trkpt lat="43.4020217" lon="11.8261527"><ele>244.39999999999998</ele><time>2026-04-18T11:57:22.668Z</time></trkpt><trkpt lat="43.4019474" lon="11.8262143"><ele>244.79999999999998</ele><time>2026-04-18T11:57:23.67Z</time></trkpt><trkpt lat="43.4018653" lon="11.8262745"><ele>245.20000000000002</ele><time>2026-04-18T11:57:24.683Z</time></trkpt><trkpt lat="43.4017856" lon="11.8263439"><ele>245.60000000000002</ele><time>2026-04-18T11:57:25.668Z</time></trkpt><trkpt lat="43.4017068" lon="11.8264107"><ele>246.0</ele><time>2026-04-18T11:57:26.69Z</time></trkpt><trkpt lat="43.4016272" lon="11.8264822"><ele>246.0</ele><time>2026-04-18T11:57:27.68Z</time></trkpt><trkpt lat="43.4015517" lon="11.8265459"><ele>246.0</ele><time>2026-04-18T11:57:28.713Z</time></trkpt><trkpt lat="43.4014784" lon="11.8266006"><ele>246.0</ele><time>2026-04-18T11:57:29.666Z</time></trkpt><trkpt lat="43.4014069" lon="11.8266493"><ele>246.0</ele><time>2026-04-18T11:57:30.679Z</time></trkpt><trkpt lat="43.4013354" lon="11.8267014"><ele>246.0</ele><time>2026-04-18T11:57:31.679Z</time></trkpt><trkpt lat="43.4012669" lon="11.8267443"><ele>246.0</ele><time>2026-04-18T11:57:32.681Z</time></trkpt><trkpt lat="43.4012006" lon="11.8267945"><ele>245.83333333333334</ele><time>2026-04-18T11:57:33.672Z</time></trkpt><trkpt lat="43.4011345" lon="11.8268409"><ele>245.66666666666669</ele><time>2026-04-18T11:57:34.67Z</time></trkpt><trkpt lat="43.4010741" lon="11.8268821"><ele>245.5</ele><time>2026-04-18T11:57:35.676Z</time></trkpt><trkpt lat="43.400979" lon="11.8269437"><ele>245.33333333333334</ele><time>2026-04-18T11:57:37.681Z</time></trkpt><trkpt lat="43.4009137" lon="11.8269898"><ele>245.16666666666669</ele><time>2026-04-18T11:57:39.675Z</time></trkpt><trkpt lat="43.4008362" lon="11.8270408"><ele>245.0</ele><time>2026-04-18T11:57:41.673Z</time></trkpt><trkpt lat="43.4007569" lon="11.8271113"><ele>245.0</ele><time>2026-04-18T11:57:43.678Z</time></trkpt><trkpt lat="43.4006812" lon="11.8271795"><ele>245.0</ele><time>2026-04-18T11:57:45.67Z</time></trkpt><trkpt lat="43.4005911" lon="11.8272411"><ele>245.0</ele><time>2026-04-18T11:57:47.668Z</time></trkpt><trkpt lat="43.4004768" lon="11.8273209"><ele>245.0</ele><time>2026-04-18T11:57:49.668Z</time></trkpt><trkpt lat="43.400407" lon="11.8273733"><ele>245.0</ele><time>2026-04-18T11:57:50.666Z</time></trkpt><trkpt lat="43.4003288" lon="11.8274262"><ele>245.00000000000003</ele><time>2026-04-18T11:57:51.671Z</time></trkpt><trkpt lat="43.4002523" lon="11.8274733"><ele>245.0</ele><time>2026-04-18T11:57:52.659Z</time></trkpt><trkpt lat="43.4001847" lon="11.8275161"><ele>245.0</ele><time>2026-04-18T11:57:53.679Z</time></trkpt><trkpt lat="43.4001137" lon="11.8275503"><ele>245.0</ele><time>2026-04-18T11:57:54.673Z</time></trkpt><trkpt lat="43.4000349" lon="11.8275835"><ele>245.00000000000003</ele><time>2026-04-18T11:57:55.663Z</time></trkpt><trkpt lat="43.3999641" lon="11.827605"><ele>245.0</ele><time>2026-04-18T11:57:56.667Z</time></trkpt><trkpt lat="43.3998938" lon="11.8276198"><ele>245.0</ele><time>2026-04-18T11:57:57.684Z</time></trkpt><trkpt lat="43.3998282" lon="11.8276273"><ele>245.0</ele><time>2026-04-18T11:57:58.669Z</time></trkpt><trkpt lat="43.3997011" lon="11.8276386"><ele>245.0</ele><time>2026-04-18T11:58:00.667Z</time></trkpt><trkpt lat="43.3996348" lon="11.8276449"><ele>245.0</ele><time>2026-04-18T11:58:01.685Z</time></trkpt><trkpt lat="43.3995662" lon="11.8276586"><ele>245.0</ele><time>2026-04-18T11:58:02.671Z</time></trkpt><trkpt lat="43.3994418" lon="11.8276744"><ele>245.0</ele><time>2026-04-18T11:58:04.677Z</time></trkpt><trkpt lat="43.3993275" lon="11.8276912"><ele>245.0</ele><time>2026-04-18T11:58:06.668Z</time></trkpt><trkpt lat="43.3992191" lon="11.8277097"><ele>245.0</ele><time>2026-04-18T11:58:08.685Z</time></trkpt><trkpt lat="43.3991182" lon="11.8277278"><ele>245.0</ele><time>2026-04-18T11:58:10.688Z</time></trkpt><trkpt lat="43.3990161" lon="11.8277353"><ele>245.0</ele><time>2026-04-18T11:58:12.67Z</time></trkpt><trkpt lat="43.3989147" lon="11.8277418"><ele>245.0</ele><time>2026-04-18T11:58:14.674Z</time></trkpt><trkpt lat="43.3988126" lon="11.8277593"><ele>245.0</ele><time>2026-04-18T11:58:16.671Z</time></trkpt><trkpt lat="43.3986839" lon="11.8277603"><ele>245.0</ele><time>2026-04-18T11:58:18.687Z</time></trkpt><trkpt lat="43.3986191" lon="11.827741"><ele>245.0</ele><time>2026-04-18T11:58:19.666Z</time></trkpt><trkpt lat="43.3985479" lon="11.8277114"><ele>245.0</ele><time>2026-04-18T11:58:20.683Z</time></trkpt><trkpt lat="43.3984709" lon="11.8276834"><ele>245.0</ele><time>2026-04-18T11:58:21.68Z</time></trkpt><trkpt lat="43.3983674" lon="11.8276521"><ele>245.0</ele><time>2026-04-18T11:58:22.677Z</time></trkpt><trkpt lat="43.3982426" lon="11.8276032"><ele>245.0</ele><time>2026-04-18T11:58:23.686Z</time></trkpt><trkpt lat="43.3981342" lon="11.8275543"><ele>245.0</ele><time>2026-04-18T11:58:24.68Z</time></trkpt><trkpt lat="43.3980369" lon="11.8275095"><ele>244.8</ele><time>2026-04-18T11:58:25.678Z</time></trkpt><trkpt lat="43.3979454" lon="11.8274759"><ele>244.6</ele><time>2026-04-18T11:58:26.679Z</time></trkpt><trkpt lat="43.3978513" lon="11.8274384"><ele>244.39999999999998</ele><time>2026-04-18T11:58:27.689Z</time></trkpt><trkpt lat="43.3977564" lon="11.8273969"><ele>244.2</ele><time>2026-04-18T11:58:28.673Z</time></trkpt><trkpt lat="43.3976618" lon="11.8273565"><ele>244.0</ele><time>2026-04-18T11:58:29.675Z</time></trkpt><trkpt lat="43.3975605" lon="11.8273155"><ele>243.99999999999997</ele><time>2026-04-18T11:58:30.672Z</time></trkpt><trkpt lat="43.3974613" lon="11.8272685"><ele>244.0</ele><time>2026-04-18T11:58:31.675Z</time></trkpt><trkpt lat="43.3973756" lon="11.8272367"><ele>244.0</ele><time>2026-04-18T11:58:32.683Z</time></trkpt><trkpt lat="43.3973045" lon="11.8272022"><ele>244.0</ele><time>2026-04-18T11:58:33.686Z</time></trkpt><trkpt lat="43.3972436" lon="11.8271681"><ele>243.99999999999997</ele><time>2026-04-18T11:58:34.689Z</time></trkpt><trkpt lat="43.3971865" lon="11.8271293"><ele>244.0</ele><time>2026-04-18T11:58:35.681Z</time></trkpt><trkpt lat="43.3970937" lon="11.8270107"><ele>244.0</ele><time>2026-04-18T11:58:37.682Z</time></trkpt><trkpt lat="43.3970543" lon="11.8269263"><ele>243.99999999999997</ele><time>2026-04-18T11:58:38.679Z</time></trkpt><trkpt lat="43.3970072" lon="11.8268241"><ele>243.99999999999997</ele><time>2026-04-18T11:58:39.676Z</time></trkpt><trkpt lat="43.3969565" lon="11.8267073"><ele>244.0</ele><time>2026-04-18T11:58:40.691Z</time></trkpt><trkpt lat="43.3969038" lon="11.8265768"><ele>244.0</ele><time>2026-04-18T11:58:41.666Z</time></trkpt><trkpt lat="43.3968459" lon="11.8264545"><ele>244.0</ele><time>2026-04-18T11:58:42.682Z</time></trkpt><trkpt lat="43.3967921" lon="11.8263319"><ele>243.99999999999997</ele><time>2026-04-18T11:58:43.686Z</time></trkpt><trkpt lat="43.3967422" lon="11.8262154"><ele>243.99999999999997</ele><time>2026-04-18T11:58:44.675Z</time></trkpt><trkpt lat="43.3966891" lon="11.826098"><ele>244.0</ele><time>2026-04-18T11:58:45.679Z</time></trkpt><trkpt lat="43.3966414" lon="11.8259915"><ele>244.0</ele><time>2026-04-18T11:58:46.687Z</time></trkpt><trkpt lat="43.3965962" lon="11.8258772"><ele>243.39999999999998</ele><time>2026-04-18T11:58:47.707Z</time></trkpt><trkpt lat="43.3965509" lon="11.8257698"><ele>242.79999999999998</ele><time>2026-04-18T11:58:48.665Z</time></trkpt><trkpt lat="43.3964971" lon="11.8256674"><ele>242.20000000000002</ele><time>2026-04-18T11:58:49.669Z</time></trkpt><trkpt lat="43.3964532" lon="11.8255467"><ele>241.60000000000002</ele><time>2026-04-18T11:58:50.691Z</time></trkpt><trkpt lat="43.3964012" lon="11.8254284"><ele>241.0</ele><time>2026-04-18T11:58:51.677Z</time></trkpt><trkpt lat="43.3963533" lon="11.8253259"><ele>241.16666666666666</ele><time>2026-04-18T11:58:52.672Z</time></trkpt><trkpt lat="43.3963141" lon="11.8252306"><ele>241.33333333333331</ele><time>2026-04-18T11:58:53.678Z</time></trkpt><trkpt lat="43.3962801" lon="11.8251479"><ele>241.5</ele><time>2026-04-18T11:58:54.675Z</time></trkpt><trkpt lat="43.3962253" lon="11.8250281"><ele>241.66666666666669</ele><time>2026-04-18T11:58:56.681Z</time></trkpt><trkpt lat="43.39618" lon="11.8249535"><ele>241.83333333333334</ele><time>2026-04-18T11:58:58.665Z</time></trkpt><trkpt lat="43.3960969" lon="11.8249121"><ele>242.0</ele><time>2026-04-18T11:59:01.676Z</time></trkpt><trkpt lat="43.3960327" lon="11.8249772"><ele>242.0</ele><time>2026-04-18T11:59:04.69Z</time></trkpt><trkpt lat="43.3960069" lon="11.8250953"><ele>242.0</ele><time>2026-04-18T11:59:07.684Z</time></trkpt><trkpt lat="43.3959978" lon="11.8252323"><ele>242.0</ele><time>2026-04-18T11:59:09.675Z</time></trkpt><trkpt lat="43.3959862" lon="11.8253873"><ele>242.0</ele><time>2026-04-18T11:59:11.669Z</time></trkpt><trkpt lat="43.3959685" lon="11.8255464"><ele>242.0</ele><time>2026-04-18T11:59:13.699Z</time></trkpt><trkpt lat="43.3959594" lon="11.8256333"><ele>242.14285714285714</ele><time>2026-04-18T11:59:14.666Z</time></trkpt><trkpt lat="43.3959515" lon="11.8257266"><ele>242.28571428571428</ele><time>2026-04-18T11:59:15.677Z</time></trkpt><trkpt lat="43.3959432" lon="11.8258297"><ele>242.42857142857142</ele><time>2026-04-18T11:59:16.685Z</time></trkpt><trkpt lat="43.3959346" lon="11.8259288"><ele>242.57142857142856</ele><time>2026-04-18T11:59:17.69Z</time></trkpt><trkpt lat="43.395925" lon="11.8260294"><ele>242.71428571428572</ele><time>2026-04-18T11:59:18.682Z</time></trkpt><trkpt lat="43.3959117" lon="11.8261316"><ele>242.85714285714283</ele><time>2026-04-18T11:59:19.688Z</time></trkpt><trkpt lat="43.3959012" lon="11.8262354"><ele>243.0</ele><time>2026-04-18T11:59:20.67Z</time></trkpt><trkpt lat="43.3958886" lon="11.826336"><ele>243.0</ele><time>2026-04-18T11:59:21.677Z</time></trkpt><trkpt lat="43.3958796" lon="11.8264377"><ele>243.0</ele><time>2026-04-18T11:59:22.679Z</time></trkpt><trkpt lat="43.3958715" lon="11.8265392"><ele>243.0</ele><time>2026-04-18T11:59:23.669Z</time></trkpt><trkpt lat="43.3958629" lon="11.8266428"><ele>243.0</ele><time>2026-04-18T11:59:24.691Z</time></trkpt><trkpt lat="43.3958492" lon="11.8267447"><ele>243.0</ele><time>2026-04-18T11:59:25.696Z</time></trkpt><trkpt lat="43.3958353" lon="11.8268473"><ele>243.0</ele><time>2026-04-18T11:59:26.683Z</time></trkpt><trkpt lat="43.3958217" lon="11.8269404"><ele>243.0</ele><time>2026-04-18T11:59:27.692Z</time></trkpt><trkpt lat="43.3958044" lon="11.827025"><ele>243.2</ele><time>2026-04-18T11:59:28.674Z</time></trkpt><trkpt lat="43.3957415" lon="11.8271737"><ele>243.4</ele><time>2026-04-18T11:59:30.687Z</time></trkpt><trkpt lat="43.3956441" lon="11.8272792"><ele>243.59999999999997</ele><time>2026-04-18T11:59:32.674Z</time></trkpt><trkpt lat="43.3955736" lon="11.8273374"><ele>243.79999999999998</ele><time>2026-04-18T11:59:33.679Z</time></trkpt><trkpt lat="43.395499" lon="11.8273887"><ele>244.0</ele><time>2026-04-18T11:59:34.683Z</time></trkpt><trkpt lat="43.3954231" lon="11.8274358"><ele>243.99999999999997</ele><time>2026-04-18T11:59:35.686Z</time></trkpt><trkpt lat="43.395347" lon="11.8274812"><ele>244.0</ele><time>2026-04-18T11:59:36.668Z</time></trkpt><trkpt lat="43.3952732" lon="11.8275301"><ele>244.0</ele><time>2026-04-18T11:59:37.682Z</time></trkpt><trkpt lat="43.3951986" lon="11.8275878"><ele>244.0</ele><time>2026-04-18T11:59:38.663Z</time></trkpt><trkpt lat="43.395123" lon="11.8276499"><ele>243.99999999999997</ele><time>2026-04-18T11:59:39.675Z</time></trkpt><trkpt lat="43.3950455" lon="11.827714"><ele>244.0</ele><time>2026-04-18T11:59:40.666Z</time></trkpt><trkpt lat="43.3949625" lon="11.8277772"><ele>244.0</ele><time>2026-04-18T11:59:41.664Z</time></trkpt><trkpt lat="43.3948765" lon="11.8278468"><ele>243.99999999999997</ele><time>2026-04-18T11:59:42.686Z</time></trkpt><trkpt lat="43.3947924" lon="11.8279106"><ele>243.99999999999997</ele><time>2026-04-18T11:59:43.684Z</time></trkpt><trkpt lat="43.3947094" lon="11.8279781"><ele>244.0</ele><time>2026-04-18T11:59:44.682Z</time></trkpt><trkpt lat="43.394624" lon="11.8280394"><ele>244.0</ele><time>2026-04-18T11:59:45.667Z</time></trkpt><trkpt lat="43.3945415" lon="11.8281019"><ele>244.0</ele><time>2026-04-18T11:59:46.692Z</time></trkpt><trkpt lat="43.39446" lon="11.8281547"><ele>243.99999999999997</ele><time>2026-04-18T11:59:47.691Z</time></trkpt><trkpt lat="43.394385" lon="11.8282131"><ele>243.99999999999997</ele><time>2026-04-18T11:59:48.664Z</time></trkpt><trkpt lat="43.3943095" lon="11.828273"><ele>244.0</ele><time>2026-04-18T11:59:49.667Z</time></trkpt><trkpt lat="43.3942247" lon="11.8283306"><ele>244.0</ele><time>2026-04-18T11:59:50.664Z</time></trkpt><trkpt lat="43.394142" lon="11.8283879"><ele>244.0</ele><time>2026-04-18T11:59:51.669Z</time></trkpt><trkpt lat="43.3940561" lon="11.8284468"><ele>243.99999999999997</ele><time>2026-04-18T11:59:52.682Z</time></trkpt><trkpt lat="43.393977" lon="11.8285076"><ele>243.99999999999997</ele><time>2026-04-18T11:59:53.679Z</time></trkpt><trkpt lat="43.3938993" lon="11.8285575"><ele>244.0</ele><time>2026-04-18T11:59:54.685Z</time></trkpt><trkpt lat="43.3938166" lon="11.828617"><ele>244.0</ele><time>2026-04-18T11:59:55.681Z</time></trkpt><trkpt lat="43.393728" lon="11.8286744"><ele>244.6</ele><time>2026-04-18T11:59:56.673Z</time></trkpt><trkpt lat="43.3936425" lon="11.8287451"><ele>245.2</ele><time>2026-04-18T11:59:57.662Z</time></trkpt><trkpt lat="43.3935549" lon="11.8288179"><ele>245.79999999999998</ele><time>2026-04-18T11:59:58.682Z</time></trkpt><trkpt lat="43.3934642" lon="11.8288855"><ele>246.39999999999998</ele><time>2026-04-18T11:59:59.679Z</time></trkpt><trkpt lat="43.3933735" lon="11.82895"><ele>247.0</ele><time>2026-04-18T12:00:00.682Z</time></trkpt><trkpt lat="43.3932886" lon="11.8290125"><ele>247.0</ele><time>2026-04-18T12:00:01.678Z</time></trkpt><trkpt lat="43.3931987" lon="11.8290789"><ele>247.0</ele><time>2026-04-18T12:00:02.673Z</time></trkpt><trkpt lat="43.3931096" lon="11.8291421"><ele>247.0</ele><time>2026-04-18T12:00:03.695Z</time></trkpt><trkpt lat="43.3930291" lon="11.8292054"><ele>247.0</ele><time>2026-04-18T12:00:04.678Z</time></trkpt><trkpt lat="43.3929478" lon="11.8292683"><ele>247.0</ele><time>2026-04-18T12:00:05.667Z</time></trkpt><trkpt lat="43.3928706" lon="11.8293264"><ele>246.66666666666666</ele><time>2026-04-18T12:00:06.669Z</time></trkpt><trkpt lat="43.3927977" lon="11.8293748"><ele>246.33333333333331</ele><time>2026-04-18T12:00:07.671Z</time></trkpt><trkpt lat="43.3927342" lon="11.8294148"><ele>246.0</ele><time>2026-04-18T12:00:08.688Z</time></trkpt><trkpt lat="43.3926729" lon="11.8294498"><ele>245.66666666666669</ele><time>2026-04-18T12:00:09.671Z</time></trkpt><trkpt lat="43.3925593" lon="11.8294885"><ele>245.33333333333334</ele><time>2026-04-18T12:00:11.679Z</time></trkpt><trkpt lat="43.3924612" lon="11.8295138"><ele>245.0</ele><time>2026-04-18T12:00:13.663Z</time></trkpt><trkpt lat="43.3923673" lon="11.8295351"><ele>245.00000000000003</ele><time>2026-04-18T12:00:15.676Z</time></trkpt><trkpt lat="43.3922851" lon="11.829572"><ele>245.0</ele><time>2026-04-18T12:00:17.676Z</time></trkpt><trkpt lat="43.3922047" lon="11.829599"><ele>245.0</ele><time>2026-04-18T12:00:19.674Z</time></trkpt><trkpt lat="43.3920794" lon="11.8296365"><ele>245.0</ele><time>2026-04-18T12:00:21.665Z</time></trkpt><trkpt lat="43.3920061" lon="11.829655"><ele>245.00000000000003</ele><time>2026-04-18T12:00:22.667Z</time></trkpt><trkpt lat="43.3919358" lon="11.8296731"><ele>245.0</ele><time>2026-04-18T12:00:23.672Z</time></trkpt><trkpt lat="43.3918653" lon="11.8296885"><ele>245.00000000000003</ele><time>2026-04-18T12:00:24.664Z</time></trkpt><trkpt lat="43.3917928" lon="11.8297039"><ele>245.0</ele><time>2026-04-18T12:00:25.678Z</time></trkpt><trkpt lat="43.3917188" lon="11.8297144"><ele>245.0</ele><time>2026-04-18T12:00:26.668Z</time></trkpt><trkpt lat="43.3916404" lon="11.8297195"><ele>245.0</ele><time>2026-04-18T12:00:27.666Z</time></trkpt><trkpt lat="43.391561" lon="11.8297196"><ele>245.00000000000003</ele><time>2026-04-18T12:00:28.675Z</time></trkpt><trkpt lat="43.3914855" lon="11.8297168"><ele>245.0</ele><time>2026-04-18T12:00:29.674Z</time></trkpt><trkpt lat="43.3914035" lon="11.8297131"><ele>244.8</ele><time>2026-04-18T12:00:30.663Z</time></trkpt><trkpt lat="43.3913149" lon="11.829706"><ele>244.6</ele><time>2026-04-18T12:00:31.667Z</time></trkpt><trkpt lat="43.3912111" lon="11.8296981"><ele>244.39999999999998</ele><time>2026-04-18T12:00:32.667Z</time></trkpt><trkpt lat="43.3910889" lon="11.8296859"><ele>244.2</ele><time>2026-04-18T12:00:33.668Z</time></trkpt><trkpt lat="43.3909592" lon="11.8296748"><ele>244.0</ele><time>2026-04-18T12:00:34.668Z</time></trkpt><trkpt lat="43.3908473" lon="11.8296594"><ele>244.0</ele><time>2026-04-18T12:00:35.665Z</time></trkpt><trkpt lat="43.3907462" lon="11.8296335"><ele>243.99999999999997</ele><time>2026-04-18T12:00:36.673Z</time></trkpt><trkpt lat="43.3906494" lon="11.829612"><ele>243.99999999999997</ele><time>2026-04-18T12:00:37.676Z</time></trkpt><trkpt lat="43.3905526" lon="11.8295957"><ele>244.0</ele><time>2026-04-18T12:00:38.679Z</time></trkpt><trkpt lat="43.3904554" lon="11.8295829"><ele>244.0</ele><time>2026-04-18T12:00:39.674Z</time></trkpt><trkpt lat="43.3903565" lon="11.829576"><ele>243.79999999999998</ele><time>2026-04-18T12:00:40.68Z</time></trkpt><trkpt lat="43.3902597" lon="11.8295719"><ele>243.59999999999997</ele><time>2026-04-18T12:00:41.671Z</time></trkpt><trkpt lat="43.3901714" lon="11.8295627"><ele>243.4</ele><time>2026-04-18T12:00:42.683Z</time></trkpt><trkpt lat="43.3900912" lon="11.8295495"><ele>243.2</ele><time>2026-04-18T12:00:43.675Z</time></trkpt><trkpt lat="43.3899772" lon="11.8295287"><ele>243.0</ele><time>2026-04-18T12:00:45.673Z</time></trkpt><trkpt lat="43.389894" lon="11.8295495"><ele>243.0</ele><time>2026-04-18T12:00:47.672Z</time></trkpt><trkpt lat="43.389836" lon="11.8296188"><ele>243.0</ele><time>2026-04-18T12:00:49.671Z</time></trkpt><trkpt lat="43.3897923" lon="11.8298112"><ele>243.0</ele><time>2026-04-18T12:00:52.668Z</time></trkpt><trkpt lat="43.3897588" lon="11.8299755"><ele>243.0</ele><time>2026-04-18T12:00:54.67Z</time></trkpt><trkpt lat="43.3897354" lon="11.8300703"><ele>243.0</ele><time>2026-04-18T12:00:55.665Z</time></trkpt><trkpt lat="43.3897137" lon="11.8301702"><ele>243.0</ele><time>2026-04-18T12:00:56.676Z</time></trkpt><trkpt lat="43.3896934" lon="11.8302672"><ele>243.0</ele><time>2026-04-18T12:00:57.675Z</time></trkpt><trkpt lat="43.3896745" lon="11.8303721"><ele>243.0</ele><time>2026-04-18T12:00:58.671Z</time></trkpt><trkpt lat="43.3896527" lon="11.8304869"><ele>243.0</ele><time>2026-04-18T12:00:59.696Z</time></trkpt><trkpt lat="43.3896309" lon="11.8306017"><ele>243.0</ele><time>2026-04-18T12:01:00.667Z</time></trkpt><trkpt lat="43.3896094" lon="11.8307191"><ele>243.0</ele><time>2026-04-18T12:01:01.668Z</time></trkpt><trkpt lat="43.3895877" lon="11.8308304"><ele>243.0</ele><time>2026-04-18T12:01:02.674Z</time></trkpt><trkpt lat="43.389569" lon="11.8309286"><ele>243.0</ele><time>2026-04-18T12:01:03.672Z</time></trkpt><trkpt lat="43.3895487" lon="11.8310197"><ele>243.0</ele><time>2026-04-18T12:01:04.668Z</time></trkpt><trkpt lat="43.3895257" lon="11.8311334"><ele>243.0</ele><time>2026-04-18T12:01:05.682Z</time></trkpt><trkpt lat="43.3895006" lon="11.8312366"><ele>243.0</ele><time>2026-04-18T12:01:06.672Z</time></trkpt><trkpt lat="43.3894717" lon="11.8313186"><ele>243.0</ele><time>2026-04-18T12:01:07.671Z</time></trkpt><trkpt lat="43.3893861" lon="11.8314254"><ele>243.4</ele><time>2026-04-18T12:01:09.671Z</time></trkpt><trkpt lat="43.3892806" lon="11.8314924"><ele>243.8</ele><time>2026-04-18T12:01:11.671Z</time></trkpt><trkpt lat="43.3891601" lon="11.8315331"><ele>244.2</ele><time>2026-04-18T12:01:13.691Z</time></trkpt><trkpt lat="43.3890922" lon="11.8315552"><ele>244.6</ele><time>2026-04-18T12:01:14.69Z</time></trkpt><trkpt lat="43.3890215" lon="11.8315791"><ele>245.0</ele><time>2026-04-18T12:01:15.688Z</time></trkpt><trkpt lat="43.3889481" lon="11.8316099"><ele>245.00000000000003</ele><time>2026-04-18T12:01:16.681Z</time></trkpt><trkpt lat="43.388872" lon="11.8316408"><ele>245.0</ele><time>2026-04-18T12:01:17.675Z</time></trkpt><trkpt lat="43.3887927" lon="11.8316696"><ele>245.0</ele><time>2026-04-18T12:01:18.666Z</time></trkpt><trkpt lat="43.388711" lon="11.831701"><ele>245.0</ele><time>2026-04-18T12:01:19.681Z</time></trkpt><trkpt lat="43.3886209" lon="11.831731"><ele>245.00000000000003</ele><time>2026-04-18T12:01:20.681Z</time></trkpt><trkpt lat="43.3885207" lon="11.8317685"><ele>245.0</ele><time>2026-04-18T12:01:21.682Z</time></trkpt><trkpt lat="43.388421" lon="11.8318085"><ele>245.0</ele><time>2026-04-18T12:01:22.668Z</time></trkpt><trkpt lat="43.3883177" lon="11.8318449"><ele>245.0</ele><time>2026-04-18T12:01:23.676Z</time></trkpt><trkpt lat="43.388225" lon="11.8318818"><ele>245.0</ele><time>2026-04-18T12:01:24.686Z</time></trkpt><trkpt lat="43.3881371" lon="11.8319154"><ele>245.0</ele><time>2026-04-18T12:01:25.674Z</time></trkpt><trkpt lat="43.3880438" lon="11.8319548"><ele>245.0</ele><time>2026-04-18T12:01:26.688Z</time></trkpt><trkpt lat="43.3879468" lon="11.831994"><ele>245.0</ele><time>2026-04-18T12:01:27.688Z</time></trkpt><trkpt lat="43.3878469" lon="11.8320358"><ele>245.0</ele><time>2026-04-18T12:01:28.695Z</time></trkpt><trkpt lat="43.3877477" lon="11.832077"><ele>245.0</ele><time>2026-04-18T12:01:29.679Z</time></trkpt><trkpt lat="43.387646" lon="11.8321181"><ele>245.0</ele><time>2026-04-18T12:01:30.667Z</time></trkpt><trkpt lat="43.3875469" lon="11.832155"><ele>245.0</ele><time>2026-04-18T12:01:31.677Z</time></trkpt><trkpt lat="43.3874466" lon="11.8321961"><ele>245.0</ele><time>2026-04-18T12:01:32.677Z</time></trkpt><trkpt lat="43.3873391" lon="11.8322305"><ele>245.0</ele><time>2026-04-18T12:01:33.674Z</time></trkpt><trkpt lat="43.387233" lon="11.8322613"><ele>245.0</ele><time>2026-04-18T12:01:34.683Z</time></trkpt><trkpt lat="43.3871305" lon="11.8322946"><ele>245.0</ele><time>2026-04-18T12:01:35.692Z</time></trkpt><trkpt lat="43.3870359" lon="11.8323253"><ele>245.0</ele><time>2026-04-18T12:01:36.683Z</time></trkpt><trkpt lat="43.3869557" lon="11.8323468"><ele>244.85714285714286</ele><time>2026-04-18T12:01:37.7Z</time></trkpt><trkpt lat="43.3868881" lon="11.8323671"><ele>244.71428571428572</ele><time>2026-04-18T12:01:38.701Z</time></trkpt><trkpt lat="43.3868202" lon="11.8323952"><ele>244.57142857142856</ele><time>2026-04-18T12:01:39.677Z</time></trkpt><trkpt lat="43.3867452" lon="11.8324302"><ele>244.42857142857142</ele><time>2026-04-18T12:01:40.682Z</time></trkpt><trkpt lat="43.3866671" lon="11.8324617"><ele>244.28571428571428</ele><time>2026-04-18T12:01:41.7Z</time></trkpt><trkpt lat="43.3865942" lon="11.832495"><ele>244.1428571428571</ele><time>2026-04-18T12:01:42.682Z</time></trkpt><trkpt lat="43.386525" lon="11.8325201"><ele>243.99999999999997</ele><time>2026-04-18T12:01:43.68Z</time></trkpt><trkpt lat="43.3864583" lon="11.8325454"><ele>244.0</ele><time>2026-04-18T12:01:44.685Z</time></trkpt><trkpt lat="43.3863931" lon="11.8325634"><ele>243.99999999999997</ele><time>2026-04-18T12:01:45.687Z</time></trkpt><trkpt lat="43.3862743" lon="11.8325708"><ele>243.99999999999997</ele><time>2026-04-18T12:01:47.671Z</time></trkpt><trkpt lat="43.3861705" lon="11.8325292"><ele>244.0</ele><time>2026-04-18T12:01:49.683Z</time></trkpt><trkpt lat="43.3860833" lon="11.832494"><ele>244.0</ele><time>2026-04-18T12:01:51.683Z</time></trkpt><trkpt lat="43.3860082" lon="11.8324633"><ele>244.2</ele><time>2026-04-18T12:01:53.674Z</time></trkpt><trkpt lat="43.3859351" lon="11.8324223"><ele>244.39999999999998</ele><time>2026-04-18T12:01:55.671Z</time></trkpt><trkpt lat="43.385838" lon="11.8323887"><ele>244.6</ele><time>2026-04-18T12:01:57.688Z</time></trkpt><trkpt lat="43.3857365" lon="11.832349"><ele>244.8</ele><time>2026-04-18T12:01:59.667Z</time></trkpt><trkpt lat="43.3856407" lon="11.8323109"><ele>245.0</ele><time>2026-04-18T12:02:01.681Z</time></trkpt><trkpt lat="43.3855307" lon="11.8322672"><ele>245.66666666666669</ele><time>2026-04-18T12:02:03.668Z</time></trkpt><trkpt lat="43.3854659" lon="11.8322487"><ele>246.33333333333334</ele><time>2026-04-18T12:02:04.678Z</time></trkpt><trkpt lat="43.3853923" lon="11.8322259"><ele>247.0</ele><time>2026-04-18T12:02:05.682Z</time></trkpt><trkpt lat="43.3853155" lon="11.8321947"><ele>247.66666666666669</ele><time>2026-04-18T12:02:06.691Z</time></trkpt><trkpt lat="43.3852289" lon="11.8321606"><ele>248.33333333333334</ele><time>2026-04-18T12:02:07.663Z</time></trkpt><trkpt lat="43.3851339" lon="11.8321206"><ele>249.0</ele><time>2026-04-18T12:02:08.682Z</time></trkpt><trkpt lat="43.3850389" lon="11.8320793"><ele>249.0</ele><time>2026-04-18T12:02:09.675Z</time></trkpt><trkpt lat="43.3849428" lon="11.8320394"><ele>248.99999999999997</ele><time>2026-04-18T12:02:10.665Z</time></trkpt><trkpt lat="43.3848399" lon="11.831994"><ele>248.99999999999997</ele><time>2026-04-18T12:02:11.689Z</time></trkpt><trkpt lat="43.3847379" lon="11.8319525"><ele>249.0</ele><time>2026-04-18T12:02:12.677Z</time></trkpt><trkpt lat="43.3846312" lon="11.8319099"><ele>249.0</ele><time>2026-04-18T12:02:13.686Z</time></trkpt><trkpt lat="43.384528" lon="11.8318696"><ele>248.5</ele><time>2026-04-18T12:02:14.688Z</time></trkpt><trkpt lat="43.3844355" lon="11.8318335"><ele>248.0</ele><time>2026-04-18T12:02:15.68Z</time></trkpt><trkpt lat="43.3843504" lon="11.8318125"><ele>247.5</ele><time>2026-04-18T12:02:16.69Z</time></trkpt><trkpt lat="43.3842699" lon="11.8317909"><ele>247.0</ele><time>2026-04-18T12:02:17.685Z</time></trkpt><trkpt lat="43.3841961" lon="11.8317713"><ele>246.5</ele><time>2026-04-18T12:02:18.686Z</time></trkpt><trkpt lat="43.3841238" lon="11.8317504"><ele>246.0</ele><time>2026-04-18T12:02:19.687Z</time></trkpt><trkpt lat="43.384044" lon="11.8317382"><ele>245.8571428571429</ele><time>2026-04-18T12:02:20.677Z</time></trkpt><trkpt lat="43.3839665" lon="11.831733"><ele>245.71428571428572</ele><time>2026-04-18T12:02:21.69Z</time></trkpt><trkpt lat="43.3838935" lon="11.8317165"><ele>245.57142857142858</ele><time>2026-04-18T12:02:22.683Z</time></trkpt><trkpt lat="43.3838213" lon="11.8317129"><ele>245.42857142857144</ele><time>2026-04-18T12:02:23.682Z</time></trkpt><trkpt lat="43.3837535" lon="11.8317155"><ele>245.28571428571428</ele><time>2026-04-18T12:02:24.688Z</time></trkpt><trkpt lat="43.38369" lon="11.8317327"><ele>245.14285714285714</ele><time>2026-04-18T12:02:25.67Z</time></trkpt><trkpt lat="43.3836258" lon="11.8317535"><ele>245.0</ele><time>2026-04-18T12:02:26.678Z</time></trkpt><trkpt lat="43.3835626" lon="11.831785"><ele>245.33333333333334</ele><time>2026-04-18T12:02:27.686Z</time></trkpt><trkpt lat="43.3835" lon="11.8318234"><ele>245.66666666666669</ele><time>2026-04-18T12:02:28.677Z</time></trkpt><trkpt lat="43.3834339" lon="11.8318631"><ele>246.0</ele><time>2026-04-18T12:02:29.692Z</time></trkpt><trkpt lat="43.3833623" lon="11.831898"><ele>246.33333333333331</ele><time>2026-04-18T12:02:30.688Z</time></trkpt><trkpt lat="43.3832905" lon="11.8319254"><ele>246.66666666666666</ele><time>2026-04-18T12:02:31.672Z</time></trkpt><trkpt lat="43.3832122" lon="11.8319493"><ele>247.0</ele><time>2026-04-18T12:02:32.685Z</time></trkpt><trkpt lat="43.3831338" lon="11.831976"><ele>247.0</ele><time>2026-04-18T12:02:33.68Z</time></trkpt><trkpt lat="43.3830555" lon="11.8320013"><ele>247.0</ele><time>2026-04-18T12:02:34.681Z</time></trkpt><trkpt lat="43.3829867" lon="11.8320313"><ele>247.0</ele><time>2026-04-18T12:02:35.685Z</time></trkpt><trkpt lat="43.3829229" lon="11.8320544"><ele>247.0</ele><time>2026-04-18T12:02:36.677Z</time></trkpt><trkpt lat="43.3828541" lon="11.8320779"><ele>247.0</ele><time>2026-04-18T12:02:37.686Z</time></trkpt><trkpt lat="43.3827884" lon="11.8321031"><ele>247.0</ele><time>2026-04-18T12:02:38.668Z</time></trkpt><trkpt lat="43.382724" lon="11.8321301"><ele>247.0</ele><time>2026-04-18T12:02:39.679Z</time></trkpt><trkpt lat="43.3826575" lon="11.8321597"><ele>247.0</ele><time>2026-04-18T12:02:40.693Z</time></trkpt><trkpt lat="43.3825895" lon="11.8321875"><ele>247.0</ele><time>2026-04-18T12:02:41.681Z</time></trkpt><trkpt lat="43.3825151" lon="11.8322099"><ele>247.0</ele><time>2026-04-18T12:02:42.674Z</time></trkpt><trkpt lat="43.3824439" lon="11.8322282"><ele>247.0</ele><time>2026-04-18T12:02:43.673Z</time></trkpt><trkpt lat="43.3823712" lon="11.8322391"><ele>247.0</ele><time>2026-04-18T12:02:44.691Z</time></trkpt><trkpt lat="43.3822977" lon="11.8322409"><ele>247.0</ele><time>2026-04-18T12:02:45.677Z</time></trkpt><trkpt lat="43.3822222" lon="11.8322464"><ele>247.0</ele><time>2026-04-18T12:02:46.681Z</time></trkpt><trkpt lat="43.3821455" lon="11.8322461"><ele>246.99999999999997</ele><time>2026-04-18T12:02:47.685Z</time></trkpt><trkpt lat="43.3820645" lon="11.8322489"><ele>247.0</ele><time>2026-04-18T12:02:48.675Z</time></trkpt><trkpt lat="43.3819831" lon="11.8322507"><ele>247.0</ele><time>2026-04-18T12:02:49.691Z</time></trkpt><trkpt lat="43.3819114" lon="11.8322562"><ele>247.0</ele><time>2026-04-18T12:02:50.687Z</time></trkpt><trkpt lat="43.3818475" lon="11.8322566"><ele>246.99999999999997</ele><time>2026-04-18T12:02:51.688Z</time></trkpt><trkpt lat="43.3817275" lon="11.8322538"><ele>247.0</ele><time>2026-04-18T12:02:53.685Z</time></trkpt><trkpt lat="43.3815992" lon="11.8322442"><ele>247.0</ele><time>2026-04-18T12:02:55.688Z</time></trkpt><trkpt lat="43.381527" lon="11.8322476"><ele>247.0</ele><time>2026-04-18T12:02:56.68Z</time></trkpt><trkpt lat="43.3814588" lon="11.8322466"><ele>247.0</ele><time>2026-04-18T12:02:57.683Z</time></trkpt><trkpt lat="43.3813876" lon="11.8322471"><ele>247.0</ele><time>2026-04-18T12:02:58.686Z</time></trkpt><trkpt lat="43.3813149" lon="11.8322475"><ele>247.0</ele><time>2026-04-18T12:02:59.677Z</time></trkpt><trkpt lat="43.3812413" lon="11.8322509"><ele>247.0</ele><time>2026-04-18T12:03:00.682Z</time></trkpt><trkpt lat="43.3811672" lon="11.8322567"><ele>247.0</ele><time>2026-04-18T12:03:01.673Z</time></trkpt><trkpt lat="43.3810902" lon="11.8322682"><ele>246.83333333333331</ele><time>2026-04-18T12:03:02.668Z</time></trkpt><trkpt lat="43.381021" lon="11.8322842"><ele>246.66666666666666</ele><time>2026-04-18T12:03:03.678Z</time></trkpt><trkpt lat="43.380942" lon="11.8323085"><ele>246.5</ele><time>2026-04-18T12:03:04.673Z</time></trkpt><trkpt lat="43.3808558" lon="11.8323292"><ele>246.33333333333331</ele><time>2026-04-18T12:03:05.678Z</time></trkpt><trkpt lat="43.3807632" lon="11.8323538"><ele>246.16666666666666</ele><time>2026-04-18T12:03:06.678Z</time></trkpt><trkpt lat="43.3806661" lon="11.8323757"><ele>246.0</ele><time>2026-04-18T12:03:07.678Z</time></trkpt><trkpt lat="43.3805651" lon="11.8323958"><ele>245.8</ele><time>2026-04-18T12:03:08.692Z</time></trkpt><trkpt lat="43.3804722" lon="11.8324064"><ele>245.60000000000002</ele><time>2026-04-18T12:03:09.663Z</time></trkpt><trkpt lat="43.3803667" lon="11.8324031"><ele>245.4</ele><time>2026-04-18T12:03:10.679Z</time></trkpt><trkpt lat="43.3802555" lon="11.8323993"><ele>245.2</ele><time>2026-04-18T12:03:11.678Z</time></trkpt><trkpt lat="43.3801465" lon="11.8323928"><ele>245.0</ele><time>2026-04-18T12:03:12.678Z</time></trkpt><trkpt lat="43.3800416" lon="11.8323892"><ele>245.0</ele><time>2026-04-18T12:03:13.679Z</time></trkpt><trkpt lat="43.3799358" lon="11.8323833"><ele>245.0</ele><time>2026-04-18T12:03:14.67Z</time></trkpt><trkpt lat="43.3798309" lon="11.8323779"><ele>245.0</ele><time>2026-04-18T12:03:15.686Z</time></trkpt><trkpt lat="43.3797277" lon="11.8323708"><ele>245.0</ele><time>2026-04-18T12:03:16.683Z</time></trkpt><trkpt lat="43.3796269" lon="11.8323611"><ele>245.0</ele><time>2026-04-18T12:03:17.684Z</time></trkpt><trkpt lat="43.3795232" lon="11.8323558"><ele>245.0</ele><time>2026-04-18T12:03:18.671Z</time></trkpt><trkpt lat="43.3794124" lon="11.8323524"><ele>245.0</ele><time>2026-04-18T12:03:19.675Z</time></trkpt><trkpt lat="43.3793003" lon="11.8323498"><ele>245.0</ele><time>2026-04-18T12:03:20.674Z</time></trkpt><trkpt lat="43.3791888" lon="11.8323413"><ele>245.0</ele><time>2026-04-18T12:03:21.686Z</time></trkpt><trkpt lat="43.3790774" lon="11.8323343"><ele>245.0</ele><time>2026-04-18T12:03:22.685Z</time></trkpt><trkpt lat="43.3789613" lon="11.8323278"><ele>245.0</ele><time>2026-04-18T12:03:23.671Z</time></trkpt><trkpt lat="43.3788454" lon="11.8323228"><ele>245.0</ele><time>2026-04-18T12:03:24.681Z</time></trkpt><trkpt lat="43.3787287" lon="11.8323189"><ele>245.0</ele><time>2026-04-18T12:03:25.682Z</time></trkpt><trkpt lat="43.378613" lon="11.8323164"><ele>245.0</ele><time>2026-04-18T12:03:26.681Z</time></trkpt><trkpt lat="43.3784972" lon="11.8323137"><ele>245.0</ele><time>2026-04-18T12:03:27.685Z</time></trkpt><trkpt lat="43.3783825" lon="11.8323029"><ele>245.0</ele><time>2026-04-18T12:03:28.678Z</time></trkpt><trkpt lat="43.3782772" lon="11.8322926"><ele>245.0</ele><time>2026-04-18T12:03:29.687Z</time></trkpt><trkpt lat="43.3781708" lon="11.8322803"><ele>245.0</ele><time>2026-04-18T12:03:30.687Z</time></trkpt><trkpt lat="43.3780772" lon="11.8322762"><ele>245.0</ele><time>2026-04-18T12:03:31.68Z</time></trkpt><trkpt lat="43.3779905" lon="11.8322751"><ele>244.83333333333334</ele><time>2026-04-18T12:03:32.686Z</time></trkpt><trkpt lat="43.3779126" lon="11.8322751"><ele>244.66666666666669</ele><time>2026-04-18T12:03:33.67Z</time></trkpt><trkpt lat="43.3778438" lon="11.8322741"><ele>244.5</ele><time>2026-04-18T12:03:34.665Z</time></trkpt><trkpt lat="43.3777364" lon="11.8322684"><ele>244.33333333333331</ele><time>2026-04-18T12:03:36.681Z</time></trkpt><trkpt lat="43.3776741" lon="11.8323265"><ele>244.16666666666666</ele><time>2026-04-18T12:03:38.683Z</time></trkpt><trkpt lat="43.3776538" lon="11.8324326"><ele>244.0</ele><time>2026-04-18T12:03:40.68Z</time></trkpt><trkpt lat="43.3776655" lon="11.8325736"><ele>244.0</ele><time>2026-04-18T12:03:42.68Z</time></trkpt><trkpt lat="43.3776993" lon="11.8327591"><ele>243.99999999999997</ele><time>2026-04-18T12:03:44.69Z</time></trkpt><trkpt lat="43.3777156" lon="11.8328781"><ele>243.99999999999997</ele><time>2026-04-18T12:03:45.686Z</time></trkpt><trkpt lat="43.3777375" lon="11.8330155"><ele>244.0</ele><time>2026-04-18T12:03:46.692Z</time></trkpt><trkpt lat="43.3777606" lon="11.8331623"><ele>244.0</ele><time>2026-04-18T12:03:47.67Z</time></trkpt><trkpt lat="43.377779" lon="11.8332995"><ele>244.0</ele><time>2026-04-18T12:03:48.676Z</time></trkpt><trkpt lat="43.3778004" lon="11.8334436"><ele>243.99999999999997</ele><time>2026-04-18T12:03:49.681Z</time></trkpt><trkpt lat="43.3778217" lon="11.8335888"><ele>243.99999999999997</ele><time>2026-04-18T12:03:50.686Z</time></trkpt><trkpt lat="43.3778429" lon="11.8337334"><ele>244.0</ele><time>2026-04-18T12:03:51.684Z</time></trkpt><trkpt lat="43.3778599" lon="11.8338778"><ele>244.0</ele><time>2026-04-18T12:03:52.674Z</time></trkpt><trkpt lat="43.3778803" lon="11.8340138"><ele>244.0</ele><time>2026-04-18T12:03:53.678Z</time></trkpt><trkpt lat="43.3779023" lon="11.834157"><ele>243.99999999999997</ele><time>2026-04-18T12:03:54.676Z</time></trkpt><trkpt lat="43.3779224" lon="11.8342933"><ele>243.99999999999997</ele><time>2026-04-18T12:03:55.68Z</time></trkpt><trkpt lat="43.3779424" lon="11.8344273"><ele>244.0</ele><time>2026-04-18T12:03:56.684Z</time></trkpt><trkpt lat="43.3779609" lon="11.834564"><ele>244.0</ele><time>2026-04-18T12:03:57.682Z</time></trkpt><trkpt lat="43.3779808" lon="11.8347013"><ele>244.33333333333331</ele><time>2026-04-18T12:03:58.685Z</time></trkpt><trkpt lat="43.3780024" lon="11.8348317"><ele>244.66666666666666</ele><time>2026-04-18T12:03:59.685Z</time></trkpt><trkpt lat="43.3780248" lon="11.8349444"><ele>245.0</ele><time>2026-04-18T12:04:00.683Z</time></trkpt><trkpt lat="43.3780394" lon="11.835043"><ele>245.33333333333331</ele><time>2026-04-18T12:04:01.684Z</time></trkpt><trkpt lat="43.3780442" lon="11.8351324"><ele>245.66666666666666</ele><time>2026-04-18T12:04:02.683Z</time></trkpt><trkpt lat="43.3780493" lon="11.835297"><ele>246.0</ele><time>2026-04-18T12:04:04.677Z</time></trkpt><trkpt lat="43.3780678" lon="11.83538"><ele>246.0</ele><time>2026-04-18T12:04:05.686Z</time></trkpt><trkpt lat="43.3780872" lon="11.8354735"><ele>246.0</ele><time>2026-04-18T12:04:06.672Z</time></trkpt><trkpt lat="43.378112" lon="11.8355903"><ele>246.0</ele><time>2026-04-18T12:04:07.687Z</time></trkpt><trkpt lat="43.3781276" lon="11.8357121"><ele>246.0</ele><time>2026-04-18T12:04:08.686Z</time></trkpt><trkpt lat="43.3781358" lon="11.8358236"><ele>246.0</ele><time>2026-04-18T12:04:09.68Z</time></trkpt><trkpt lat="43.3781462" lon="11.8359272"><ele>246.0</ele><time>2026-04-18T12:04:10.689Z</time></trkpt><trkpt lat="43.378163" lon="11.8360416"><ele>246.0</ele><time>2026-04-18T12:04:11.679Z</time></trkpt><trkpt lat="43.378182" lon="11.8361581"><ele>246.00000000000003</ele><time>2026-04-18T12:04:12.677Z</time></trkpt><trkpt lat="43.3782029" lon="11.8362793"><ele>246.00000000000003</ele><time>2026-04-18T12:04:13.689Z</time></trkpt><trkpt lat="43.3782219" lon="11.8364102"><ele>246.0</ele><time>2026-04-18T12:04:14.688Z</time></trkpt><trkpt lat="43.3782397" lon="11.8365483"><ele>246.0</ele><time>2026-04-18T12:04:15.683Z</time></trkpt><trkpt lat="43.3782597" lon="11.8366901"><ele>246.0</ele><time>2026-04-18T12:04:16.683Z</time></trkpt><trkpt lat="43.3782755" lon="11.836831"><ele>246.00000000000003</ele><time>2026-04-18T12:04:17.665Z</time></trkpt><trkpt lat="43.3782952" lon="11.8369677"><ele>246.00000000000003</ele><time>2026-04-18T12:04:18.685Z</time></trkpt><trkpt lat="43.3783131" lon="11.837102"><ele>246.0</ele><time>2026-04-18T12:04:19.679Z</time></trkpt><trkpt lat="43.3783333" lon="11.8372392"><ele>246.0</ele><time>2026-04-18T12:04:20.688Z</time></trkpt><trkpt lat="43.378353" lon="11.8373663"><ele>246.0</ele><time>2026-04-18T12:04:21.685Z</time></trkpt><trkpt lat="43.3783713" lon="11.8374906"><ele>246.0</ele><time>2026-04-18T12:04:22.686Z</time></trkpt><trkpt lat="43.3783883" lon="11.8376148"><ele>246.0</ele><time>2026-04-18T12:04:23.679Z</time></trkpt><trkpt lat="43.3784064" lon="11.8377332"><ele>246.0</ele><time>2026-04-18T12:04:24.669Z</time></trkpt><trkpt lat="43.3784196" lon="11.837839"><ele>246.0</ele><time>2026-04-18T12:04:25.674Z</time></trkpt><trkpt lat="43.3784312" lon="11.8379255"><ele>246.0</ele><time>2026-04-18T12:04:26.685Z</time></trkpt><trkpt lat="43.3784601" lon="11.8380757"><ele>246.0</ele><time>2026-04-18T12:04:28.68Z</time></trkpt><trkpt lat="43.3784808" lon="11.8381653"><ele>246.0</ele><time>2026-04-18T12:04:29.684Z</time></trkpt><trkpt lat="43.3785101" lon="11.8382608"><ele>246.0</ele><time>2026-04-18T12:04:30.684Z</time></trkpt><trkpt lat="43.3785376" lon="11.8383669"><ele>246.0</ele><time>2026-04-18T12:04:31.677Z</time></trkpt><trkpt lat="43.3785711" lon="11.8384726"><ele>246.0</ele><time>2026-04-18T12:04:32.696Z</time></trkpt><trkpt lat="43.3786017" lon="11.8385893"><ele>246.0</ele><time>2026-04-18T12:04:33.674Z</time></trkpt><trkpt lat="43.3786352" lon="11.8386969"><ele>246.0</ele><time>2026-04-18T12:04:34.677Z</time></trkpt><trkpt lat="43.3786611" lon="11.8388025"><ele>246.0</ele><time>2026-04-18T12:04:35.685Z</time></trkpt><trkpt lat="43.3786901" lon="11.8389139"><ele>246.0</ele><time>2026-04-18T12:04:36.679Z</time></trkpt><trkpt lat="43.3787187" lon="11.8390159"><ele>246.0</ele><time>2026-04-18T12:04:37.68Z</time></trkpt><trkpt lat="43.3787447" lon="11.8391214"><ele>246.0</ele><time>2026-04-18T12:04:38.681Z</time></trkpt><trkpt lat="43.3787767" lon="11.8392217"><ele>246.0</ele><time>2026-04-18T12:04:39.671Z</time></trkpt><trkpt lat="43.3788079" lon="11.8393262"><ele>246.0</ele><time>2026-04-18T12:04:40.684Z</time></trkpt><trkpt lat="43.3788394" lon="11.839434"><ele>246.0</ele><time>2026-04-18T12:04:41.666Z</time></trkpt><trkpt lat="43.3788707" lon="11.8395407"><ele>246.0</ele><time>2026-04-18T12:04:42.684Z</time></trkpt><trkpt lat="43.3789019" lon="11.8396531"><ele>246.0</ele><time>2026-04-18T12:04:43.678Z</time></trkpt><trkpt lat="43.3789329" lon="11.8397704"><ele>246.0</ele><time>2026-04-18T12:04:44.696Z</time></trkpt><trkpt lat="43.3789666" lon="11.8398914"><ele>246.0</ele><time>2026-04-18T12:04:45.667Z</time></trkpt><trkpt lat="43.3789981" lon="11.8400156"><ele>246.16666666666666</ele><time>2026-04-18T12:04:46.683Z</time></trkpt><trkpt lat="43.3790311" lon="11.8401401"><ele>246.33333333333331</ele><time>2026-04-18T12:04:47.686Z</time></trkpt><trkpt lat="43.3790625" lon="11.8402603"><ele>246.5</ele><time>2026-04-18T12:04:48.687Z</time></trkpt><trkpt lat="43.3790892" lon="11.8403677"><ele>246.66666666666666</ele><time>2026-04-18T12:04:49.672Z</time></trkpt><trkpt lat="43.3791183" lon="11.8404762"><ele>246.83333333333331</ele><time>2026-04-18T12:04:50.682Z</time></trkpt><trkpt lat="43.3791442" lon="11.8405762"><ele>247.0</ele><time>2026-04-18T12:04:51.683Z</time></trkpt><trkpt lat="43.3791645" lon="11.8406617"><ele>247.0</ele><time>2026-04-18T12:04:52.691Z</time></trkpt><trkpt lat="43.3792043" lon="11.8408172"><ele>247.0</ele><time>2026-04-18T12:04:54.681Z</time></trkpt><trkpt lat="43.3792418" lon="11.8409428"><ele>247.0</ele><time>2026-04-18T12:04:56.678Z</time></trkpt><trkpt lat="43.3792749" lon="11.8410363"><ele>247.0</ele><time>2026-04-18T12:04:58.682Z</time></trkpt><trkpt lat="43.3793011" lon="11.8411316"><ele>247.0</ele><time>2026-04-18T12:06:03.672Z</time></trkpt><trkpt lat="43.379348" lon="11.8412509"><ele>247.0</ele><time>2026-04-18T12:06:05.679Z</time></trkpt><trkpt lat="43.379376" lon="11.8413624"><ele>247.0</ele><time>2026-04-18T12:06:06.683Z</time></trkpt><trkpt lat="43.3794081" lon="11.8415131"><ele>247.0</ele><time>2026-04-18T12:06:07.686Z</time></trkpt><trkpt lat="43.3794279" lon="11.8416775"><ele>247.0</ele><time>2026-04-18T12:06:08.68Z</time></trkpt><trkpt lat="43.3794464" lon="11.8418432"><ele>247.0</ele><time>2026-04-18T12:06:09.681Z</time></trkpt><trkpt lat="43.3794682" lon="11.8419902"><ele>247.0</ele><time>2026-04-18T12:06:10.683Z</time></trkpt><trkpt lat="43.3795013" lon="11.8421257"><ele>247.0</ele><time>2026-04-18T12:06:11.687Z</time></trkpt><trkpt lat="43.3795461" lon="11.8422661"><ele>247.0</ele><time>2026-04-18T12:06:12.671Z</time></trkpt><trkpt lat="43.3796011" lon="11.8424074"><ele>247.0</ele><time>2026-04-18T12:06:13.69Z</time></trkpt><trkpt lat="43.3796606" lon="11.8425607"><ele>247.0</ele><time>2026-04-18T12:06:14.682Z</time></trkpt><trkpt lat="43.379729" lon="11.842728"><ele>247.0</ele><time>2026-04-18T12:06:15.67Z</time></trkpt><trkpt lat="43.3797903" lon="11.8428891"><ele>247.0</ele><time>2026-04-18T12:06:16.672Z</time></trkpt><trkpt lat="43.3798459" lon="11.8430378"><ele>247.0</ele><time>2026-04-18T12:06:17.67Z</time></trkpt><trkpt lat="43.3799075" lon="11.8431873"><ele>247.0</ele><time>2026-04-18T12:06:18.678Z</time></trkpt><trkpt lat="43.3799784" lon="11.8433411"><ele>247.0</ele><time>2026-04-18T12:06:19.671Z</time></trkpt><trkpt lat="43.3800558" lon="11.8434917"><ele>247.0</ele><time>2026-04-18T12:06:20.692Z</time></trkpt><trkpt lat="43.3801348" lon="11.8436519"><ele>247.0</ele><time>2026-04-18T12:06:21.681Z</time></trkpt><trkpt lat="43.3802179" lon="11.8438179"><ele>247.0</ele><time>2026-04-18T12:06:22.685Z</time></trkpt><trkpt lat="43.3802911" lon="11.843975"><ele>247.0</ele><time>2026-04-18T12:06:23.692Z</time></trkpt><trkpt lat="43.3803557" lon="11.8441138"><ele>247.0</ele><time>2026-04-18T12:06:24.685Z</time></trkpt><trkpt lat="43.3804146" lon="11.8442525"><ele>247.0</ele><time>2026-04-18T12:06:25.687Z</time></trkpt><trkpt lat="43.3804739" lon="11.8443845"><ele>247.2</ele><time>2026-04-18T12:06:26.692Z</time></trkpt><trkpt lat="43.3805247" lon="11.8445234"><ele>247.39999999999998</ele><time>2026-04-18T12:06:27.68Z</time></trkpt><trkpt lat="43.3805703" lon="11.8446435"><ele>247.60000000000002</ele><time>2026-04-18T12:06:28.669Z</time></trkpt><trkpt lat="43.3806171" lon="11.8447515"><ele>247.8</ele><time>2026-04-18T12:06:29.679Z</time></trkpt><trkpt lat="43.3806496" lon="11.8448418"><ele>248.0</ele><time>2026-04-18T12:06:30.669Z</time></trkpt><trkpt lat="43.3806967" lon="11.8449659"><ele>248.00000000000003</ele><time>2026-04-18T12:06:32.682Z</time></trkpt><trkpt lat="43.3807117" lon="11.8450504"><ele>248.0</ele><time>2026-04-18T12:06:36.67Z</time></trkpt><trkpt lat="43.3807533" lon="11.845196"><ele>248.0</ele><time>2026-04-18T12:06:39.681Z</time></trkpt><trkpt lat="43.3807835" lon="11.8452786"><ele>248.0</ele><time>2026-04-18T12:06:40.67Z</time></trkpt><trkpt lat="43.3808145" lon="11.8453846"><ele>248.00000000000003</ele><time>2026-04-18T12:06:41.675Z</time></trkpt><trkpt lat="43.3808476" lon="11.8454959"><ele>248.0</ele><time>2026-04-18T12:06:42.678Z</time></trkpt><trkpt lat="43.3808924" lon="11.8456113"><ele>248.60000000000002</ele><time>2026-04-18T12:06:43.677Z</time></trkpt><trkpt lat="43.3809344" lon="11.8457258"><ele>249.20000000000002</ele><time>2026-04-18T12:06:44.668Z</time></trkpt><trkpt lat="43.3809807" lon="11.8458465"><ele>249.8</ele><time>2026-04-18T12:06:45.68Z</time></trkpt><trkpt lat="43.381027" lon="11.8459584"><ele>250.4</ele><time>2026-04-18T12:06:46.676Z</time></trkpt><trkpt lat="43.3810737" lon="11.8460593"><ele>251.0</ele><time>2026-04-18T12:06:47.679Z</time></trkpt><trkpt lat="43.3811174" lon="11.8461507"><ele>251.00000000000003</ele><time>2026-04-18T12:06:48.671Z</time></trkpt><trkpt lat="43.3811596" lon="11.8462329"><ele>251.0</ele><time>2026-04-18T12:06:49.682Z</time></trkpt><trkpt lat="43.3812065" lon="11.846311"><ele>251.0</ele><time>2026-04-18T12:06:50.667Z</time></trkpt><trkpt lat="43.3812569" lon="11.8463928"><ele>251.0</ele><time>2026-04-18T12:06:51.673Z</time></trkpt><trkpt lat="43.3813099" lon="11.8464688"><ele>251.00000000000003</ele><time>2026-04-18T12:06:52.668Z</time></trkpt><trkpt lat="43.3813683" lon="11.8465396"><ele>251.0</ele><time>2026-04-18T12:06:53.679Z</time></trkpt><trkpt lat="43.3814319" lon="11.8466043"><ele>251.20000000000002</ele><time>2026-04-18T12:06:54.672Z</time></trkpt><trkpt lat="43.3814922" lon="11.8466673"><ele>251.40000000000003</ele><time>2026-04-18T12:06:55.674Z</time></trkpt><trkpt lat="43.381568" lon="11.8467393"><ele>251.6</ele><time>2026-04-18T12:06:57.686Z</time></trkpt><trkpt lat="43.3816361" lon="11.8468492"><ele>251.8</ele><time>2026-04-18T12:07:05.669Z</time></trkpt><trkpt lat="43.3817149" lon="11.8469751"><ele>252.0</ele><time>2026-04-18T12:07:07.674Z</time></trkpt><trkpt lat="43.3817748" lon="11.8471036"><ele>252.0</ele><time>2026-04-18T12:07:09.679Z</time></trkpt><trkpt lat="43.3818059" lon="11.8471833"><ele>252.0</ele><time>2026-04-18T12:07:11.67Z</time></trkpt><trkpt lat="43.3817553" lon="11.8472664"><ele>252.0</ele><time>2026-04-18T12:07:15.685Z</time></trkpt><trkpt lat="43.3816491" lon="11.8472933"><ele>252.0</ele><time>2026-04-18T12:07:17.678Z</time></trkpt><trkpt lat="43.3815783" lon="11.8473227"><ele>252.0</ele><time>2026-04-18T12:07:18.68Z</time></trkpt><trkpt lat="43.3814981" lon="11.8473502"><ele>252.0</ele><time>2026-04-18T12:07:19.669Z</time></trkpt><trkpt lat="43.3814155" lon="11.8473767"><ele>252.0</ele><time>2026-04-18T12:07:20.679Z</time></trkpt><trkpt lat="43.3813325" lon="11.847408"><ele>252.0</ele><time>2026-04-18T12:07:21.676Z</time></trkpt><trkpt lat="43.3812529" lon="11.8474426"><ele>252.0</ele><time>2026-04-18T12:07:22.672Z</time></trkpt><trkpt lat="43.3811718" lon="11.8474777"><ele>252.0</ele><time>2026-04-18T12:07:23.684Z</time></trkpt><trkpt lat="43.3810887" lon="11.847506"><ele>252.0</ele><time>2026-04-18T12:07:24.676Z</time></trkpt><trkpt lat="43.3810015" lon="11.8475326"><ele>252.0</ele><time>2026-04-18T12:07:25.67Z</time></trkpt><trkpt lat="43.3809052" lon="11.8475657"><ele>252.0</ele><time>2026-04-18T12:07:26.673Z</time></trkpt><trkpt lat="43.3808064" lon="11.8475942"><ele>252.0</ele><time>2026-04-18T12:07:27.669Z</time></trkpt><trkpt lat="43.3807179" lon="11.8476295"><ele>252.0</ele><time>2026-04-18T12:07:28.695Z</time></trkpt><trkpt lat="43.3806321" lon="11.8476683"><ele>252.0</ele><time>2026-04-18T12:07:29.664Z</time></trkpt><trkpt lat="43.3805462" lon="11.847698"><ele>252.0</ele><time>2026-04-18T12:07:30.671Z</time></trkpt><trkpt lat="43.3804611" lon="11.8477214"><ele>252.16666666666666</ele><time>2026-04-18T12:07:31.669Z</time></trkpt><trkpt lat="43.3803758" lon="11.8477506"><ele>252.33333333333331</ele><time>2026-04-18T12:07:32.679Z</time></trkpt><trkpt lat="43.380291" lon="11.8477787"><ele>252.5</ele><time>2026-04-18T12:07:33.668Z</time></trkpt><trkpt lat="43.3802097" lon="11.8478086"><ele>252.66666666666666</ele><time>2026-04-18T12:07:34.676Z</time></trkpt><trkpt lat="43.3801272" lon="11.8478408"><ele>252.83333333333331</ele><time>2026-04-18T12:07:35.672Z</time></trkpt><trkpt lat="43.3800489" lon="11.8478736"><ele>253.0</ele><time>2026-04-18T12:07:36.67Z</time></trkpt><trkpt lat="43.3799673" lon="11.8478996"><ele>253.0</ele><time>2026-04-18T12:07:37.682Z</time></trkpt><trkpt lat="43.3798849" lon="11.8479298"><ele>253.0</ele><time>2026-04-18T12:07:38.686Z</time></trkpt><trkpt lat="43.3797989" lon="11.8479611"><ele>253.0</ele><time>2026-04-18T12:07:39.67Z</time></trkpt><trkpt lat="43.3797114" lon="11.8479891"><ele>253.0</ele><time>2026-04-18T12:07:40.682Z</time></trkpt><trkpt lat="43.3796186" lon="11.8480243"><ele>253.0</ele><time>2026-04-18T12:07:41.677Z</time></trkpt><trkpt lat="43.3795238" lon="11.8480513"><ele>253.60000000000002</ele><time>2026-04-18T12:07:42.669Z</time></trkpt><trkpt lat="43.3794314" lon="11.8480835"><ele>254.20000000000002</ele><time>2026-04-18T12:07:43.672Z</time></trkpt><trkpt lat="43.3793396" lon="11.8481089"><ele>254.8</ele><time>2026-04-18T12:07:44.678Z</time></trkpt><trkpt lat="43.3792455" lon="11.8481376"><ele>255.4</ele><time>2026-04-18T12:07:45.672Z</time></trkpt><trkpt lat="43.3791512" lon="11.8481652"><ele>256.0</ele><time>2026-04-18T12:07:46.667Z</time></trkpt><trkpt lat="43.3790638" lon="11.8481958"><ele>255.99999999999997</ele><time>2026-04-18T12:07:47.669Z</time></trkpt><trkpt lat="43.3789735" lon="11.8482298"><ele>256.0</ele><time>2026-04-18T12:07:48.672Z</time></trkpt><trkpt lat="43.3788906" lon="11.8482569"><ele>256.0</ele><time>2026-04-18T12:07:49.663Z</time></trkpt><trkpt lat="43.3788102" lon="11.8482831"><ele>256.0</ele><time>2026-04-18T12:07:50.69Z</time></trkpt><trkpt lat="43.3787301" lon="11.8483125"><ele>255.99999999999997</ele><time>2026-04-18T12:07:51.678Z</time></trkpt><trkpt lat="43.3786515" lon="11.84834"><ele>256.0</ele><time>2026-04-18T12:07:52.671Z</time></trkpt><trkpt lat="43.378572" lon="11.8483719"><ele>255.83333333333331</ele><time>2026-04-18T12:07:53.676Z</time></trkpt><trkpt lat="43.3784826" lon="11.8484055"><ele>255.66666666666666</ele><time>2026-04-18T12:07:54.689Z</time></trkpt><trkpt lat="43.3784008" lon="11.8484352"><ele>255.5</ele><time>2026-04-18T12:07:55.68Z</time></trkpt><trkpt lat="43.3783208" lon="11.848468"><ele>255.33333333333331</ele><time>2026-04-18T12:07:56.68Z</time></trkpt><trkpt lat="43.3782448" lon="11.8485063"><ele>255.16666666666666</ele><time>2026-04-18T12:07:57.676Z</time></trkpt><trkpt lat="43.3781665" lon="11.8485312"><ele>255.0</ele><time>2026-04-18T12:07:58.687Z</time></trkpt><trkpt lat="43.3780889" lon="11.8485492"><ele>254.83333333333334</ele><time>2026-04-18T12:07:59.67Z</time></trkpt><trkpt lat="43.3780131" lon="11.8485774"><ele>254.66666666666669</ele><time>2026-04-18T12:08:00.678Z</time></trkpt><trkpt lat="43.3779452" lon="11.8486061"><ele>254.5</ele><time>2026-04-18T12:08:01.678Z</time></trkpt><trkpt lat="43.3778798" lon="11.8486288"><ele>254.33333333333334</ele><time>2026-04-18T12:08:02.68Z</time></trkpt><trkpt lat="43.3777713" lon="11.8486637"><ele>254.16666666666669</ele><time>2026-04-18T12:08:04.681Z</time></trkpt><trkpt lat="43.3776923" lon="11.8486861"><ele>254.0</ele><time>2026-04-18T12:08:06.673Z</time></trkpt><trkpt lat="43.3776082" lon="11.8487059"><ele>254.00000000000003</ele><time>2026-04-18T12:08:09.669Z</time></trkpt><trkpt lat="43.3775381" lon="11.8487377"><ele>254.0</ele><time>2026-04-18T12:08:19.68Z</time></trkpt><trkpt lat="43.3774787" lon="11.848768"><ele>254.0</ele><time>2026-04-18T12:08:21.682Z</time></trkpt><trkpt lat="43.3773913" lon="11.8487939"><ele>254.0</ele><time>2026-04-18T12:08:23.684Z</time></trkpt><trkpt lat="43.3772984" lon="11.8488351"><ele>254.00000000000003</ele><time>2026-04-18T12:08:25.67Z</time></trkpt><trkpt lat="43.3772099" lon="11.8488689"><ele>254.0</ele><time>2026-04-18T12:08:27.684Z</time></trkpt><trkpt lat="43.3771273" lon="11.8488961"><ele>254.6</ele><time>2026-04-18T12:08:29.673Z</time></trkpt><trkpt lat="43.3770343" lon="11.8489234"><ele>255.2</ele><time>2026-04-18T12:08:31.685Z</time></trkpt><trkpt lat="43.3769354" lon="11.8489599"><ele>255.79999999999998</ele><time>2026-04-18T12:08:33.683Z</time></trkpt><trkpt lat="43.3768284" lon="11.8489982"><ele>256.4</ele><time>2026-04-18T12:08:35.685Z</time></trkpt><trkpt lat="43.3767492" lon="11.8490072"><ele>257.0</ele><time>2026-04-18T12:08:38.683Z</time></trkpt><trkpt lat="43.3766831" lon="11.8490223"><ele>257.0</ele><time>2026-04-18T12:08:51.685Z</time></trkpt><trkpt lat="43.3766194" lon="11.8490633"><ele>257.0</ele><time>2026-04-18T12:08:53.676Z</time></trkpt><trkpt lat="43.376536" lon="11.8491053"><ele>257.0</ele><time>2026-04-18T12:08:55.672Z</time></trkpt><trkpt lat="43.3764297" lon="11.8491396"><ele>257.0</ele><time>2026-04-18T12:08:57.672Z</time></trkpt><trkpt lat="43.3763177" lon="11.8491777"><ele>257.0</ele><time>2026-04-18T12:08:59.683Z</time></trkpt><trkpt lat="43.3762063" lon="11.849219"><ele>257.0</ele><time>2026-04-18T12:09:01.674Z</time></trkpt><trkpt lat="43.376106" lon="11.8492415"><ele>257.0</ele><time>2026-04-18T12:09:03.686Z</time></trkpt><trkpt lat="43.3760182" lon="11.8492736"><ele>257.0</ele><time>2026-04-18T12:09:05.677Z</time></trkpt><trkpt lat="43.3759173" lon="11.8493117"><ele>257.0</ele><time>2026-04-18T12:09:07.685Z</time></trkpt><trkpt lat="43.3758046" lon="11.8493419"><ele>257.0</ele><time>2026-04-18T12:09:09.684Z</time></trkpt><trkpt lat="43.375694" lon="11.8493719"><ele>257.1666666666667</ele><time>2026-04-18T12:09:11.685Z</time></trkpt><trkpt lat="43.3756066" lon="11.8493977"><ele>257.33333333333337</ele><time>2026-04-18T12:09:13.686Z</time></trkpt><trkpt lat="43.3755355" lon="11.8494259"><ele>257.5</ele><time>2026-04-18T12:09:16.669Z</time></trkpt><trkpt lat="43.3755419" lon="11.8495226"><ele>257.6666666666667</ele><time>2026-04-18T12:09:21.68Z</time></trkpt><trkpt lat="43.3756017" lon="11.8496301"><ele>257.8333333333333</ele><time>2026-04-18T12:09:23.679Z</time></trkpt><trkpt lat="43.3756436" lon="11.8497084"><ele>258.0</ele><time>2026-04-18T12:09:24.687Z</time></trkpt><trkpt lat="43.3756883" lon="11.8497952"><ele>258.0</ele><time>2026-04-18T12:09:25.67Z</time></trkpt><trkpt lat="43.3757314" lon="11.8498815"><ele>258.0</ele><time>2026-04-18T12:09:26.672Z</time></trkpt><trkpt lat="43.375772" lon="11.8499652"><ele>258.0</ele><time>2026-04-18T12:09:27.687Z</time></trkpt><trkpt lat="43.37581" lon="11.8500444"><ele>258.0</ele><time>2026-04-18T12:09:28.683Z</time></trkpt><trkpt lat="43.3758517" lon="11.8501124"><ele>258.0</ele><time>2026-04-18T12:09:29.688Z</time></trkpt><trkpt lat="43.3758909" lon="11.8501861"><ele>258.0</ele><time>2026-04-18T12:09:30.68Z</time></trkpt><trkpt lat="43.3759645" lon="11.8503151"><ele>258.4</ele><time>2026-04-18T12:09:32.686Z</time></trkpt><trkpt lat="43.3760452" lon="11.8504163"><ele>258.8</ele><time>2026-04-18T12:09:34.669Z</time></trkpt><trkpt lat="43.3761385" lon="11.8505189"><ele>259.2</ele><time>2026-04-18T12:09:36.674Z</time></trkpt><trkpt lat="43.3761934" lon="11.8505742"><ele>259.6</ele><time>2026-04-18T12:09:37.675Z</time></trkpt><trkpt lat="43.3762474" lon="11.8506239"><ele>260.0</ele><time>2026-04-18T12:09:38.674Z</time></trkpt><trkpt lat="43.3763266" lon="11.8507124"><ele>259.83333333333337</ele><time>2026-04-18T12:09:40.675Z</time></trkpt><trkpt lat="43.3763767" lon="11.8507815"><ele>259.6666666666667</ele><time>2026-04-18T12:09:42.682Z</time></trkpt><trkpt lat="43.3764224" lon="11.850879"><ele>259.5</ele><time>2026-04-18T12:09:45.678Z</time></trkpt><trkpt lat="43.3764579" lon="11.8510262"><ele>259.3333333333333</ele><time>2026-04-18T12:09:48.682Z</time></trkpt><trkpt lat="43.3764823" lon="11.8511304"><ele>259.16666666666663</ele><time>2026-04-18T12:09:50.67Z</time></trkpt><trkpt lat="43.3765462" lon="11.8512276"><ele>259.0</ele><time>2026-04-18T12:09:52.672Z</time></trkpt><trkpt lat="43.3766427" lon="11.8513256"><ele>258.8333333333333</ele><time>2026-04-18T12:09:54.693Z</time></trkpt><trkpt lat="43.3766986" lon="11.8513854"><ele>258.66666666666663</ele><time>2026-04-18T12:09:55.674Z</time></trkpt><trkpt lat="43.3767546" lon="11.8514452"><ele>258.5</ele><time>2026-04-18T12:09:56.683Z</time></trkpt><trkpt lat="43.3768166" lon="11.8515097"><ele>258.3333333333333</ele><time>2026-04-18T12:09:57.681Z</time></trkpt><trkpt lat="43.3768799" lon="11.8515764"><ele>258.1666666666667</ele><time>2026-04-18T12:09:58.678Z</time></trkpt><trkpt lat="43.3769417" lon="11.8516412"><ele>258.0</ele><time>2026-04-18T12:09:59.675Z</time></trkpt><trkpt lat="43.3770015" lon="11.8517194"><ele>258.1666666666667</ele><time>2026-04-18T12:10:00.687Z</time></trkpt><trkpt lat="43.377055" lon="11.8517973"><ele>258.3333333333333</ele><time>2026-04-18T12:10:01.668Z</time></trkpt><trkpt lat="43.3771046" lon="11.8518766"><ele>258.5</ele><time>2026-04-18T12:10:02.67Z</time></trkpt><trkpt lat="43.3771527" lon="11.8519555"><ele>258.66666666666663</ele><time>2026-04-18T12:10:03.669Z</time></trkpt><trkpt lat="43.3771916" lon="11.8520463"><ele>258.8333333333333</ele><time>2026-04-18T12:10:04.675Z</time></trkpt><trkpt lat="43.377227" lon="11.8521429"><ele>259.0</ele><time>2026-04-18T12:10:05.684Z</time></trkpt><trkpt lat="43.3772667" lon="11.8522525"><ele>259.0</ele><time>2026-04-18T12:10:06.689Z</time></trkpt><trkpt lat="43.3773082" lon="11.852379"><ele>259.0</ele><time>2026-04-18T12:10:07.674Z</time></trkpt><trkpt lat="43.377358" lon="11.8525229"><ele>259.0</ele><time>2026-04-18T12:10:08.669Z</time></trkpt><trkpt lat="43.3774099" lon="11.852676"><ele>259.0</ele><time>2026-04-18T12:10:09.674Z</time></trkpt><trkpt lat="43.377454" lon="11.8528165"><ele>259.0</ele><time>2026-04-18T12:10:10.678Z</time></trkpt><trkpt lat="43.3774967" lon="11.8529475"><ele>259.0</ele><time>2026-04-18T12:10:11.68Z</time></trkpt><trkpt lat="43.377543" lon="11.8530768"><ele>259.0</ele><time>2026-04-18T12:10:12.68Z</time></trkpt><trkpt lat="43.3775916" lon="11.8532177"><ele>259.0</ele><time>2026-04-18T12:10:13.675Z</time></trkpt><trkpt lat="43.3776455" lon="11.8533654"><ele>259.0</ele><time>2026-04-18T12:10:14.672Z</time></trkpt><trkpt lat="43.3776961" lon="11.8535305"><ele>259.25</ele><time>2026-04-18T12:10:15.67Z</time></trkpt><trkpt lat="43.377748" lon="11.8537039"><ele>259.5</ele><time>2026-04-18T12:10:16.694Z</time></trkpt><trkpt lat="43.377798" lon="11.8538786"><ele>259.75</ele><time>2026-04-18T12:10:17.669Z</time></trkpt><trkpt lat="43.3778432" lon="11.8540366"><ele>260.0</ele><time>2026-04-18T12:10:18.669Z</time></trkpt><trkpt lat="43.3778864" lon="11.854194"><ele>260.2</ele><time>2026-04-18T12:10:19.675Z</time></trkpt><trkpt lat="43.3779253" lon="11.854343"><ele>260.4</ele><time>2026-04-18T12:10:20.676Z</time></trkpt><trkpt lat="43.3779684" lon="11.8544713"><ele>260.6</ele><time>2026-04-18T12:10:21.686Z</time></trkpt><trkpt lat="43.3780133" lon="11.8546056"><ele>260.8</ele><time>2026-04-18T12:10:22.677Z</time></trkpt><trkpt lat="43.378061" lon="11.8547549"><ele>261.0</ele><time>2026-04-18T12:10:23.676Z</time></trkpt><trkpt lat="43.3781079" lon="11.8549055"><ele>261.0</ele><time>2026-04-18T12:10:24.678Z</time></trkpt><trkpt lat="43.3781483" lon="11.8550356"><ele>261.0</ele><time>2026-04-18T12:10:25.689Z</time></trkpt><trkpt lat="43.3781848" lon="11.8551726"><ele>261.0</ele><time>2026-04-18T12:10:26.677Z</time></trkpt><trkpt lat="43.3782199" lon="11.8553006"><ele>261.0</ele><time>2026-04-18T12:10:27.688Z</time></trkpt><trkpt lat="43.3782524" lon="11.8554136"><ele>261.0</ele><time>2026-04-18T12:10:28.676Z</time></trkpt><trkpt lat="43.3782925" lon="11.8555307"><ele>261.2</ele><time>2026-04-18T12:10:29.677Z</time></trkpt><trkpt lat="43.3783336" lon="11.8556478"><ele>261.40000000000003</ele><time>2026-04-18T12:10:30.685Z</time></trkpt><trkpt lat="43.3783741" lon="11.8557601"><ele>261.6</ele><time>2026-04-18T12:10:31.67Z</time></trkpt><trkpt lat="43.3784166" lon="11.8558774"><ele>261.8</ele><time>2026-04-18T12:10:32.688Z</time></trkpt><trkpt lat="43.3784607" lon="11.8559963"><ele>262.0</ele><time>2026-04-18T12:10:33.687Z</time></trkpt><trkpt lat="43.3785025" lon="11.8561196"><ele>262.2</ele><time>2026-04-18T12:10:34.687Z</time></trkpt><trkpt lat="43.3785477" lon="11.8562463"><ele>262.4</ele><time>2026-04-18T12:10:35.68Z</time></trkpt><trkpt lat="43.3785982" lon="11.8563692"><ele>262.6</ele><time>2026-04-18T12:10:36.669Z</time></trkpt><trkpt lat="43.3786476" lon="11.8564964"><ele>262.8</ele><time>2026-04-18T12:10:37.686Z</time></trkpt><trkpt lat="43.3786961" lon="11.8566285"><ele>263.0</ele><time>2026-04-18T12:10:38.682Z</time></trkpt><trkpt lat="43.3787519" lon="11.8567699"><ele>263.2</ele><time>2026-04-18T12:10:39.679Z</time></trkpt><trkpt lat="43.3788098" lon="11.8569159"><ele>263.4</ele><time>2026-04-18T12:10:40.688Z</time></trkpt><trkpt lat="43.3788709" lon="11.857051"><ele>263.59999999999997</ele><time>2026-04-18T12:10:41.693Z</time></trkpt><trkpt lat="43.3789302" lon="11.8571727"><ele>263.8</ele><time>2026-04-18T12:10:42.681Z</time></trkpt><trkpt lat="43.3789799" lon="11.85729"><ele>264.0</ele><time>2026-04-18T12:10:43.683Z</time></trkpt><trkpt lat="43.3790233" lon="11.8573991"><ele>264.0</ele><time>2026-04-18T12:10:44.694Z</time></trkpt><trkpt lat="43.3790527" lon="11.8575081"><ele>264.0</ele><time>2026-04-18T12:10:45.67Z</time></trkpt><trkpt lat="43.3790719" lon="11.8576302"><ele>264.0</ele><time>2026-04-18T12:10:46.677Z</time></trkpt><trkpt lat="43.3790784" lon="11.8577641"><ele>264.0</ele><time>2026-04-18T12:10:47.686Z</time></trkpt><trkpt lat="43.3790757" lon="11.8579021"><ele>264.0</ele><time>2026-04-18T12:10:48.677Z</time></trkpt><trkpt lat="43.3790668" lon="11.8580505"><ele>264.8</ele><time>2026-04-18T12:10:49.666Z</time></trkpt><trkpt lat="43.3790458" lon="11.8581966"><ele>265.59999999999997</ele><time>2026-04-18T12:10:50.685Z</time></trkpt><trkpt lat="43.3790276" lon="11.8583336"><ele>266.4</ele><time>2026-04-18T12:10:51.685Z</time></trkpt><trkpt lat="43.3790275" lon="11.8584688"><ele>267.2</ele><time>2026-04-18T12:10:52.672Z</time></trkpt><trkpt lat="43.3790473" lon="11.8586142"><ele>268.0</ele><time>2026-04-18T12:10:53.696Z</time></trkpt><trkpt lat="43.3790837" lon="11.858746"><ele>269.25</ele><time>2026-04-18T12:10:54.682Z</time></trkpt><trkpt lat="43.3791309" lon="11.8588723"><ele>270.5</ele><time>2026-04-18T12:10:55.681Z</time></trkpt><trkpt lat="43.3791939" lon="11.8590236"><ele>271.75</ele><time>2026-04-18T12:10:56.674Z</time></trkpt><trkpt lat="43.3792568" lon="11.8591627"><ele>273.0</ele><time>2026-04-18T12:10:57.675Z</time></trkpt><trkpt lat="43.3793237" lon="11.8593042"><ele>274.5</ele><time>2026-04-18T12:10:58.687Z</time></trkpt><trkpt lat="43.3794097" lon="11.8594448"><ele>276.0</ele><time>2026-04-18T12:10:59.694Z</time></trkpt><trkpt lat="43.3794948" lon="11.8595949"><ele>277.5</ele><time>2026-04-18T12:11:00.683Z</time></trkpt><trkpt lat="43.3795769" lon="11.8597517"><ele>279.0</ele><time>2026-04-18T12:11:01.68Z</time></trkpt><trkpt lat="43.3796536" lon="11.8599145"><ele>278.5</ele><time>2026-04-18T12:11:02.669Z</time></trkpt><trkpt lat="43.3797249" lon="11.8600748"><ele>278.0</ele><time>2026-04-18T12:11:03.671Z</time></trkpt><trkpt lat="43.3797916" lon="11.8602299"><ele>277.5</ele><time>2026-04-18T12:11:04.671Z</time></trkpt><trkpt lat="43.3798625" lon="11.8603811"><ele>277.0</ele><time>2026-04-18T12:11:05.676Z</time></trkpt><trkpt lat="43.3799302" lon="11.8605123"><ele>277.66666666666663</ele><time>2026-04-18T12:11:06.674Z</time></trkpt><trkpt lat="43.3799908" lon="11.8606246"><ele>278.3333333333333</ele><time>2026-04-18T12:11:07.67Z</time></trkpt><trkpt lat="43.3800462" lon="11.8607323"><ele>279.0</ele><time>2026-04-18T12:11:08.67Z</time></trkpt><trkpt lat="43.380102" lon="11.860824"><ele>279.6666666666667</ele><time>2026-04-18T12:11:09.673Z</time></trkpt><trkpt lat="43.3801431" lon="11.860908"><ele>280.33333333333337</ele><time>2026-04-18T12:11:10.674Z</time></trkpt><trkpt lat="43.3801797" lon="11.8609876"><ele>281.0</ele><time>2026-04-18T12:11:11.67Z</time></trkpt><trkpt lat="43.3802138" lon="11.8610652"><ele>281.33333333333337</ele><time>2026-04-18T12:11:12.672Z</time></trkpt><trkpt lat="43.3802575" lon="11.8611458"><ele>281.6666666666667</ele><time>2026-04-18T12:11:13.673Z</time></trkpt><trkpt lat="43.3803043" lon="11.8612125"><ele>282.0</ele><time>2026-04-18T12:11:14.685Z</time></trkpt><trkpt lat="43.3803961" lon="11.861335"><ele>282.3333333333333</ele><time>2026-04-18T12:11:16.68Z</time></trkpt><trkpt lat="43.3804536" lon="11.8613981"><ele>282.66666666666663</ele><time>2026-04-18T12:11:17.674Z</time></trkpt><trkpt lat="43.3805154" lon="11.8614569"><ele>283.0</ele><time>2026-04-18T12:11:18.667Z</time></trkpt><trkpt lat="43.3805788" lon="11.8615059"><ele>283.16666666666663</ele><time>2026-04-18T12:11:19.704Z</time></trkpt><trkpt lat="43.3806388" lon="11.8615449"><ele>283.3333333333333</ele><time>2026-04-18T12:11:20.672Z</time></trkpt><trkpt lat="43.3806964" lon="11.861588"><ele>283.5</ele><time>2026-04-18T12:11:21.672Z</time></trkpt><trkpt lat="43.3807554" lon="11.8616229"><ele>283.6666666666667</ele><time>2026-04-18T12:11:22.678Z</time></trkpt><trkpt lat="43.3808342" lon="11.8616839"><ele>283.83333333333337</ele><time>2026-04-18T12:11:24.672Z</time></trkpt><trkpt lat="43.3808536" lon="11.861804"><ele>284.0</ele><time>2026-04-18T12:11:27.677Z</time></trkpt><trkpt lat="43.380783" lon="11.8619218"><ele>283.59999999999997</ele><time>2026-04-18T12:11:29.681Z</time></trkpt><trkpt lat="43.3807273" lon="11.8619927"><ele>283.2</ele><time>2026-04-18T12:11:30.675Z</time></trkpt><trkpt lat="43.3806562" lon="11.8620867"><ele>282.79999999999995</ele><time>2026-04-18T12:11:31.678Z</time></trkpt><trkpt lat="43.3805639" lon="11.8622001"><ele>282.4</ele><time>2026-04-18T12:11:32.69Z</time></trkpt><trkpt lat="43.3804435" lon="11.8623201"><ele>282.0</ele><time>2026-04-18T12:11:33.665Z</time></trkpt><trkpt lat="43.380303" lon="11.8624519"><ele>282.0</ele><time>2026-04-18T12:11:34.69Z</time></trkpt><trkpt lat="43.3801499" lon="11.8625871"><ele>282.0</ele><time>2026-04-18T12:11:35.685Z</time></trkpt><trkpt lat="43.3799928" lon="11.862752"><ele>282.0</ele><time>2026-04-18T12:11:36.672Z</time></trkpt><trkpt lat="43.3798275" lon="11.862919"><ele>280.6666666666667</ele><time>2026-04-18T12:11:37.679Z</time></trkpt><trkpt lat="43.3796694" lon="11.8631179"><ele>279.33333333333337</ele><time>2026-04-18T12:11:38.681Z</time></trkpt><trkpt lat="43.3795077" lon="11.8632976"><ele>278.0</ele><time>2026-04-18T12:11:39.688Z</time></trkpt><trkpt lat="43.3793431" lon="11.8634603"><ele>278.0</ele><time>2026-04-18T12:11:40.674Z</time></trkpt><trkpt lat="43.3791884" lon="11.8636507"><ele>278.0</ele><time>2026-04-18T12:11:41.672Z</time></trkpt><trkpt lat="43.379055" lon="11.8638918"><ele>278.0</ele><time>2026-04-18T12:11:42.673Z</time></trkpt><trkpt lat="43.3789262" lon="11.8641143"><ele>278.6666666666667</ele><time>2026-04-18T12:11:43.673Z</time></trkpt><trkpt lat="43.3787893" lon="11.8643"><ele>279.3333333333333</ele><time>2026-04-18T12:11:44.673Z</time></trkpt><trkpt lat="43.3786582" lon="11.8644851"><ele>280.0</ele><time>2026-04-18T12:11:45.674Z</time></trkpt><trkpt lat="43.3785335" lon="11.8646455"><ele>280.0</ele><time>2026-04-18T12:11:46.673Z</time></trkpt><trkpt lat="43.378422" lon="11.8647881"><ele>280.0</ele><time>2026-04-18T12:11:47.673Z</time></trkpt><trkpt lat="43.3783302" lon="11.8649089"><ele>280.0</ele><time>2026-04-18T12:11:48.675Z</time></trkpt><trkpt lat="43.3782523" lon="11.8650112"><ele>280.0</ele><time>2026-04-18T12:11:49.682Z</time></trkpt><trkpt lat="43.3781773" lon="11.86509"><ele>280.3333333333333</ele><time>2026-04-18T12:11:50.666Z</time></trkpt><trkpt lat="43.3780953" lon="11.8651313"><ele>280.66666666666663</ele><time>2026-04-18T12:11:51.672Z</time></trkpt><trkpt lat="43.3780074" lon="11.8651435"><ele>281.0</ele><time>2026-04-18T12:11:52.681Z</time></trkpt><trkpt lat="43.3779253" lon="11.8651625"><ele>281.3333333333333</ele><time>2026-04-18T12:11:53.672Z</time></trkpt><trkpt lat="43.3778578" lon="11.8652028"><ele>281.6666666666667</ele><time>2026-04-18T12:11:54.673Z</time></trkpt><trkpt lat="43.3778017" lon="11.8652755"><ele>282.0</ele><time>2026-04-18T12:11:55.667Z</time></trkpt><trkpt lat="43.3777656" lon="11.8653687"><ele>282.0</ele><time>2026-04-18T12:11:56.681Z</time></trkpt><trkpt lat="43.3777497" lon="11.8654873"><ele>282.0</ele><time>2026-04-18T12:11:57.668Z</time></trkpt><trkpt lat="43.3777227" lon="11.8656163"><ele>282.0</ele><time>2026-04-18T12:11:58.676Z</time></trkpt><trkpt lat="43.3776706" lon="11.8657266"><ele>282.0</ele><time>2026-04-18T12:11:59.68Z</time></trkpt><trkpt lat="43.377587" lon="11.8658218"><ele>282.0</ele><time>2026-04-18T12:12:00.66Z</time></trkpt><trkpt lat="43.3774939" lon="11.8659237"><ele>282.0</ele><time>2026-04-18T12:12:01.683Z</time></trkpt><trkpt lat="43.3774049" lon="11.866032"><ele>282.0</ele><time>2026-04-18T12:12:02.687Z</time></trkpt><trkpt lat="43.3773234" lon="11.8661356"><ele>282.0</ele><time>2026-04-18T12:12:03.685Z</time></trkpt><trkpt lat="43.3772578" lon="11.8662282"><ele>282.0</ele><time>2026-04-18T12:12:04.685Z</time></trkpt><trkpt lat="43.3772002" lon="11.8663166"><ele>282.0</ele><time>2026-04-18T12:12:05.679Z</time></trkpt><trkpt lat="43.37715" lon="11.8663824"><ele>282.0</ele><time>2026-04-18T12:12:06.677Z</time></trkpt><trkpt lat="43.3770809" lon="11.8664179"><ele>282.0</ele><time>2026-04-18T12:12:09.672Z</time></trkpt><trkpt lat="43.3770344" lon="11.8664774"><ele>282.0</ele><time>2026-04-18T12:12:12.686Z</time></trkpt><trkpt lat="43.3769887" lon="11.8665559"><ele>282.0</ele><time>2026-04-18T12:12:16.677Z</time></trkpt><trkpt lat="43.3769224" lon="11.8666578"><ele>282.0</ele><time>2026-04-18T12:12:18.682Z</time></trkpt><trkpt lat="43.3768664" lon="11.8667395"><ele>282.0</ele><time>2026-04-18T12:12:19.677Z</time></trkpt><trkpt lat="43.3767854" lon="11.866832"><ele>282.0</ele><time>2026-04-18T12:12:20.686Z</time></trkpt><trkpt lat="43.3767005" lon="11.8669153"><ele>282.0</ele><time>2026-04-18T12:12:21.681Z</time></trkpt><trkpt lat="43.3766359" lon="11.8669885"><ele>282.0</ele><time>2026-04-18T12:12:22.683Z</time></trkpt><trkpt lat="43.3765829" lon="11.8670604"><ele>282.0</ele><time>2026-04-18T12:12:23.682Z</time></trkpt><trkpt lat="43.3765218" lon="11.8671292"><ele>282.0</ele><time>2026-04-18T12:12:24.669Z</time></trkpt><trkpt lat="43.376477" lon="11.867197"><ele>282.0</ele><time>2026-04-18T12:12:25.68Z</time></trkpt><trkpt lat="43.3763855" lon="11.8673159"><ele>282.14285714285717</ele><time>2026-04-18T12:12:27.671Z</time></trkpt><trkpt lat="43.376331" lon="11.8673836"><ele>282.2857142857143</ele><time>2026-04-18T12:12:28.67Z</time></trkpt><trkpt lat="43.3762736" lon="11.8674517"><ele>282.42857142857144</ele><time>2026-04-18T12:12:29.668Z</time></trkpt><trkpt lat="43.3762221" lon="11.8675162"><ele>282.57142857142856</ele><time>2026-04-18T12:12:30.686Z</time></trkpt><trkpt lat="43.3761688" lon="11.8675856"><ele>282.7142857142857</ele><time>2026-04-18T12:12:31.678Z</time></trkpt><trkpt lat="43.3761121" lon="11.8676583"><ele>282.8571428571429</ele><time>2026-04-18T12:12:32.697Z</time></trkpt><trkpt lat="43.3760546" lon="11.8677281"><ele>283.0</ele><time>2026-04-18T12:12:33.686Z</time></trkpt><trkpt lat="43.3759947" lon="11.8677982"><ele>283.16666666666663</ele><time>2026-04-18T12:12:34.68Z</time></trkpt><trkpt lat="43.3759369" lon="11.8678664"><ele>283.3333333333333</ele><time>2026-04-18T12:12:35.689Z</time></trkpt><trkpt lat="43.3758877" lon="11.8679341"><ele>283.5</ele><time>2026-04-18T12:12:36.677Z</time></trkpt><trkpt lat="43.3757929" lon="11.8680332"><ele>283.6666666666667</ele><time>2026-04-18T12:12:38.678Z</time></trkpt><trkpt lat="43.3757313" lon="11.8680926"><ele>283.83333333333337</ele><time>2026-04-18T12:12:39.667Z</time></trkpt><trkpt lat="43.375657" lon="11.8681799"><ele>284.0</ele><time>2026-04-18T12:12:40.687Z</time></trkpt><trkpt lat="43.3755883" lon="11.8682894"><ele>284.0</ele><time>2026-04-18T12:12:41.677Z</time></trkpt><trkpt lat="43.3755366" lon="11.868371"><ele>284.0</ele><time>2026-04-18T12:12:42.689Z</time></trkpt><trkpt lat="43.3754455" lon="11.868459"><ele>284.0</ele><time>2026-04-18T12:12:44.676Z</time></trkpt><trkpt lat="43.3753642" lon="11.868566"><ele>284.0</ele><time>2026-04-18T12:12:46.679Z</time></trkpt><trkpt lat="43.375312" lon="11.8686212"><ele>284.0</ele><time>2026-04-18T12:12:47.68Z</time></trkpt><trkpt lat="43.3752577" lon="11.8686922"><ele>284.0</ele><time>2026-04-18T12:12:48.675Z</time></trkpt><trkpt lat="43.3751955" lon="11.8687653"><ele>284.0</ele><time>2026-04-18T12:12:49.679Z</time></trkpt><trkpt lat="43.3751361" lon="11.8688499"><ele>284.0</ele><time>2026-04-18T12:12:50.677Z</time></trkpt><trkpt lat="43.3750688" lon="11.8689452"><ele>284.0</ele><time>2026-04-18T12:12:51.673Z</time></trkpt><trkpt lat="43.3749962" lon="11.8690473"><ele>284.0</ele><time>2026-04-18T12:12:52.693Z</time></trkpt><trkpt lat="43.3749203" lon="11.8691535"><ele>284.0</ele><time>2026-04-18T12:12:53.673Z</time></trkpt><trkpt lat="43.3748385" lon="11.8692704"><ele>283.75</ele><time>2026-04-18T12:12:54.687Z</time></trkpt><trkpt lat="43.3747522" lon="11.8693895"><ele>283.5</ele><time>2026-04-18T12:12:55.676Z</time></trkpt><trkpt lat="43.3746543" lon="11.869522"><ele>283.25</ele><time>2026-04-18T12:12:56.682Z</time></trkpt><trkpt lat="43.3745249" lon="11.8696692"><ele>283.0</ele><time>2026-04-18T12:12:57.687Z</time></trkpt><trkpt lat="43.374398" lon="11.8698303"><ele>283.0</ele><time>2026-04-18T12:12:58.674Z</time></trkpt><trkpt lat="43.3742762" lon="11.8699769"><ele>283.0</ele><time>2026-04-18T12:12:59.681Z</time></trkpt><trkpt lat="43.3741562" lon="11.8701201"><ele>283.0</ele><time>2026-04-18T12:13:00.683Z</time></trkpt><trkpt lat="43.3740362" lon="11.8702703"><ele>283.0</ele><time>2026-04-18T12:13:01.683Z</time></trkpt><trkpt lat="43.3739267" lon="11.8704155"><ele>283.0</ele><time>2026-04-18T12:13:02.684Z</time></trkpt><trkpt lat="43.3738145" lon="11.8705653"><ele>283.0</ele><time>2026-04-18T12:13:03.688Z</time></trkpt><trkpt lat="43.3737003" lon="11.8707161"><ele>283.0</ele><time>2026-04-18T12:13:04.681Z</time></trkpt><trkpt lat="43.3735859" lon="11.8708726"><ele>283.0</ele><time>2026-04-18T12:13:05.689Z</time></trkpt><trkpt lat="43.3734637" lon="11.8710305"><ele>283.0</ele><time>2026-04-18T12:13:06.674Z</time></trkpt><trkpt lat="43.3733484" lon="11.8712015"><ele>283.3333333333333</ele><time>2026-04-18T12:13:07.69Z</time></trkpt><trkpt lat="43.3732414" lon="11.8713781"><ele>283.6666666666667</ele><time>2026-04-18T12:13:08.682Z</time></trkpt><trkpt lat="43.3731402" lon="11.8715641"><ele>284.0</ele><time>2026-04-18T12:13:09.682Z</time></trkpt><trkpt lat="43.3730395" lon="11.8717527"><ele>283.33333333333337</ele><time>2026-04-18T12:13:10.669Z</time></trkpt><trkpt lat="43.3729464" lon="11.8719495"><ele>282.6666666666667</ele><time>2026-04-18T12:13:11.682Z</time></trkpt><trkpt lat="43.3728558" lon="11.8721212"><ele>282.0</ele><time>2026-04-18T12:13:12.672Z</time></trkpt><trkpt lat="43.3727697" lon="11.8722851"><ele>282.0</ele><time>2026-04-18T12:13:13.689Z</time></trkpt><trkpt lat="43.3726807" lon="11.8724564"><ele>282.0</ele><time>2026-04-18T12:13:14.678Z</time></trkpt><trkpt lat="43.3725914" lon="11.8726332"><ele>282.0</ele><time>2026-04-18T12:13:15.676Z</time></trkpt><trkpt lat="43.3725103" lon="11.8727971"><ele>282.0</ele><time>2026-04-18T12:13:16.667Z</time></trkpt><trkpt lat="43.3724347" lon="11.8729314"><ele>282.0</ele><time>2026-04-18T12:13:17.679Z</time></trkpt><trkpt lat="43.3723662" lon="11.8730666"><ele>282.0</ele><time>2026-04-18T12:13:18.689Z</time></trkpt><trkpt lat="43.3722944" lon="11.8731979"><ele>282.0</ele><time>2026-04-18T12:13:19.675Z</time></trkpt><trkpt lat="43.3722119" lon="11.8733374"><ele>281.6666666666667</ele><time>2026-04-18T12:13:20.684Z</time></trkpt><trkpt lat="43.3721253" lon="11.8734931"><ele>281.33333333333337</ele><time>2026-04-18T12:13:21.68Z</time></trkpt><trkpt lat="43.3720298" lon="11.8736661"><ele>281.0</ele><time>2026-04-18T12:13:22.681Z</time></trkpt><trkpt lat="43.3719366" lon="11.8738504"><ele>281.0</ele><time>2026-04-18T12:13:23.671Z</time></trkpt><trkpt lat="43.3718354" lon="11.8740358"><ele>281.0</ele><time>2026-04-18T12:13:24.68Z</time></trkpt><trkpt lat="43.3717314" lon="11.8742283"><ele>281.0</ele><time>2026-04-18T12:13:25.677Z</time></trkpt><trkpt lat="43.3716267" lon="11.8744175"><ele>281.33333333333337</ele><time>2026-04-18T12:13:26.669Z</time></trkpt><trkpt lat="43.3715212" lon="11.8746177"><ele>281.6666666666667</ele><time>2026-04-18T12:13:27.666Z</time></trkpt><trkpt lat="43.371418" lon="11.8748109"><ele>282.0</ele><time>2026-04-18T12:13:28.677Z</time></trkpt><trkpt lat="43.3713149" lon="11.8749953"><ele>282.0</ele><time>2026-04-18T12:13:29.679Z</time></trkpt><trkpt lat="43.3712125" lon="11.875177"><ele>282.0</ele><time>2026-04-18T12:13:30.685Z</time></trkpt><trkpt lat="43.371107" lon="11.8753693"><ele>282.0</ele><time>2026-04-18T12:13:31.684Z</time></trkpt><trkpt lat="43.3709914" lon="11.8755693"><ele>282.0</ele><time>2026-04-18T12:13:32.664Z</time></trkpt><trkpt lat="43.3708708" lon="11.8757822"><ele>282.0</ele><time>2026-04-18T12:13:33.671Z</time></trkpt><trkpt lat="43.3707517" lon="11.8759925"><ele>282.0</ele><time>2026-04-18T12:13:34.671Z</time></trkpt><trkpt lat="43.3706324" lon="11.8762075"><ele>281.3333333333333</ele><time>2026-04-18T12:13:35.663Z</time></trkpt><trkpt lat="43.3705092" lon="11.8764156"><ele>280.66666666666663</ele><time>2026-04-18T12:13:36.672Z</time></trkpt><trkpt lat="43.3703869" lon="11.8766196"><ele>280.0</ele><time>2026-04-18T12:13:37.679Z</time></trkpt><trkpt lat="43.3702676" lon="11.8768298"><ele>280.0</ele><time>2026-04-18T12:13:38.672Z</time></trkpt><trkpt lat="43.3701471" lon="11.8770506"><ele>280.0</ele><time>2026-04-18T12:13:39.691Z</time></trkpt><trkpt lat="43.3700313" lon="11.8772665"><ele>280.0</ele><time>2026-04-18T12:13:40.674Z</time></trkpt><trkpt lat="43.3699137" lon="11.8774815"><ele>279.66666666666663</ele><time>2026-04-18T12:13:41.683Z</time></trkpt><trkpt lat="43.3697947" lon="11.8776977"><ele>279.3333333333333</ele><time>2026-04-18T12:13:42.677Z</time></trkpt><trkpt lat="43.3696702" lon="11.8779178"><ele>279.0</ele><time>2026-04-18T12:13:43.675Z</time></trkpt><trkpt lat="43.3695475" lon="11.8781402"><ele>278.3333333333333</ele><time>2026-04-18T12:13:44.671Z</time></trkpt><trkpt lat="43.3694253" lon="11.878361"><ele>277.66666666666663</ele><time>2026-04-18T12:13:45.671Z</time></trkpt><trkpt lat="43.3693098" lon="11.8785757"><ele>277.0</ele><time>2026-04-18T12:13:46.674Z</time></trkpt><trkpt lat="43.3691906" lon="11.8787914"><ele>277.0</ele><time>2026-04-18T12:13:47.663Z</time></trkpt><trkpt lat="43.369072" lon="11.8790041"><ele>277.0</ele><time>2026-04-18T12:13:48.683Z</time></trkpt><trkpt lat="43.3689629" lon="11.8792058"><ele>277.0</ele><time>2026-04-18T12:13:49.681Z</time></trkpt><trkpt lat="43.3688606" lon="11.8794015"><ele>277.0</ele><time>2026-04-18T12:13:50.671Z</time></trkpt><trkpt lat="43.3687614" lon="11.8795843"><ele>277.0</ele><time>2026-04-18T12:13:51.673Z</time></trkpt><trkpt lat="43.3686658" lon="11.8797683"><ele>277.0</ele><time>2026-04-18T12:13:52.68Z</time></trkpt><trkpt lat="43.368566" lon="11.8799504"><ele>277.66666666666663</ele><time>2026-04-18T12:13:53.681Z</time></trkpt><trkpt lat="43.3684617" lon="11.8801359"><ele>278.3333333333333</ele><time>2026-04-18T12:13:54.686Z</time></trkpt><trkpt lat="43.3683605" lon="11.8803122"><ele>279.0</ele><time>2026-04-18T12:13:55.675Z</time></trkpt><trkpt lat="43.3682696" lon="11.8804739"><ele>279.0</ele><time>2026-04-18T12:13:56.685Z</time></trkpt><trkpt lat="43.3681921" lon="11.880609"><ele>279.0</ele><time>2026-04-18T12:13:57.669Z</time></trkpt><trkpt lat="43.3681244" lon="11.8807272"><ele>279.0</ele><time>2026-04-18T12:13:58.679Z</time></trkpt><trkpt lat="43.3680613" lon="11.8808414"><ele>279.0</ele><time>2026-04-18T12:13:59.683Z</time></trkpt><trkpt lat="43.3680044" lon="11.8809517"><ele>279.0</ele><time>2026-04-18T12:14:00.679Z</time></trkpt><trkpt lat="43.3679535" lon="11.8810607"><ele>279.0</ele><time>2026-04-18T12:14:01.69Z</time></trkpt><trkpt lat="43.3679056" lon="11.8811613"><ele>279.0</ele><time>2026-04-18T12:14:02.676Z</time></trkpt><trkpt lat="43.3678561" lon="11.8812507"><ele>279.0</ele><time>2026-04-18T12:14:03.67Z</time></trkpt><trkpt lat="43.3678071" lon="11.8813462"><ele>279.0</ele><time>2026-04-18T12:14:04.676Z</time></trkpt><trkpt lat="43.3677493" lon="11.88144"><ele>279.0</ele><time>2026-04-18T12:14:05.667Z</time></trkpt><trkpt lat="43.3676965" lon="11.8815586"><ele>279.0</ele><time>2026-04-18T12:14:06.687Z</time></trkpt><trkpt lat="43.3676291" lon="11.8816914"><ele>279.0</ele><time>2026-04-18T12:14:07.673Z</time></trkpt><trkpt lat="43.3675343" lon="11.8818331"><ele>279.0</ele><time>2026-04-18T12:14:08.67Z</time></trkpt><trkpt lat="43.3674322" lon="11.8819854"><ele>279.0</ele><time>2026-04-18T12:14:09.679Z</time></trkpt><trkpt lat="43.3673264" lon="11.8821552"><ele>279.0</ele><time>2026-04-18T12:14:10.685Z</time></trkpt><trkpt lat="43.3672178" lon="11.8823371"><ele>279.0</ele><time>2026-04-18T12:14:11.671Z</time></trkpt><trkpt lat="43.3671091" lon="11.8825195"><ele>279.0</ele><time>2026-04-18T12:14:12.669Z</time></trkpt><trkpt lat="43.3670082" lon="11.8826823"><ele>278.75</ele><time>2026-04-18T12:14:13.686Z</time></trkpt><trkpt lat="43.3669123" lon="11.8828409"><ele>278.5</ele><time>2026-04-18T12:14:14.68Z</time></trkpt><trkpt lat="43.3668261" lon="11.8829832"><ele>278.25</ele><time>2026-04-18T12:14:15.684Z</time></trkpt><trkpt lat="43.3667446" lon="11.8831139"><ele>278.0</ele><time>2026-04-18T12:14:16.69Z</time></trkpt><trkpt lat="43.3666637" lon="11.8832364"><ele>278.0</ele><time>2026-04-18T12:14:17.682Z</time></trkpt><trkpt lat="43.3665894" lon="11.8833581"><ele>278.0</ele><time>2026-04-18T12:14:18.68Z</time></trkpt><trkpt lat="43.3665157" lon="11.88347"><ele>278.0</ele><time>2026-04-18T12:14:19.674Z</time></trkpt><trkpt lat="43.3664511" lon="11.8835774"><ele>278.0</ele><time>2026-04-18T12:14:20.674Z</time></trkpt><trkpt lat="43.3663869" lon="11.8836773"><ele>278.0</ele><time>2026-04-18T12:14:21.688Z</time></trkpt><trkpt lat="43.3663259" lon="11.8837808"><ele>278.8</ele><time>2026-04-18T12:14:22.682Z</time></trkpt><trkpt lat="43.3662599" lon="11.8838936"><ele>279.6</ele><time>2026-04-18T12:14:23.676Z</time></trkpt><trkpt lat="43.3662005" lon="11.8839991"><ele>280.4</ele><time>2026-04-18T12:14:24.692Z</time></trkpt><trkpt lat="43.3661547" lon="11.884103"><ele>281.2</ele><time>2026-04-18T12:14:25.679Z</time></trkpt><trkpt lat="43.3661193" lon="11.8842045"><ele>282.0</ele><time>2026-04-18T12:14:26.685Z</time></trkpt><trkpt lat="43.3660916" lon="11.8843093"><ele>282.4</ele><time>2026-04-18T12:14:27.686Z</time></trkpt><trkpt lat="43.3660642" lon="11.8844392"><ele>282.79999999999995</ele><time>2026-04-18T12:14:28.697Z</time></trkpt><trkpt lat="43.3660391" lon="11.8845852"><ele>283.2</ele><time>2026-04-18T12:14:29.685Z</time></trkpt><trkpt lat="43.3660175" lon="11.884747"><ele>283.59999999999997</ele><time>2026-04-18T12:14:30.684Z</time></trkpt><trkpt lat="43.3660016" lon="11.8849138"><ele>284.0</ele><time>2026-04-18T12:14:31.665Z</time></trkpt><trkpt lat="43.365984" lon="11.8850764"><ele>284.5</ele><time>2026-04-18T12:14:32.674Z</time></trkpt><trkpt lat="43.3659715" lon="11.885218"><ele>285.0</ele><time>2026-04-18T12:14:33.677Z</time></trkpt><trkpt lat="43.3659576" lon="11.8853319"><ele>285.5</ele><time>2026-04-18T12:14:34.666Z</time></trkpt><trkpt lat="43.3659391" lon="11.8854241"><ele>286.0</ele><time>2026-04-18T12:14:35.688Z</time></trkpt><trkpt lat="43.365927" lon="11.8855094"><ele>286.5</ele><time>2026-04-18T12:14:36.67Z</time></trkpt><trkpt lat="43.36591" lon="11.8856472"><ele>287.0</ele><time>2026-04-18T12:14:38.685Z</time></trkpt><trkpt lat="43.3658921" lon="11.8857731"><ele>287.2</ele><time>2026-04-18T12:14:40.681Z</time></trkpt><trkpt lat="43.3658706" lon="11.8859312"><ele>287.4</ele><time>2026-04-18T12:14:42.669Z</time></trkpt><trkpt lat="43.3658355" lon="11.886099"><ele>287.6</ele><time>2026-04-18T12:14:44.681Z</time></trkpt><trkpt lat="43.3658155" lon="11.8861975"><ele>287.8</ele><time>2026-04-18T12:14:45.681Z</time></trkpt><trkpt lat="43.3657898" lon="11.8863206"><ele>288.0</ele><time>2026-04-18T12:14:46.686Z</time></trkpt><trkpt lat="43.3657685" lon="11.8864643"><ele>288.0</ele><time>2026-04-18T12:14:47.689Z</time></trkpt><trkpt lat="43.3657452" lon="11.8866009"><ele>288.0</ele><time>2026-04-18T12:14:48.68Z</time></trkpt><trkpt lat="43.3657238" lon="11.8867201"><ele>288.0</ele><time>2026-04-18T12:14:49.682Z</time></trkpt><trkpt lat="43.3657026" lon="11.8868335"><ele>288.0</ele><time>2026-04-18T12:14:50.669Z</time></trkpt><trkpt lat="43.3656857" lon="11.886938"><ele>288.0</ele><time>2026-04-18T12:14:51.691Z</time></trkpt><trkpt lat="43.3656618" lon="11.8870395"><ele>288.0</ele><time>2026-04-18T12:14:52.678Z</time></trkpt><trkpt lat="43.365627" lon="11.8871486"><ele>288.0</ele><time>2026-04-18T12:14:53.684Z</time></trkpt><trkpt lat="43.3655853" lon="11.8872683"><ele>288.0</ele><time>2026-04-18T12:14:54.678Z</time></trkpt><trkpt lat="43.3655367" lon="11.8873849"><ele>288.0</ele><time>2026-04-18T12:14:55.69Z</time></trkpt><trkpt lat="43.3654793" lon="11.8875066"><ele>288.0</ele><time>2026-04-18T12:14:56.673Z</time></trkpt><trkpt lat="43.3654207" lon="11.887631"><ele>288.0</ele><time>2026-04-18T12:14:57.685Z</time></trkpt><trkpt lat="43.3653663" lon="11.8877628"><ele>288.5</ele><time>2026-04-18T12:14:58.689Z</time></trkpt><trkpt lat="43.3653198" lon="11.8879061"><ele>289.0</ele><time>2026-04-18T12:14:59.67Z</time></trkpt><trkpt lat="43.3652817" lon="11.8880542"><ele>289.5</ele><time>2026-04-18T12:15:00.673Z</time></trkpt><trkpt lat="43.365247" lon="11.8882078"><ele>290.0</ele><time>2026-04-18T12:15:01.682Z</time></trkpt><trkpt lat="43.3652184" lon="11.8883673"><ele>290.5</ele><time>2026-04-18T12:15:02.685Z</time></trkpt><trkpt lat="43.3651863" lon="11.8885408"><ele>291.0</ele><time>2026-04-18T12:15:03.685Z</time></trkpt><trkpt lat="43.3651473" lon="11.8887061"><ele>291.5</ele><time>2026-04-18T12:15:04.69Z</time></trkpt><trkpt lat="43.3650921" lon="11.8888765"><ele>292.0</ele><time>2026-04-18T12:15:05.682Z</time></trkpt><trkpt lat="43.3650277" lon="11.889032"><ele>292.0</ele><time>2026-04-18T12:15:06.673Z</time></trkpt><trkpt lat="43.3649463" lon="11.8891726"><ele>292.0</ele><time>2026-04-18T12:15:07.686Z</time></trkpt><trkpt lat="43.3648572" lon="11.8892958"><ele>292.0</ele><time>2026-04-18T12:15:08.677Z</time></trkpt><trkpt lat="43.3647635" lon="11.8894086"><ele>292.0</ele><time>2026-04-18T12:15:09.68Z</time></trkpt><trkpt lat="43.3646628" lon="11.8895162"><ele>291.75</ele><time>2026-04-18T12:15:10.695Z</time></trkpt><trkpt lat="43.3645718" lon="11.8896217"><ele>291.5</ele><time>2026-04-18T12:15:11.671Z</time></trkpt><trkpt lat="43.3644795" lon="11.8897395"><ele>291.25</ele><time>2026-04-18T12:15:12.685Z</time></trkpt><trkpt lat="43.3643874" lon="11.8898559"><ele>291.0</ele><time>2026-04-18T12:15:13.686Z</time></trkpt><trkpt lat="43.3642946" lon="11.8899712"><ele>291.0</ele><time>2026-04-18T12:15:14.676Z</time></trkpt><trkpt lat="43.3642045" lon="11.890082"><ele>291.0</ele><time>2026-04-18T12:15:15.682Z</time></trkpt><trkpt lat="43.3641167" lon="11.8901916"><ele>291.0</ele><time>2026-04-18T12:15:16.69Z</time></trkpt><trkpt lat="43.3640345" lon="11.8902874"><ele>291.0</ele><time>2026-04-18T12:15:17.692Z</time></trkpt><trkpt lat="43.3639577" lon="11.89039"><ele>291.3333333333333</ele><time>2026-04-18T12:15:18.688Z</time></trkpt><trkpt lat="43.3638854" lon="11.8904844"><ele>291.6666666666667</ele><time>2026-04-18T12:15:19.684Z</time></trkpt><trkpt lat="43.3638213" lon="11.8905645"><ele>292.0</ele><time>2026-04-18T12:15:20.687Z</time></trkpt><trkpt lat="43.3637564" lon="11.8906347"><ele>292.33333333333337</ele><time>2026-04-18T12:15:21.689Z</time></trkpt><trkpt lat="43.3636926" lon="11.8906954"><ele>292.6666666666667</ele><time>2026-04-18T12:15:22.684Z</time></trkpt><trkpt lat="43.363641" lon="11.8907647"><ele>293.0</ele><time>2026-04-18T12:15:23.677Z</time></trkpt><trkpt lat="43.3635855" lon="11.8908429"><ele>293.4</ele><time>2026-04-18T12:15:24.692Z</time></trkpt><trkpt lat="43.3635311" lon="11.8909416"><ele>293.8</ele><time>2026-04-18T12:15:25.665Z</time></trkpt><trkpt lat="43.363473" lon="11.8910547"><ele>294.2</ele><time>2026-04-18T12:15:26.672Z</time></trkpt><trkpt lat="43.3634049" lon="11.8911749"><ele>294.6</ele><time>2026-04-18T12:15:27.69Z</time></trkpt><trkpt lat="43.3633257" lon="11.8912848"><ele>295.0</ele><time>2026-04-18T12:15:28.686Z</time></trkpt><trkpt lat="43.3632504" lon="11.8914094"><ele>295.0</ele><time>2026-04-18T12:15:29.688Z</time></trkpt><trkpt lat="43.3631797" lon="11.8915504"><ele>295.0</ele><time>2026-04-18T12:15:30.68Z</time></trkpt><trkpt lat="43.3631108" lon="11.8916911"><ele>295.0</ele><time>2026-04-18T12:15:31.692Z</time></trkpt><trkpt lat="43.3630392" lon="11.8918302"><ele>295.0</ele><time>2026-04-18T12:15:32.675Z</time></trkpt><trkpt lat="43.362967" lon="11.8919719"><ele>294.75</ele><time>2026-04-18T12:15:33.688Z</time></trkpt><trkpt lat="43.3628814" lon="11.8921265"><ele>294.5</ele><time>2026-04-18T12:15:34.675Z</time></trkpt><trkpt lat="43.3627982" lon="11.8922949"><ele>294.25</ele><time>2026-04-18T12:15:35.682Z</time></trkpt><trkpt lat="43.3627162" lon="11.8924484"><ele>294.0</ele><time>2026-04-18T12:15:36.668Z</time></trkpt><trkpt lat="43.3626254" lon="11.8925958"><ele>294.0</ele><time>2026-04-18T12:15:37.676Z</time></trkpt><trkpt lat="43.3625248" lon="11.892742"><ele>294.0</ele><time>2026-04-18T12:15:38.675Z</time></trkpt><trkpt lat="43.3624207" lon="11.8928788"><ele>294.0</ele><time>2026-04-18T12:15:39.674Z</time></trkpt><trkpt lat="43.3623022" lon="11.8930232"><ele>294.0</ele><time>2026-04-18T12:15:40.675Z</time></trkpt><trkpt lat="43.3621772" lon="11.8931583"><ele>293.3333333333333</ele><time>2026-04-18T12:15:41.676Z</time></trkpt><trkpt lat="43.3620516" lon="11.8932961"><ele>292.66666666666663</ele><time>2026-04-18T12:15:42.694Z</time></trkpt><trkpt lat="43.3619262" lon="11.8934289"><ele>292.0</ele><time>2026-04-18T12:15:43.687Z</time></trkpt><trkpt lat="43.3617991" lon="11.8935645"><ele>291.3333333333333</ele><time>2026-04-18T12:15:44.683Z</time></trkpt><trkpt lat="43.3616788" lon="11.8936963"><ele>290.6666666666667</ele><time>2026-04-18T12:15:45.682Z</time></trkpt><trkpt lat="43.3615588" lon="11.8938312"><ele>290.0</ele><time>2026-04-18T12:15:46.69Z</time></trkpt><trkpt lat="43.3614406" lon="11.8939634"><ele>289.33333333333337</ele><time>2026-04-18T12:15:47.685Z</time></trkpt><trkpt lat="43.3613211" lon="11.8940928"><ele>288.6666666666667</ele><time>2026-04-18T12:15:48.68Z</time></trkpt><trkpt lat="43.361198" lon="11.8942198"><ele>288.0</ele><time>2026-04-18T12:15:49.68Z</time></trkpt><trkpt lat="43.3610735" lon="11.8943609"><ele>287.6666666666667</ele><time>2026-04-18T12:15:50.688Z</time></trkpt><trkpt lat="43.3609484" lon="11.8944924"><ele>287.33333333333337</ele><time>2026-04-18T12:15:51.683Z</time></trkpt><trkpt lat="43.360822" lon="11.8946276"><ele>287.0</ele><time>2026-04-18T12:15:52.685Z</time></trkpt><trkpt lat="43.3606965" lon="11.8947616"><ele>287.0</ele><time>2026-04-18T12:15:53.679Z</time></trkpt><trkpt lat="43.360569" lon="11.8949009"><ele>287.0</ele><time>2026-04-18T12:15:54.674Z</time></trkpt><trkpt lat="43.3604401" lon="11.8950446"><ele>287.0</ele><time>2026-04-18T12:15:55.689Z</time></trkpt><trkpt lat="43.3603056" lon="11.8951931"><ele>284.6666666666667</ele><time>2026-04-18T12:15:56.675Z</time></trkpt><trkpt lat="43.3601704" lon="11.8953407"><ele>282.3333333333333</ele><time>2026-04-18T12:15:57.677Z</time></trkpt><trkpt lat="43.3600319" lon="11.8955013"><ele>280.0</ele><time>2026-04-18T12:15:58.683Z</time></trkpt><trkpt lat="43.3598909" lon="11.8956538"><ele>280.0</ele><time>2026-04-18T12:15:59.685Z</time></trkpt><trkpt lat="43.3597452" lon="11.8958099"><ele>280.0</ele><time>2026-04-18T12:16:00.681Z</time></trkpt><trkpt lat="43.3595977" lon="11.8959631"><ele>280.0</ele><time>2026-04-18T12:16:01.684Z</time></trkpt><trkpt lat="43.3594483" lon="11.896117"><ele>280.0</ele><time>2026-04-18T12:16:02.689Z</time></trkpt><trkpt lat="43.3592947" lon="11.8962792"><ele>280.0</ele><time>2026-04-18T12:16:03.689Z</time></trkpt><trkpt lat="43.3591394" lon="11.8964483"><ele>280.0</ele><time>2026-04-18T12:16:04.681Z</time></trkpt><trkpt lat="43.358978" lon="11.8966217"><ele>279.66666666666663</ele><time>2026-04-18T12:16:05.694Z</time></trkpt><trkpt lat="43.3588201" lon="11.8967892"><ele>279.3333333333333</ele><time>2026-04-18T12:16:06.696Z</time></trkpt><trkpt lat="43.3586611" lon="11.8969581"><ele>279.0</ele><time>2026-04-18T12:16:07.684Z</time></trkpt><trkpt lat="43.3585034" lon="11.8971373"><ele>279.0</ele><time>2026-04-18T12:16:08.69Z</time></trkpt><trkpt lat="43.3583457" lon="11.8973107"><ele>279.0</ele><time>2026-04-18T12:16:09.679Z</time></trkpt><trkpt lat="43.3581774" lon="11.8974878"><ele>279.0</ele><time>2026-04-18T12:16:10.679Z</time></trkpt><trkpt lat="43.3580124" lon="11.8976775"><ele>279.0</ele><time>2026-04-18T12:16:11.681Z</time></trkpt><trkpt lat="43.3578389" lon="11.8978744"><ele>279.0</ele><time>2026-04-18T12:16:12.695Z</time></trkpt><trkpt lat="43.3576575" lon="11.8980837"><ele>279.0</ele><time>2026-04-18T12:16:13.687Z</time></trkpt><trkpt lat="43.3574767" lon="11.8983047"><ele>279.0</ele><time>2026-04-18T12:16:14.681Z</time></trkpt><trkpt lat="43.3573026" lon="11.8985091"><ele>278.0</ele><time>2026-04-18T12:16:15.684Z</time></trkpt><trkpt lat="43.3571435" lon="11.8987085"><ele>277.0</ele><time>2026-04-18T12:16:16.692Z</time></trkpt><trkpt lat="43.3569891" lon="11.8988957"><ele>276.0</ele><time>2026-04-18T12:16:17.69Z</time></trkpt><trkpt lat="43.3568423" lon="11.8990717"><ele>276.0</ele><time>2026-04-18T12:16:18.676Z</time></trkpt><trkpt lat="43.3567017" lon="11.8992413"><ele>276.0</ele><time>2026-04-18T12:16:19.686Z</time></trkpt><trkpt lat="43.3565727" lon="11.8994026"><ele>276.0</ele><time>2026-04-18T12:16:20.683Z</time></trkpt><trkpt lat="43.356448" lon="11.8995542"><ele>277.3333333333333</ele><time>2026-04-18T12:16:21.671Z</time></trkpt><trkpt lat="43.35633" lon="11.8996993"><ele>278.66666666666663</ele><time>2026-04-18T12:16:22.706Z</time></trkpt><trkpt lat="43.3562129" lon="11.8998456"><ele>280.0</ele><time>2026-04-18T12:16:23.708Z</time></trkpt><trkpt lat="43.356091" lon="11.8999941"><ele>280.3333333333333</ele><time>2026-04-18T12:16:24.691Z</time></trkpt><trkpt lat="43.3559657" lon="11.9001437"><ele>280.6666666666667</ele><time>2026-04-18T12:16:25.676Z</time></trkpt><trkpt lat="43.3558334" lon="11.9003006"><ele>281.0</ele><time>2026-04-18T12:16:26.681Z</time></trkpt><trkpt lat="43.3556982" lon="11.900452"><ele>281.0</ele><time>2026-04-18T12:16:27.678Z</time></trkpt><trkpt lat="43.3555596" lon="11.9006204"><ele>281.0</ele><time>2026-04-18T12:16:28.672Z</time></trkpt><trkpt lat="43.3554179" lon="11.9007879"><ele>281.0</ele><time>2026-04-18T12:16:29.671Z</time></trkpt><trkpt lat="43.3552751" lon="11.9009577"><ele>281.33333333333337</ele><time>2026-04-18T12:16:30.702Z</time></trkpt><trkpt lat="43.3551334" lon="11.9011332"><ele>281.6666666666667</ele><time>2026-04-18T12:16:31.68Z</time></trkpt><trkpt lat="43.3549896" lon="11.9013072"><ele>282.0</ele><time>2026-04-18T12:16:32.675Z</time></trkpt><trkpt lat="43.354843" lon="11.9014904"><ele>282.0</ele><time>2026-04-18T12:16:33.668Z</time></trkpt><trkpt lat="43.354685" lon="11.9016732"><ele>282.0</ele><time>2026-04-18T12:16:34.688Z</time></trkpt><trkpt lat="43.3545354" lon="11.9018497"><ele>282.0</ele><time>2026-04-18T12:16:35.687Z</time></trkpt><trkpt lat="43.3543918" lon="11.9020236"><ele>282.6666666666667</ele><time>2026-04-18T12:16:36.68Z</time></trkpt><trkpt lat="43.3542535" lon="11.9021863"><ele>283.33333333333337</ele><time>2026-04-18T12:16:37.685Z</time></trkpt><trkpt lat="43.3541194" lon="11.90235"><ele>284.0</ele><time>2026-04-18T12:16:38.687Z</time></trkpt><trkpt lat="43.3539923" lon="11.9025067"><ele>283.0</ele><time>2026-04-18T12:16:39.68Z</time></trkpt><trkpt lat="43.3538704" lon="11.9026627"><ele>282.0</ele><time>2026-04-18T12:16:40.698Z</time></trkpt><trkpt lat="43.3537512" lon="11.9028198"><ele>281.0</ele><time>2026-04-18T12:16:41.685Z</time></trkpt><trkpt lat="43.3536418" lon="11.9029796"><ele>281.0</ele><time>2026-04-18T12:16:42.681Z</time></trkpt><trkpt lat="43.3535325" lon="11.9031435"><ele>281.0</ele><time>2026-04-18T12:16:43.676Z</time></trkpt><trkpt lat="43.3534203" lon="11.9033124"><ele>281.0</ele><time>2026-04-18T12:16:44.67Z</time></trkpt><trkpt lat="43.3533076" lon="11.9034836"><ele>280.33333333333337</ele><time>2026-04-18T12:16:45.687Z</time></trkpt><trkpt lat="43.3531977" lon="11.9036575"><ele>279.6666666666667</ele><time>2026-04-18T12:16:46.683Z</time></trkpt><trkpt lat="43.3530886" lon="11.9038318"><ele>279.0</ele><time>2026-04-18T12:16:47.68Z</time></trkpt><trkpt lat="43.3529788" lon="11.9040057"><ele>279.0</ele><time>2026-04-18T12:16:48.669Z</time></trkpt><trkpt lat="43.3528691" lon="11.9041706"><ele>279.0</ele><time>2026-04-18T12:16:49.683Z</time></trkpt><trkpt lat="43.3527559" lon="11.9043392"><ele>279.0</ele><time>2026-04-18T12:16:50.683Z</time></trkpt><trkpt lat="43.3526429" lon="11.9045211"><ele>279.6666666666667</ele><time>2026-04-18T12:16:51.689Z</time></trkpt><trkpt lat="43.3525308" lon="11.9046975"><ele>280.33333333333337</ele><time>2026-04-18T12:16:52.675Z</time></trkpt><trkpt lat="43.3524198" lon="11.9048658"><ele>281.0</ele><time>2026-04-18T12:16:53.675Z</time></trkpt><trkpt lat="43.3523156" lon="11.9050275"><ele>281.25</ele><time>2026-04-18T12:16:54.668Z</time></trkpt><trkpt lat="43.3522169" lon="11.9051757"><ele>281.5</ele><time>2026-04-18T12:16:55.673Z</time></trkpt><trkpt lat="43.3521279" lon="11.9053223"><ele>281.75</ele><time>2026-04-18T12:16:56.673Z</time></trkpt><trkpt lat="43.3520449" lon="11.9054544"><ele>282.0</ele><time>2026-04-18T12:16:57.674Z</time></trkpt><trkpt lat="43.3519591" lon="11.9055903"><ele>282.0</ele><time>2026-04-18T12:16:58.671Z</time></trkpt><trkpt lat="43.351865" lon="11.9057371"><ele>282.0</ele><time>2026-04-18T12:16:59.678Z</time></trkpt><trkpt lat="43.3517807" lon="11.9058745"><ele>282.0</ele><time>2026-04-18T12:17:00.674Z</time></trkpt><trkpt lat="43.3517043" lon="11.9059952"><ele>282.0</ele><time>2026-04-18T12:17:01.682Z</time></trkpt><trkpt lat="43.3516399" lon="11.9060968"><ele>282.0</ele><time>2026-04-18T12:17:02.68Z</time></trkpt><trkpt lat="43.3515767" lon="11.9061731"><ele>282.0</ele><time>2026-04-18T12:17:03.673Z</time></trkpt><trkpt lat="43.351506" lon="11.9062324"><ele>282.0</ele><time>2026-04-18T12:17:04.683Z</time></trkpt><trkpt lat="43.3514346" lon="11.9062624"><ele>282.0</ele><time>2026-04-18T12:17:05.672Z</time></trkpt><trkpt lat="43.3513703" lon="11.9063049"><ele>282.0</ele><time>2026-04-18T12:17:06.683Z</time></trkpt><trkpt lat="43.3513331" lon="11.9063769"><ele>282.0</ele><time>2026-04-18T12:17:07.681Z</time></trkpt><trkpt lat="43.3513032" lon="11.9064845"><ele>281.0</ele><time>2026-04-18T12:17:08.67Z</time></trkpt><trkpt lat="43.3512551" lon="11.9066271"><ele>280.0</ele><time>2026-04-18T12:17:09.678Z</time></trkpt><trkpt lat="43.3511881" lon="11.9067722"><ele>279.0</ele><time>2026-04-18T12:17:10.673Z</time></trkpt><trkpt lat="43.3511025" lon="11.9069099"><ele>278.0</ele><time>2026-04-18T12:17:11.672Z</time></trkpt><trkpt lat="43.3510152" lon="11.9070461"><ele>278.0</ele><time>2026-04-18T12:17:12.681Z</time></trkpt><trkpt lat="43.3509331" lon="11.907174"><ele>278.0</ele><time>2026-04-18T12:17:13.674Z</time></trkpt><trkpt lat="43.3508551" lon="11.9072891"><ele>278.0</ele><time>2026-04-18T12:17:14.676Z</time></trkpt><trkpt lat="43.3507843" lon="11.9073987"><ele>278.0</ele><time>2026-04-18T12:17:15.674Z</time></trkpt><trkpt lat="43.3507126" lon="11.9075027"><ele>278.0</ele><time>2026-04-18T12:17:16.674Z</time></trkpt><trkpt lat="43.350646" lon="11.9075923"><ele>277.83333333333337</ele><time>2026-04-18T12:17:17.668Z</time></trkpt><trkpt lat="43.3505906" lon="11.9076876"><ele>277.6666666666667</ele><time>2026-04-18T12:17:18.679Z</time></trkpt><trkpt lat="43.350531" lon="11.9077725"><ele>277.5</ele><time>2026-04-18T12:17:19.672Z</time></trkpt><trkpt lat="43.3504793" lon="11.9078582"><ele>277.3333333333333</ele><time>2026-04-18T12:17:20.674Z</time></trkpt><trkpt lat="43.3504208" lon="11.9079427"><ele>277.16666666666663</ele><time>2026-04-18T12:17:21.672Z</time></trkpt><trkpt lat="43.3503641" lon="11.9080211"><ele>277.0</ele><time>2026-04-18T12:17:22.673Z</time></trkpt><trkpt lat="43.3503087" lon="11.9081091"><ele>277.0</ele><time>2026-04-18T12:17:23.674Z</time></trkpt><trkpt lat="43.3502522" lon="11.9082072"><ele>277.0</ele><time>2026-04-18T12:17:24.669Z</time></trkpt><trkpt lat="43.3501919" lon="11.9082994"><ele>277.0</ele><time>2026-04-18T12:17:25.672Z</time></trkpt><trkpt lat="43.3501347" lon="11.9083885"><ele>277.0</ele><time>2026-04-18T12:17:26.679Z</time></trkpt><trkpt lat="43.3500858" lon="11.9084723"><ele>277.0</ele><time>2026-04-18T12:17:27.671Z</time></trkpt><trkpt lat="43.3500386" lon="11.9085521"><ele>277.0</ele><time>2026-04-18T12:17:28.669Z</time></trkpt><trkpt lat="43.3499595" lon="11.9086725"><ele>277.2</ele><time>2026-04-18T12:17:30.674Z</time></trkpt><trkpt lat="43.3498858" lon="11.9087476"><ele>277.4</ele><time>2026-04-18T12:17:32.685Z</time></trkpt><trkpt lat="43.3497923" lon="11.9087951"><ele>277.6</ele><time>2026-04-18T12:17:34.67Z</time></trkpt><trkpt lat="43.3497346" lon="11.9089072"><ele>277.8</ele><time>2026-04-18T12:17:36.668Z</time></trkpt><trkpt lat="43.3496842" lon="11.9090748"><ele>278.0</ele><time>2026-04-18T12:17:38.67Z</time></trkpt><trkpt lat="43.3496288" lon="11.9091716"><ele>278.0</ele><time>2026-04-18T12:17:39.669Z</time></trkpt><trkpt lat="43.349552" lon="11.9092845"><ele>278.0</ele><time>2026-04-18T12:17:40.679Z</time></trkpt><trkpt lat="43.349467" lon="11.9094166"><ele>278.0</ele><time>2026-04-18T12:17:41.662Z</time></trkpt><trkpt lat="43.3493796" lon="11.9095665"><ele>278.0</ele><time>2026-04-18T12:17:42.679Z</time></trkpt><trkpt lat="43.3492908" lon="11.9097154"><ele>278.0</ele><time>2026-04-18T12:17:43.677Z</time></trkpt><trkpt lat="43.349197" lon="11.9098685"><ele>278.0</ele><time>2026-04-18T12:17:44.671Z</time></trkpt><trkpt lat="43.3490984" lon="11.9100221"><ele>278.0</ele><time>2026-04-18T12:17:45.674Z</time></trkpt><trkpt lat="43.3489971" lon="11.9101794"><ele>278.0</ele><time>2026-04-18T12:17:46.676Z</time></trkpt><trkpt lat="43.3488905" lon="11.9103309"><ele>278.0</ele><time>2026-04-18T12:17:47.694Z</time></trkpt><trkpt lat="43.348789" lon="11.910478"><ele>278.0</ele><time>2026-04-18T12:17:48.665Z</time></trkpt><trkpt lat="43.3486955" lon="11.9106231"><ele>278.0</ele><time>2026-04-18T12:17:49.678Z</time></trkpt><trkpt lat="43.3485984" lon="11.9107657"><ele>278.0</ele><time>2026-04-18T12:17:50.677Z</time></trkpt><trkpt lat="43.348502" lon="11.9109188"><ele>279.33333333333337</ele><time>2026-04-18T12:17:51.689Z</time></trkpt><trkpt lat="43.348401" lon="11.9110869"><ele>280.6666666666667</ele><time>2026-04-18T12:17:52.673Z</time></trkpt><trkpt lat="43.3482899" lon="11.9112638"><ele>282.0</ele><time>2026-04-18T12:17:53.671Z</time></trkpt><trkpt lat="43.3481788" lon="11.9114478"><ele>282.0</ele><time>2026-04-18T12:17:54.678Z</time></trkpt><trkpt lat="43.3480659" lon="11.9116277"><ele>282.0</ele><time>2026-04-18T12:17:55.668Z</time></trkpt><trkpt lat="43.3479552" lon="11.9118046"><ele>282.0</ele><time>2026-04-18T12:17:56.678Z</time></trkpt><trkpt lat="43.3478358" lon="11.9119778"><ele>284.3333333333333</ele><time>2026-04-18T12:17:57.69Z</time></trkpt><trkpt lat="43.3476999" lon="11.912147"><ele>286.66666666666663</ele><time>2026-04-18T12:17:58.674Z</time></trkpt><trkpt lat="43.3475562" lon="11.9123007"><ele>289.0</ele><time>2026-04-18T12:17:59.675Z</time></trkpt><trkpt lat="43.3474142" lon="11.9124373"><ele>289.0</ele><time>2026-04-18T12:18:00.672Z</time></trkpt><trkpt lat="43.3472774" lon="11.9125724"><ele>289.0</ele><time>2026-04-18T12:18:01.682Z</time></trkpt><trkpt lat="43.3471511" lon="11.9127153"><ele>289.0</ele><time>2026-04-18T12:18:02.684Z</time></trkpt><trkpt lat="43.3470463" lon="11.9128578"><ele>290.75</ele><time>2026-04-18T12:18:03.674Z</time></trkpt><trkpt lat="43.3469539" lon="11.9130033"><ele>292.5</ele><time>2026-04-18T12:18:04.679Z</time></trkpt><trkpt lat="43.3468753" lon="11.9131602"><ele>294.25</ele><time>2026-04-18T12:18:05.688Z</time></trkpt><trkpt lat="43.346809" lon="11.9133406"><ele>296.0</ele><time>2026-04-18T12:18:06.693Z</time></trkpt><trkpt lat="43.3467533" lon="11.9135391"><ele>297.0</ele><time>2026-04-18T12:18:07.674Z</time></trkpt><trkpt lat="43.3466988" lon="11.9137513"><ele>298.0</ele><time>2026-04-18T12:18:08.691Z</time></trkpt><trkpt lat="43.3466601" lon="11.9139523"><ele>299.0</ele><time>2026-04-18T12:18:09.675Z</time></trkpt><trkpt lat="43.3466328" lon="11.9141492"><ele>298.25</ele><time>2026-04-18T12:18:10.694Z</time></trkpt><trkpt lat="43.3466082" lon="11.9143433"><ele>297.5</ele><time>2026-04-18T12:18:11.679Z</time></trkpt><trkpt lat="43.3466016" lon="11.9145491"><ele>296.75</ele><time>2026-04-18T12:18:12.672Z</time></trkpt><trkpt lat="43.3466262" lon="11.9147588"><ele>296.0</ele><time>2026-04-18T12:18:13.691Z</time></trkpt><trkpt lat="43.3466553" lon="11.9149426"><ele>296.5</ele><time>2026-04-18T12:18:14.673Z</time></trkpt><trkpt lat="43.3466791" lon="11.9151183"><ele>297.0</ele><time>2026-04-18T12:18:15.684Z</time></trkpt><trkpt lat="43.3466721" lon="11.9152958"><ele>297.5</ele><time>2026-04-18T12:18:16.684Z</time></trkpt><trkpt lat="43.3466584" lon="11.9154768"><ele>298.0</ele><time>2026-04-18T12:18:17.667Z</time></trkpt><trkpt lat="43.3466177" lon="11.9156588"><ele>298.0</ele><time>2026-04-18T12:18:18.682Z</time></trkpt><trkpt lat="43.3465584" lon="11.9158361"><ele>298.0</ele><time>2026-04-18T12:18:19.684Z</time></trkpt><trkpt lat="43.3464763" lon="11.9160225"><ele>298.0</ele><time>2026-04-18T12:18:20.668Z</time></trkpt><trkpt lat="43.3463788" lon="11.9161974"><ele>295.66666666666663</ele><time>2026-04-18T12:18:21.69Z</time></trkpt><trkpt lat="43.3462775" lon="11.916373"><ele>293.3333333333333</ele><time>2026-04-18T12:18:22.67Z</time></trkpt><trkpt lat="43.3461707" lon="11.9165514"><ele>291.0</ele><time>2026-04-18T12:18:23.684Z</time></trkpt><trkpt lat="43.3460677" lon="11.9167247"><ele>291.5</ele><time>2026-04-18T12:18:24.681Z</time></trkpt><trkpt lat="43.3459638" lon="11.9168905"><ele>292.0</ele><time>2026-04-18T12:18:25.686Z</time></trkpt><trkpt lat="43.3458687" lon="11.9170412"><ele>292.5</ele><time>2026-04-18T12:18:26.681Z</time></trkpt><trkpt lat="43.3457769" lon="11.9171849"><ele>293.0</ele><time>2026-04-18T12:18:27.674Z</time></trkpt><trkpt lat="43.3456958" lon="11.917302"><ele>293.0</ele><time>2026-04-18T12:18:28.678Z</time></trkpt><trkpt lat="43.3456107" lon="11.91741"><ele>293.0</ele><time>2026-04-18T12:18:29.686Z</time></trkpt><trkpt lat="43.345533" lon="11.9174899"><ele>293.0</ele><time>2026-04-18T12:18:30.687Z</time></trkpt><trkpt lat="43.345455" lon="11.9175411"><ele>293.0</ele><time>2026-04-18T12:18:31.674Z</time></trkpt><trkpt lat="43.3453894" lon="11.9175815"><ele>293.0</ele><time>2026-04-18T12:18:32.669Z</time></trkpt><trkpt lat="43.3453246" lon="11.9176012"><ele>293.0</ele><time>2026-04-18T12:18:33.678Z</time></trkpt><trkpt lat="43.3452442" lon="11.9176602"><ele>293.0</ele><time>2026-04-18T12:18:35.682Z</time></trkpt><trkpt lat="43.3451974" lon="11.9177969"><ele>293.0</ele><time>2026-04-18T12:18:37.682Z</time></trkpt><trkpt lat="43.3451805" lon="11.9178853"><ele>293.0</ele><time>2026-04-18T12:18:38.666Z</time></trkpt><trkpt lat="43.3451523" lon="11.9179738"><ele>293.0</ele><time>2026-04-18T12:18:39.676Z</time></trkpt><trkpt lat="43.3451004" lon="11.9180676"><ele>293.0</ele><time>2026-04-18T12:18:40.682Z</time></trkpt><trkpt lat="43.3450393" lon="11.9181513"><ele>293.0</ele><time>2026-04-18T12:18:41.689Z</time></trkpt><trkpt lat="43.3449817" lon="11.9182352"><ele>293.0</ele><time>2026-04-18T12:18:42.671Z</time></trkpt><trkpt lat="43.344929" lon="11.9183248"><ele>293.0</ele><time>2026-04-18T12:18:43.679Z</time></trkpt><trkpt lat="43.3448677" lon="11.9184181"><ele>293.0</ele><time>2026-04-18T12:18:44.687Z</time></trkpt><trkpt lat="43.3448112" lon="11.9185308"><ele>293.0</ele><time>2026-04-18T12:18:45.683Z</time></trkpt><trkpt lat="43.34476" lon="11.9186464"><ele>293.0</ele><time>2026-04-18T12:18:46.694Z</time></trkpt><trkpt lat="43.3447146" lon="11.9187572"><ele>293.0</ele><time>2026-04-18T12:18:47.663Z</time></trkpt><trkpt lat="43.3446731" lon="11.9188663"><ele>293.0</ele><time>2026-04-18T12:18:48.675Z</time></trkpt><trkpt lat="43.3446209" lon="11.9189697"><ele>293.0</ele><time>2026-04-18T12:18:49.676Z</time></trkpt><trkpt lat="43.3445825" lon="11.9190646"><ele>293.0</ele><time>2026-04-18T12:18:50.677Z</time></trkpt><trkpt lat="43.3445587" lon="11.9191635"><ele>293.0</ele><time>2026-04-18T12:18:51.681Z</time></trkpt><trkpt lat="43.3445346" lon="11.919249"><ele>293.0</ele><time>2026-04-18T12:18:52.669Z</time></trkpt><trkpt lat="43.344499" lon="11.9193785"><ele>294.8</ele><time>2026-04-18T12:18:54.671Z</time></trkpt><trkpt lat="43.3444603" lon="11.9195342"><ele>296.6</ele><time>2026-04-18T12:18:56.674Z</time></trkpt><trkpt lat="43.3444199" lon="11.9197019"><ele>298.4</ele><time>2026-04-18T12:18:58.69Z</time></trkpt><trkpt lat="43.3444005" lon="11.9197902"><ele>300.2</ele><time>2026-04-18T12:18:59.669Z</time></trkpt><trkpt lat="43.3443862" lon="11.9198836"><ele>302.0</ele><time>2026-04-18T12:19:00.67Z</time></trkpt><trkpt lat="43.3443634" lon="11.9199681"><ele>302.0</ele><time>2026-04-18T12:19:01.675Z</time></trkpt><trkpt lat="43.3443373" lon="11.9200529"><ele>302.0</ele><time>2026-04-18T12:19:02.672Z</time></trkpt><trkpt lat="43.3443175" lon="11.9201363"><ele>302.0</ele><time>2026-04-18T12:19:03.671Z</time></trkpt><trkpt lat="43.3442829" lon="11.9202546"><ele>302.0</ele><time>2026-04-18T12:19:05.669Z</time></trkpt><trkpt lat="43.3442613" lon="11.920365"><ele>302.0</ele><time>2026-04-18T12:19:07.677Z</time></trkpt><trkpt lat="43.3442484" lon="11.9205294"><ele>302.0</ele><time>2026-04-18T12:19:09.667Z</time></trkpt><trkpt lat="43.3442207" lon="11.9206745"><ele>303.6666666666667</ele><time>2026-04-18T12:19:11.667Z</time></trkpt><trkpt lat="43.344195" lon="11.9207764"><ele>305.33333333333337</ele><time>2026-04-18T12:19:13.668Z</time></trkpt><trkpt lat="43.3441575" lon="11.9209023"><ele>307.0</ele><time>2026-04-18T12:19:15.683Z</time></trkpt><trkpt lat="43.344122" lon="11.9209837"><ele>308.6666666666667</ele><time>2026-04-18T12:19:16.668Z</time></trkpt><trkpt lat="43.3440576" lon="11.9210544"><ele>310.3333333333333</ele><time>2026-04-18T12:19:17.678Z</time></trkpt><trkpt lat="43.3439868" lon="11.9211092"><ele>312.0</ele><time>2026-04-18T12:19:18.677Z</time></trkpt><trkpt lat="43.3439363" lon="11.9212155"><ele>313.6</ele><time>2026-04-18T12:19:21.684Z</time></trkpt><trkpt lat="43.3439374" lon="11.9213527"><ele>315.2</ele><time>2026-04-18T12:19:23.666Z</time></trkpt><trkpt lat="43.3439551" lon="11.9214552"><ele>316.8</ele><time>2026-04-18T12:19:24.669Z</time></trkpt><trkpt lat="43.3440016" lon="11.9215917"><ele>318.4</ele><time>2026-04-18T12:19:25.677Z</time></trkpt><trkpt lat="43.3440725" lon="11.9217608"><ele>320.0</ele><time>2026-04-18T12:19:26.678Z</time></trkpt><trkpt lat="43.3441446" lon="11.9219318"><ele>320.75</ele><time>2026-04-18T12:19:27.668Z</time></trkpt><trkpt lat="43.3442119" lon="11.922087"><ele>321.5</ele><time>2026-04-18T12:19:28.672Z</time></trkpt><trkpt lat="43.3442748" lon="11.9222245"><ele>322.25</ele><time>2026-04-18T12:19:29.668Z</time></trkpt><trkpt lat="43.3443307" lon="11.9223478"><ele>323.0</ele><time>2026-04-18T12:19:30.668Z</time></trkpt><trkpt lat="43.3443708" lon="11.9224662"><ele>322.5</ele><time>2026-04-18T12:19:31.683Z</time></trkpt><trkpt lat="43.3443999" lon="11.9225745"><ele>322.0</ele><time>2026-04-18T12:19:32.67Z</time></trkpt><trkpt lat="43.344411" lon="11.9227595"><ele>321.5</ele><time>2026-04-18T12:19:34.68Z</time></trkpt><trkpt lat="43.3443895" lon="11.922854"><ele>321.0</ele><time>2026-04-18T12:19:35.684Z</time></trkpt><trkpt lat="43.3443556" lon="11.9229384"><ele>320.5</ele><time>2026-04-18T12:19:36.671Z</time></trkpt><trkpt lat="43.3443165" lon="11.923015"><ele>320.0</ele><time>2026-04-18T12:19:37.669Z</time></trkpt><trkpt lat="43.3442218" lon="11.9231165"><ele>320.0</ele><time>2026-04-18T12:19:39.672Z</time></trkpt><trkpt lat="43.3441016" lon="11.9231753"><ele>320.0</ele><time>2026-04-18T12:19:41.672Z</time></trkpt><trkpt lat="43.3439807" lon="11.9232255"><ele>320.0</ele><time>2026-04-18T12:19:43.677Z</time></trkpt><trkpt lat="43.3439156" lon="11.9232473"><ele>320.0</ele><time>2026-04-18T12:19:44.671Z</time></trkpt><trkpt lat="43.3438528" lon="11.9232685"><ele>320.0</ele><time>2026-04-18T12:19:45.682Z</time></trkpt><trkpt lat="43.3437342" lon="11.9232854"><ele>320.2</ele><time>2026-04-18T12:19:47.675Z</time></trkpt><trkpt lat="43.3436334" lon="11.9232827"><ele>320.4</ele><time>2026-04-18T12:19:49.667Z</time></trkpt><trkpt lat="43.3435464" lon="11.9232689"><ele>320.6</ele><time>2026-04-18T12:19:51.668Z</time></trkpt><trkpt lat="43.3434555" lon="11.9232548"><ele>320.8</ele><time>2026-04-18T12:19:53.671Z</time></trkpt><trkpt lat="43.3433575" lon="11.9232371"><ele>321.0</ele><time>2026-04-18T12:19:55.675Z</time></trkpt><trkpt lat="43.3432447" lon="11.9232288"><ele>320.99999999999994</ele><time>2026-04-18T12:19:57.67Z</time></trkpt><trkpt lat="43.3431307" lon="11.9232297"><ele>321.0</ele><time>2026-04-18T12:19:59.671Z</time></trkpt><trkpt lat="43.3430663" lon="11.9232234"><ele>321.0</ele><time>2026-04-18T12:20:00.674Z</time></trkpt><trkpt lat="43.3430022" lon="11.9232296"><ele>321.0</ele><time>2026-04-18T12:20:01.691Z</time></trkpt><trkpt lat="43.3429366" lon="11.9232407"><ele>321.0</ele><time>2026-04-18T12:20:02.666Z</time></trkpt><trkpt lat="43.3428738" lon="11.9232675"><ele>320.99999999999994</ele><time>2026-04-18T12:20:03.688Z</time></trkpt><trkpt lat="43.3428081" lon="11.9233077"><ele>321.0</ele><time>2026-04-18T12:20:04.693Z</time></trkpt><trkpt lat="43.3427576" lon="11.9233754"><ele>319.8333333333333</ele><time>2026-04-18T12:20:05.673Z</time></trkpt><trkpt lat="43.342706" lon="11.9234817"><ele>318.6666666666667</ele><time>2026-04-18T12:20:06.685Z</time></trkpt><trkpt lat="43.3426559" lon="11.9235936"><ele>317.5</ele><time>2026-04-18T12:20:07.676Z</time></trkpt><trkpt lat="43.3426143" lon="11.9236917"><ele>316.33333333333337</ele><time>2026-04-18T12:20:08.699Z</time></trkpt><trkpt lat="43.3425747" lon="11.923771"><ele>315.1666666666667</ele><time>2026-04-18T12:20:09.662Z</time></trkpt><trkpt lat="43.3425499" lon="11.9238998"><ele>314.0</ele><time>2026-04-18T12:20:11.667Z</time></trkpt><trkpt lat="43.3425932" lon="11.9239849"><ele>314.0</ele><time>2026-04-18T12:20:13.669Z</time></trkpt><trkpt lat="43.3426951" lon="11.9240104"><ele>314.0</ele><time>2026-04-18T12:20:15.668Z</time></trkpt><trkpt lat="43.3427603" lon="11.9240086"><ele>314.0</ele><time>2026-04-18T12:20:16.673Z</time></trkpt><trkpt lat="43.34285" lon="11.9240146"><ele>314.0</ele><time>2026-04-18T12:20:17.686Z</time></trkpt><trkpt lat="43.3429513" lon="11.9240255"><ele>314.0</ele><time>2026-04-18T12:20:18.683Z</time></trkpt><trkpt lat="43.343055" lon="11.9240278"><ele>313.5</ele><time>2026-04-18T12:20:19.676Z</time></trkpt><trkpt lat="43.3431455" lon="11.9240307"><ele>313.0</ele><time>2026-04-18T12:20:20.668Z</time></trkpt><trkpt lat="43.3432309" lon="11.9240376"><ele>312.5</ele><time>2026-04-18T12:20:21.668Z</time></trkpt><trkpt lat="43.3433127" lon="11.9240465"><ele>312.0</ele><time>2026-04-18T12:20:22.669Z</time></trkpt><trkpt lat="43.3433944" lon="11.9240478"><ele>311.5</ele><time>2026-04-18T12:20:23.662Z</time></trkpt><trkpt lat="43.3434709" lon="11.9240555"><ele>311.0</ele><time>2026-04-18T12:20:24.694Z</time></trkpt><trkpt lat="43.3435463" lon="11.9240515"><ele>311.0</ele><time>2026-04-18T12:20:25.687Z</time></trkpt><trkpt lat="43.3436213" lon="11.9240235"><ele>311.0</ele><time>2026-04-18T12:20:26.695Z</time></trkpt><trkpt lat="43.3436882" lon="11.9239696"><ele>311.0</ele><time>2026-04-18T12:20:27.67Z</time></trkpt><trkpt lat="43.3437454" lon="11.9238975"><ele>311.0</ele><time>2026-04-18T12:20:28.695Z</time></trkpt><trkpt lat="43.3438046" lon="11.9238282"><ele>311.0</ele><time>2026-04-18T12:20:29.666Z</time></trkpt><trkpt lat="43.343855" lon="11.9237725"><ele>311.0</ele><time>2026-04-18T12:20:30.681Z</time></trkpt><trkpt lat="43.3439282" lon="11.9236775"><ele>310.0</ele><time>2026-04-18T12:20:32.668Z</time></trkpt><trkpt lat="43.3439801" lon="11.9235422"><ele>309.0</ele><time>2026-04-18T12:20:34.687Z</time></trkpt><trkpt lat="43.3439983" lon="11.9233774"><ele>308.0</ele><time>2026-04-18T12:20:36.666Z</time></trkpt><trkpt lat="43.3439799" lon="11.9232563"><ele>307.0</ele><time>2026-04-18T12:20:38.681Z</time></trkpt><trkpt lat="43.3439027" lon="11.9232274"><ele>306.0</ele><time>2026-04-18T12:20:40.682Z</time></trkpt><trkpt lat="43.3438223" lon="11.9232893"><ele>321.0</ele><time>2026-04-18T12:20:42.686Z</time></trkpt><trkpt lat="43.3437279" lon="11.9232854"><ele>321.0</ele><time>2026-04-18T12:20:44.679Z</time></trkpt><trkpt lat="43.3436366" lon="11.9232596"><ele>321.0</ele><time>2026-04-18T12:20:46.688Z</time></trkpt><trkpt lat="43.3435859" lon="11.9233117"><ele>321.0</ele><time>2026-04-18T12:20:51.672Z</time></trkpt></trkseg></trk></gpx>